     2              OBSERVATION DATA    GPS                 RINEX VERSION / TYPE
teqc 1998Mar9 19980907 20:05:09UTC                          PGM / RUN BY / DATE
                                                            COMMENT
Original Marker Name: WIDE                                  COMMENT
Campaign Name: SCEC/UCLA Landers 92                         COMMENT
4-Character Station Name: WIDE                              COMMENT
6-Character Antenna Code: TRMSST                            COMMENT
Vertical Measurement Point: TGP                             COMMENT
Vertical Offset to Rinex Ref. Point: 0.0629                 COMMENT
Radial Measurement Point: NGP                               COMMENT
Radial Offset to Rinex Ref. Point: 0.2334                   COMMENT
Antenna Height from Field Measurement: 1.3500 m             COMMENT
Original XYZ: -2356145.9451 -4745116.3020 3540391.6870      COMMENT
New XYZ position is based on association with SCEC monument COMMENT
E1D0U3V0+0011. Position of that monument is believed to be  COMMENT
valid to within 1 m horizontally; vertical accuracy         COMMENT
should be no worse than 3-times this value.                 COMMENT
                                                            COMMENT
Revised Rinex header created by UCSD GPS archive for        COMMENT
GSAC on 14-Apr-1999 (1999:104) 00:53:56 GMT                 COMMENT
For assistance contact dagnew@ucsd.edu or hjohnson@ucsd.edu COMMENT
                                                            COMMENT
WIDE                                                        MARKER NAME
UNKNOWN OBSERVER UCLA                                       OBSERVER / AGENCY
889 TRIMBLE 4000 SST NP 4.53 / SP 4.20                      REC # / TYPE / VERS
218 TR 4000SST L1/L2 GEO                                    ANT # / TYPE
 -2356149.0000 -4745123.0000  3540396.0000                  APPROX POSITION XYZ
        1.2668        0.0000        0.0000                  ANTENNA: DELTA H/E/N
     1     1     0                                          WAVELENGTH FACT L1/2
     3    C1    L1    L2                                    # / TYPES OF OBSERV
     0                                                      INTERVAL
  1992     5    10     1    50    0.000000                  TIME OF FIRST OBS
  1992     5    10    16    25   15.000000                  TIME OF LAST OBS
                                                            END OF HEADER
 92  5 10  1 50  0.0000000  0  5G24G12G13G16G20
  20616317.547          -0.04517
  21881179.5864         -0.04057
  23506204.1954         -0.62656
  23096195.2894         -0.93156
  22654021.7034          0.00056
 92  5 10  1 50 15.0000000  0  5G24G12G13G16G20
  20615110.4774      -6341.95048
  21884135.4534      15518.05547
  23508748.078       13391.147 6
  23084344.227      -62271.202 6
  22641874.758      -63819.061 6
 92  5 10  1 50 30.0000000  0  5G24G12G13G16G20
  20613923.6024     -12582.71148        -0.02273
  21887107.930       31146.175 7
  23511296.148       26767.877 6
  23072504.2114    -124506.63746
  22629744.3204    -127594.10146
 92  5 10  1 50 45.0000000  0  5G24G12G13G16G20
  20612753.9224     -18718.78448     -4781.37863
  21890104.531       46887.147 7        -0.48432
  23513842.0084      40132.69646        -0.49271
  23060668.4224    -186702.38946        -0.47071
  22617618.3594    -191321.45146        -0.26371
 92  5 10  1 51  0.0000000  0  5G24G12G13G16G20
  20611608.7274     -24748.35248     -9479.73863
  21893119.094       62741.967 7     12353.89821
  23516383.4384      53486.79646     10405.26961
  23048837.5944    -248856.10046    -48431.87161
  22605497.0004    -254999.62746    -49619.58661
 92  5 10  1 51 15.0000000  0  5G24G12G13G16G20
  20610480.6644     -30673.76348    -14096.94463
  21896158.508       78707.395 7     24794.46921
  23518919.9224      66827.26446     20800.42061
  23037022.0234    -310965.92846    -96829.08561
  22593389.3054    -318631.06146    -99202.49561
 92  5 10  1 51 30.0000000  0  5G24G12G13G16G20
  20609373.4384     -36489.73548    -18628.86363
  21899218.992       94786.606 7     37323.70221
  23521458.094       80157.667 6     31187.71421
  23025210.0944    -373027.82646   -145188.94561
  22581288.5704    -382211.98546   -148746.03861
 92  5 10  1 51 45.0000000  0  5G24G12G13G16G20
  20608286.9534     -42197.65648    -23076.59563
  21902301.172      110978.638 7     49940.84521
  23523987.930       93477.232 6     41566.56821
  23013409.125     -435040.039 6   -193510.10221
  22569200.6804    -445742.85946   -198250.58361
 92  5 10  1 52  0.0000000  0  5G24G12G13G16G20
  20607220.5784     -47799.94248    -27442.01063
  21905404.711      127283.369 7     62645.81021
  23526523.4844     106786.40946     51937.33661
  23001620.297     -496998.145 6   -241789.09521
  22557121.5784    -509223.03646   -247715.62461
 92  5 10  1 52 15.0000000  0  5G24G12G13G16G20
  20606174.7194     -53298.79448    -31726.82963
  21908528.313      143699.056 7     75437.23121
  23529051.484      120083.586 6     62298.73221
  22989840.7194    -558903.56846   -290027.02761
  22545053.1954    -572653.75646   -297142.13061
 92  5 10  1 52 30.0000000  0  5G24G12G13G16G20
  20605150.3914     -58682.92348    -35922.25663
  21911672.906      160235.865 7     88323.03521
  23531582.586      133379.516 6     72659.17521
  22978071.539     -620745.766 6   -338215.69821
  22532991.8754    -636023.84946   -346521.39961
 92  5 10  1 52 45.0000000  0  5G24G12G13G16G20
  20604147.5004     -63953.16248    -40028.93763
  21914843.5394     176893.24047    101302.77661
  23534114.1094     146673.38346     83017.99361
  22966315.7344    -682524.23246   -386354.71161
  22520944.7974    -699333.56146   -395853.60761
 92  5 10  1 53  0.0000000  0  5G24G12G13G16G20
  20603164.4924     -69121.15148    -44055.93963
  21918034.969      193661.812 7    114369.17421
  23536642.813      159956.243 6     93368.23421
  22954567.648     -744244.188 6   -434448.13121
  22508909.398     -762591.579 6   -445145.54121
 92  5 10  1 53 15.0000000  0  5G24G12G13G16G20
  20602200.4224     -74186.86248    -48003.24663
  21921247.2584     210542.45047    127522.89061
  23539166.328      173229.551 6    103711.06121
  22942835.844     -805904.762 6   -482495.27921
  22496879.1644    -825796.22546   -494395.89261
 92  5 10  1 53 30.0000000  0  5G24G12G13G16G20
  20601254.5164     -79156.92048    -51876.01763
  21924479.203      227530.243 7    140760.10521
  23541691.9304     186488.59146    114042.71561
  22931113.719     -867512.731 6   -530501.44021
  22484862.8444    -888951.94846   -543608.11761
 92  5 10  1 53 45.0000000  0  5G24G12G13G16G20
  20600326.6644     -84031.88548    -55674.69063
  21927733.180      244626.138 7    154081.55721
  23544212.2734     199735.00746    124364.57561
  22919397.906     -929068.623 6   -578467.02021
  22472852.3054    -952056.83946   -592780.74061
 92  5 10  1 54  0.0000000  0  5G24G12G13G16G20
  20599418.5314     -88810.97348    -59398.65263
  21931007.3364     261833.26347    167489.68161
  23546729.2894     212971.92046    134679.03461
  22907695.680     -990568.331 6   -626388.81721
  22460852.8054   -1015107.64946   -641911.21161
 92  5 10  1 54 15.0000000  0  5G24G12G13G16G20
  20598526.7114     -93494.09948    -63047.84163
  21934302.281      279148.879 7    180982.34221
  23549247.477      226196.994 6    144984.24321
  22895999.859    -1052016.767 6   -674270.67121
  22448865.2664   -1078106.10846   -691000.89961
 92  5 10  1 54 30.0000000  0  5G24G12G13G16G20
  20597653.2424     -98078.28048    -66619.93163
  21937617.086      296574.403 7    194560.64821
  23551759.422      239411.929 6    155281.58221
  22884318.813    -1113416.270 6   -722114.38921
  22436888.188    -1141050.118 6   -740048.15221
 92  5 10  1 54 45.0000000  0  5G24G12G13G16G20
  20596799.5234    -102562.30748    -70113.97463
  21940955.695      314113.249 7    208227.25321
  23554275.9694     252620.40146    165573.85461
  22872644.758    -1174763.698 6   -769917.52921
  22424921.547    -1203935.748 6   -789049.91721
 92  5 10  1 55  0.0000000  0  5G24G12G13G16G20
  20595964.3754    -106953.21648    -73535.46363
  21944315.1884     331760.15347    221978.05961
  23556789.0704     265817.34246    175857.14961
  22860980.094    -1236062.993 6   -817683.16521
  22412967.156    -1266767.549 6   -838009.73321
 92  5 10  1 55 15.0000000  0  5G24G12G13G16G20
  20595146.9924    -111249.29548    -76883.05363
  21947689.6884     349514.02547    235812.21961
  23559297.4144     279002.43646    186131.23361
  22849320.891    -1297316.486 6   -865413.11521
  22401018.570    -1329545.852 6   -886927.87021
 92  5 10  1 55 30.0000000  0  5G24G12G13G16G20
  20594349.1884    -115446.12948    -80153.31263
  21951090.563      367378.638 7    249732.67121
  23561801.4064     292179.32446    196398.92361
  22837675.414    -1358522.080 6   -913105.73121
  22389081.813    -1392266.541 6   -935801.11021
 92  5 10  1 55 45.0000000  0  5G24G12G13G16G20
  20593570.3754    -119542.21548    -83345.06463
  21954511.672      385353.216 7    263738.81021
  23564306.180      305347.981 6    206660.18321
  22826037.7974   -1419676.99046   -960758.86161
  22377158.047    -1454929.331 6   -984629.23421
 92  5 10  1 56  0.0000000  0  5G24G12G13G16G20
  20592809.4224    -123541.09448    -86461.07663
  21957952.047      403433.400 7    277827.24321
  23566812.055      318504.174 6    216911.72621
  22814409.5084   -1480781.21646  -1008372.48361
  22365246.148    -1517538.171 6  -1033415.32821
 92  5 10  1 56 15.0000000  0  5G24G12G13G16G20
  20592067.0474    -127440.62448    -89499.67163
  21961414.039      421619.569 7    291998.25521
  23569315.1334     331648.57946    227154.09961
  22802793.3524   -1541831.33646  -1055943.96561
  22353340.539    -1580091.984 6  -1082158.54121
 92  5 10  1 56 30.0000000  0  5G24G12G13G16G20
  20591341.9534    -131245.59548    -92464.58463
  21964893.695      439907.292 7    306248.40121
  23571812.695      344777.188 6    237384.13321
  22791184.961    -1602831.491 6  -1103476.50421
  22341447.086    -1642594.322 6  -1130861.63621
 92  5 10  1 56 45.0000000  0  5G24G12G13G16G20
  20590637.5704    -134952.44548    -95353.03863
  21968392.7194     458301.75947    320581.72861
  23574306.7894     357895.45246    247606.13361
  22779586.820    -1663772.756 6  -1150963.15821
  22329563.953    -1705039.469 6  -1179520.18021
 92  5 10  1 57  0.0000000  0  5G24G12G13G16G20
  20589950.9144    -138558.61048    -98163.03563
  21971914.3204     476802.94647    334998.20861
  23576802.305      371003.976 6    257820.55621
  22768002.758    -1724652.275 6  -1198401.68821
  22317689.828    -1767426.572 6  -1228133.48221
 92  5 10  1 57 15.0000000  0  5G24G12G13G16G20
  20589283.7664    -142064.82548   -100895.15263
  21975454.2344     495406.98647    349494.83261
  23579294.281      384099.063 6    268024.47321
  22756430.930    -1785473.448 6  -1245794.76721
  22305830.516    -1829758.939 6  -1276704.14221
 92  5 10  1 57 30.0000000  0  5G24G12G13G16G20
  20588635.8054    -145465.68448   -103545.17263
  21979015.6724     514116.42547    364073.58961
  23581784.5474     397183.39146    278220.03061
  22744867.023    -1846234.570 6  -1293141.05421
  22293978.391    -1892033.439 6  -1325229.69721
 92  5 10  1 57 45.0000000  0  5G24G12G13G16G20
  20588008.9224    -148761.20348   -106113.11163
  21982595.8204     532931.89747    378734.96561
  23584275.094      410257.886 6    288407.92621
  22733315.531    -1906932.274 6  -1340437.91921
  22282141.273    -1954248.960 7  -1373709.30721
 92  5 10  1 58  0.0000000  0  5G24G12G13G16G20
  20587402.5394    -151950.72648   -108598.45263
  21986195.6484     551853.26147    393478.85861
  23586758.3444     423322.96046    298588.47661
  22721780.422    -1967567.483 6  -1387686.08121
  22270312.500    -2016404.731 7  -1422142.35821
 92  5 10  1 58 15.0000000  0  5G24G12G13G16G20
  20586815.4454    -155040.39748   -111005.99163
  21989816.9534     570875.33647    408301.22661
  23589238.500      436373.832 6    308757.95121
  22710249.656    -2028148.543 6  -1434892.05821
  22258496.867    -2078505.076 7  -1470532.21721
 92  5 10  1 58 30.0000000  0  5G24G12G13G16G20
  20586244.4844    -158028.66547   -113334.51363
  21993454.8984     589998.22447    423202.14961
  23591725.039      449410.754 6    318916.55221
  22698733.680    -2088678.857 6  -1482058.48621
  22246690.781    -2140549.465 7  -1518878.47221
 92  5 10  1 58 45.0000000  0  5G24G12G13G16G20
  20585698.3594    -160908.88748   -115578.84463
  21997114.2274     609228.88047    438187.04661
  23594202.6564     462441.34246    329070.21861
  22687226.141    -2149152.986 6  -1529181.13921
  22234895.906    -2202530.431 7  -1567175.30621
 92  5 10  1 59  0.0000000  0  5G24G12G13G16G20
  20585169.4614    -163687.69248   -117744.14863
  22000794.0314     628558.87547    453249.34861
  23596682.320      475457.404 6    339212.57121
  22675724.125    -2209578.624 6  -1576266.00421
  22223111.523    -2264455.561 7  -1615428.63221
 92  5 10  1 59 15.0000000  0  5G24G12G13G16G20
  20584661.1334    -166357.84948   -119824.79363
  22004493.6804     647997.21947    468396.08161
  23599157.969      488468.123 6    349350.77021
  22664239.547    -2269945.553 6  -1623305.12721
  22211336.930    -2326315.211 7  -1663630.93721
 92  5 10  1 59 30.0000000  0  5G24G12G13G16G20
  20584172.2034    -168926.11347   -121826.04163
  22008210.3444     667541.41647    483625.29561
  23601634.8834     501471.49246    359483.22961
  22652762.938    -2330255.202 6  -1670299.60821
  22199578.9694   -2388111.07947  -1711783.53561
 92  5 10  1 59 45.0000000  0  5G24G12G13G16G20
  20583699.9774    -171405.07648   -123757.70063
  22011948.9224     687182.87046    498930.29361
  23604102.820      514459.546 6    369603.76821
  22641293.531    -2390512.901 6  -1717253.61721
  22187828.625    -2449850.947 7  -1759892.50821
 92  5 10  2  0  0.0000000  0  5G24G12G13G16G20
  20583244.3364    -173794.87747   -125619.88763
  22015706.4064     706924.09447    514313.03761
  23606567.344      527434.805 6    379714.32721
  22629839.680    -2450715.965 6  -1764165.04521
  22176095.773    -2511531.977 7  -1807955.63121
 92  5 10  2  0 15.0000000  0  5G24G12G13G16G20
  20582808.0704    -176094.61847   -127411.89463
  22019480.9924     726765.43646    529773.79461
  23609038.7734     540398.01946    389815.50361
  22618394.234    -2510862.429 6  -1811032.37621
  22164368.227    -2573152.916 7  -1855971.92121
 92  5 10  2  0 30.0000000  0  5G24G12G13G16G20
  20582388.6564    -178300.31847   -129130.62563
  22023277.9384     746709.15747    545314.32961
  23611504.7194     553351.83946    399909.34561
  22606959.5004   -2570947.95046  -1857852.22261
  22152653.203    -2634710.709 7  -1903939.01421
 92  5 10  2  0 45.0000000  0  5G24G12G13G16G20
  20581985.5864    -180418.34647   -130781.03763
  22027088.9924     766749.26946    560929.97061
  23613964.7974     566290.73146    409991.54861
  22595536.719    -2630975.610 6  -1904626.97221
  22140948.742    -2696210.708 7  -1951861.07221
 92  5 10  2  1  0.0000000  0  5G24G12G13G16G20
  20581598.8914    -182448.22147   -132362.75863
  22030921.9064     786886.88746    576621.58961
  23616423.5554     579216.11946    420063.27261
  22584127.938    -2690939.789 6  -1951352.26021
  22129257.2584   -2757651.19947  -1999736.75061
 92  5 10  2  1 14.9990000  0  5G24G12G13G16G20
  20581229.5034    -184389.37547   -133875.34863
  22034773.0034     807122.08747    592389.24861
  23618883.0424     592129.24146    430125.41461
  22572728.690    -2750832.541 6  -1998021.89221
  22117576.440    -2819025.987 6  -2047561.24021
 92  5 10  2  1 29.9990000  0  5G24G12G13G16G20
  20580877.8234    -186237.22547   -135315.22863
  22038642.4954     827462.38746    608238.79861
  23621335.4874     605036.57646    440183.04161
  22561344.214    -2810658.605 6  -2044639.55521
  22105910.7614   -2880337.95547  -2095336.77261
 92  5 10  2  1 44.9990000  0  5G24G12G13G16G20
  20580543.2764    -187989.40647   -136680.56963
  22042533.9484     847904.64246    624167.79761
  23623793.1364     617936.19946    450234.66961
  22549971.464    -2870414.188 6  -2091202.30221
  22094254.800    -2941583.674 7  -2143060.69121
 92  5 10  2  1 59.9990000  0  5G24G12G13G16G20
  20580227.4484    -189653.69047   -137977.41563
  22046440.1444     868438.09746    640167.86361
  23626243.6284     630817.32646    460271.88061
  22538614.4334   -2930110.34346  -2137718.74161
  22082609.581    -3002773.620 7  -2190741.14421
 92  5 10  2  2 14.9990000  0  5G24G12G13G16G20
  20579928.6444    -191222.81347   -139200.10963
  22050366.2144     889067.16946    656242.43361
  23628694.612      643684.937 6    470298.55221
  22527261.823    -2989743.306 6  -2184185.94821
  22070980.026    -3063902.590 7  -2238374.08121
 92  5 10  2  2 29.9990000  0  5G24G12G13G16G20
  20579649.7694    -192696.47247   -140348.41663
  22054309.808      909792.254 7    672391.82421
  23631138.394      656539.700 6    480315.20421
  22515930.448    -3049312.173 6  -2230603.18821
  22059359.565    -3124969.610 7  -2285958.75221
 92  5 10  2  2 44.9990000  0  5G24G12G13G16G20
  20579385.6054    -194072.78147   -141420.86663
  22058272.1204     930617.34646    688619.13761
  23633582.690      669386.037 6    490325.32421
  22504605.9174   -3108811.69746  -2276966.42361
  22047752.409    -3185969.821 7  -2333491.36521
 92  5 10  2  2 59.9990000  0  5G24G12G13G16G20
  20579143.2764    -195354.18147   -142419.36263
  22062254.0734     951542.06446    704924.08061
  23636023.6284     682224.00846    500328.91561
  22493296.644    -3168241.051 6  -2323274.96221
  22036157.034    -3246902.718 7  -2380971.51821
 92  5 10  2  3 14.9990000  0  5G24G12G13G16G20
  20578916.3864    -196548.89847   -143350.31563
  22066254.4564     972558.45546    721300.45361
  23638467.6984     695046.05546    510320.07061
  22482001.1984   -3227609.36446  -2369535.94061
  22024569.042    -3307775.795 6  -2428405.06821
 92  5 10  2  3 29.9990000  0  5G24G12G13G16G20
  20578704.8864    -197653.67147   -144211.17763
  22070272.050      993669.228 6    737750.37621
  23640901.456      707855.199 6    520301.19221
  22470712.792    -3286916.310 6  -2415749.10621
  22013003.878    -3368585.561 7  -2475789.27621
 92  5 10  2  3 44.9990000  0  5G24G12G13G16G20
  20578515.2764    -198661.80547   -144996.74063
  22074308.0114    1014879.88546    754278.12761
  23643340.9954     720657.24546    530276.76161
  22459443.245    -3346156.174 6  -2461909.99521
  22001443.675    -3429325.942 7  -2523119.42521
 92  5 10  2  3 59.9990000  0  5G24G12G13G16G20
  20578340.3394    -199575.82947   -145708.96663
  22078363.8234    1036187.82946    770881.68961
  23645775.4334     733450.11346    540245.22061
  22448178.6284   -3405330.46146  -2508019.79261
  21989895.722    -3489998.734 7  -2570396.90721
 92  5 10  2  4 14.9990000  0  5G24G12G13G16G20
  20578183.2224    -200399.15647   -146350.52363
  22082435.6364    1057593.44746    787561.35461
  23648205.808      746234.464 6    550207.03421
  22436930.245    -3464440.799 6  -2554079.74121
  21978364.300    -3550602.789 7  -2617620.81921
 92  5 10  2  4 29.9990000  0  5G24G12G13G16G20
  20578044.8864    -201135.58847   -146924.36763
  22086526.8154    1079091.19046    804312.81161
  23650639.878      759005.218 6    560158.24021
  22425694.3704   -3523490.98546  -2600092.84061
  21966843.987    -3611143.073 7  -2664795.05421
 92  5 10  2  4 44.9990000  0  5G24G12G13G16G20
  20577919.1124    -201788.29647   -147432.97163
  22090634.2764    1100677.16646    821133.01561
  23653066.3784     771758.67946    570095.94661
  22414467.698    -3582483.877 6  -2646061.28821
  21955334.542    -3671622.820 7  -2711922.10821
 92  5 10  2  4 59.9990000  0  5G24G12G13G16G20
  20577810.1594    -202353.18447   -147873.14963
  22094759.6444    1122351.92646    838022.40761
  23655490.5114     784495.80946    580020.95761
  22403254.0734   -3641416.22446  -2691982.55261
  21943835.980    -3732040.621 7  -2759000.89521
 92  5 10  2  5 14.9990000  0  5G24G12G13G16G20
  20577722.1204    -202816.39647   -148234.09563
  22098903.7534    1144127.34946    854990.23061
  23657912.6904     797228.90046    589942.79961
  22392053.6054   -3700277.36346  -2737848.33761
  21932353.355    -3792384.208 6  -2806021.85521
 92  5 10  2  5 29.9990000  0  5G24G12G13G16G20
  20577650.7764    -203189.94247   -148525.17263
  22103062.7064    1165989.62146    872025.72861
  23660332.628      809944.743 6    599851.19921
  22380860.597    -3759080.833 6  -2783669.18421
  21920882.167    -3852666.480 7  -2852995.03021
 92  5 10  2  5 44.9990000  0  5G24G12G13G16G20
  20577601.3704    -203466.15347   -148740.40863
  22107241.9874    1187945.47446    889134.15261
  23662748.9644     822650.35546    609751.66861
  22369687.9484   -3817816.69746  -2829437.34361
  21909425.230    -3912879.874 7  -2899914.53921
 92  5 10  2  5 59.9990000  0  5G24G12G13G16G20
  20577566.2454    -203646.90647
  22111437.6124    1209993.10846    906314.08861
  23665165.128      835344.492 6    619643.16221
  22358521.964    -3876484.308 6  -2875152.33621
  21897980.987    -3973025.450 7  -2946781.20721
 92  5 10  2  6 14.9990000  0  5G24G12G13G16G20
  20577548.2144    -203730.14847
  22115651.230     1232134.941 6    923567.42121
  23667578.222      848029.820 6    629527.80521
  22347372.1594   -3935081.44946  -2920812.40761
  21886548.089    -4033100.260 7  -2993592.73022
 92  5 10  2  6 29.9990000  0  5G24G12G13G16G20
  20577549.4014    -203722.84947
  22119879.2844    1254362.37746    940887.46961
  23669987.644      860697.987 5    639399.05321
  22336235.081    -3993615.039 6  -2966422.95121
  21875128.3944   -4093112.24547  -3040355.30061
 92  5 10  2  6 44.9990000  0  5G24G12G13G16G20
  20577569.9254    -203620.04547
  22124126.9804    1276681.04146    958278.59761
  23672402.4644     873355.17846    649261.76161
  22325110.526    -4052077.281 6  -3011977.90021
  21863723.276    -4153054.851 7  -3087063.80621
 92  5 10  2  6 59.9990000  0  5G24G12G13G16G20
  20577605.9404    -203428.87947
  22128389.6204    1299087.34546    975738.01661
  23674804.3154     885998.01346    659113.27461
  22313996.9174   -4110472.28746  -3057480.46461
  21852326.823    -4212931.060 7  -3133720.57621
 92  5 10  2  7 14.9990000  0  5G24G12G13G16G20
  20577656.6674    -203148.29847
  22132672.8084    1321585.59046    993269.07761
  23677208.1594     898631.25145    668957.30061
  22302899.042    -4168794.967 6  -3102926.66421
  21840948.323    -4272735.879 7  -3180321.71921
 92  5 10  2  7 29.9990000  0  5G24G12G13G16G20
  20577727.0894    -202783.65047   -148208.61163
  22136970.0034    1344174.09646   1010870.47261
  23679606.987      911253.877 5    678793.08021
  22291813.894    -4227048.282 6  -3148318.81221
  21829581.214    -4332470.119 7  -3226867.86821
 92  5 10  2  7 44.9990000  0  5G24G12G13G16G20
  20577817.0034    -202335.07247   -147859.07363
  22141287.2764    1366853.72146   1028542.86661
  23682012.573      923866.662 5    688621.19921
  22280743.2614   -4285230.53146  -3193655.59561
  21818225.878    -4392132.605 7  -3273358.10121
 92  5 10  2  7 59.9990000  0  5G24G12G13G16G20
  20577914.7534    -201802.93547   -147444.42663
  22145619.9404    1389623.66046   1046285.63561
  23684411.339      936469.601 6    698441.63821
  22269686.7304   -4343340.29746  -3238935.89461
  21806883.589    -4451723.256 7  -3319792.36121
 92  5 10  2  8 14.9990000  0  5G24G12G13G16G20
  20578033.6984    -201192.57147   -146968.82263
  22149969.8944    1412480.64346   1064096.23461
  23686807.683      949059.989 5    708252.25021
  22258639.597    -4401379.351 6  -3284161.08721
  21795559.323    -4511244.433 7  -3366172.48522
 92  5 10  2  8 29.9990000  0  5G24G12G13G16G20
  20578161.9094    -200503.62147   -146431.98263
  22154334.5974    1435425.48046   1081975.28961
  23689198.5654     961638.59445    718053.74161
  22247609.8474   -4459345.30546  -3329329.33161
  21784243.6674   -4570694.84247  -3412497.46461
 92  5 10  2  8 44.9990000  0  5G24G12G13G16G20
  20578309.1514    -199733.61547   -145831.97963
  22158717.792     1458459.835 6   1099924.09821
  23691592.6514     974207.49245    727847.63261
  22236592.698    -4517233.469 6  -3374436.94621
  21772945.448    -4630072.104 7  -3458765.44721
 92  5 10  2  8 59.9990000  0  5G24G12G13G16G20
  20578472.6124    -198882.55547   -145168.81963
  22163118.9014    1481584.91346   1117943.60161
  23693979.097      986768.485 5    737635.41021
  22225592.6674   -4575042.00346  -3419482.51861
  21761659.769    -4689374.233 7  -3504974.88221
 92  5 10  2  9 14.9990000  0  5G24G12G13G16G20
  20578650.2694    -197944.86847   -144438.15463
  22167538.3624    1504802.63746   1136035.29261
  23696368.4644     999323.77845    747418.70561
  22214607.5814   -4632767.47946  -3464463.36861
  21750393.909    -4748598.794 7  -3551123.87221
 92  5 10  2  9 29.9990000  0  5G24G12G13G16G20
  20578846.0034    -196923.46247   -143642.25663
  22171971.7144    1528107.68646   1154195.03661
  23698761.2454    1011868.70045    757193.93061
  22203636.9174   -4690413.59146  -3509382.38161
  21739137.440    -4807749.936 7  -3597215.65021
 92  5 10  2  9 44.9990000  0  5G24G12G13G16G20
  20579056.4874    -195818.71347   -142781.41463
  22176423.3004    1551497.25646   1172420.62961
  23701139.980     1024400.562 5    766958.96421
  22192680.4954   -4747983.69146  -3554242.15961
  21727893.347    -4866830.079 7  -3643252.11321
 92  5 10  2  9 59.9990000  0  5G24G12G13G16G20
  20579282.3004    -194627.07647   -141852.86963
  22180890.5654    1574971.73146   1190712.39361
  23703524.5114    1036920.14345    776714.43261
  22181742.8784   -4805472.69546  -3599038.74161
  21716667.433    -4925838.109 7  -3689232.37521
 92  5 10  2 10 14.9990000  0  5G24G12G13G16G20
  20579524.2534    -193344.90647   -140853.77363
  22185374.4804    1598533.48346   1209072.15861
  23705904.550     1049430.369 5    786462.61421
  22170815.5814   -4862876.69946  -3643769.10661
  21705454.472    -4984770.792 7  -3735153.92922
 92  5 10  2 10 29.9990000  0  5G24G12G13G16G20
  20579786.8624    -191973.16447   -139784.88463
  22189873.2694    1622181.18246   1227498.89961
  23708285.8004    1061930.46645    796202.92661
  22159912.128    -4920199.013 6  -3688435.79021
  21694251.612    -5043628.880 7  -3781017.35321
 92  5 10  2 10 44.9990000  0  5G24G12G13G16G20
  20580063.7844    -190511.51547   -138645.93863
  22194390.355     1645912.811 6   1245991.03121
  23710663.4094    1074418.60245    805933.87861
  22149016.7764   -4977443.83446  -3733042.11661
  21683065.190    -5102413.765 7  -3826823.73822
 92  5 10  2 10 59.9990000  0  5G24G12G13G16G20
  20580359.8864    -188962.42047   -137438.85063
  22198922.3394    1669727.24346   1264547.70061
  23713031.7694    1086894.05445    815654.95561
  22138137.253    -5034613.626 6  -3777589.96221
  21671891.347    -5161125.760 7  -3872573.32221
 92  5 10  2 11 14.9990000  0  5G24G12G13G16G20
  20580672.9484    -187318.64047   -136157.98563
  22203471.425     1693630.809 6   1283173.80721
  23715402.980     1099363.704 5    825371.56321
  22127274.8704   -5091703.74746  -3822075.73061
  21660737.0114   -5219757.88047  -3918260.65962
 92  5 10  2 11 29.9990000  0  5G24G12G13G16G20
  20581002.1444    -185585.64747   -134807.60263
  22208035.362     1717616.603 6   1301863.99021
  23717776.144     1111820.927 5    835078.43021
  22116421.8394   -5148722.41146  -3866505.82961
  21649591.026    -5278316.185 7  -3963890.48122
 92  5 10  2 11 44.9990000  0  5G24G12G13G16G20
  20581349.5654    -183758.60547   -133383.93263
  22212616.769     1741690.323 6   1320622.69121
  23720145.198     1124271.838 5    844780.42021
  22105589.5114   -5205666.29346  -3910877.64961
  21638460.6904   -5336794.37247  -4009457.87662
 92  5 10  2 11 59.9990000  0  5G24G12G13G16G20
  20581714.5264    -181842.81647   -131891.11163
  22217212.980     1765845.666 6   1339444.99321
  23722515.8394    1136710.81645    854473.06061
  22094765.2374   -5262538.71946  -3955193.80261
  21627347.5584   -5395197.82147  -4054967.02662
 92  5 10  2 12 14.9990000  0  5G24G12G13G16G20
  20582095.6984    -179835.23647   -130326.76363
  22221825.987     1790086.486 6   1358333.89721
  23724882.4874    1149141.84245    864159.56061
  22083955.6754   -5319335.47746  -3999450.97061
  21616248.995    -5453522.207 7  -4100414.58122
 92  5 10  2 12 29.9990000  0  5G24G12G13G16G20
  20582495.3864    -177740.13747   -128694.21963
  22226453.769     1814411.117 6   1377288.11321
  23727247.4094    1161563.67145    873838.87861
  22073162.464    -5376061.036 6  -4043652.65621
  21605166.480    -5511768.408 7  -4145801.20322
 92  5 10  2 12 44.9990000  0  5G24G12G13G16G20
  20582910.5894    -175555.87847   -126992.20063
  22231099.3004    1838820.56146   1396308.42061
  23729605.667     1173977.985 5    883512.30621
  22062379.8314   -5432713.62546  -4087797.49661
  21594098.409    -5569934.365 7  -4191125.30422
 92  5 10  2 12 59.9990000  0  5G24G12G13G16G20
  20583343.1674    -173282.03647   -125220.37663
  22235760.870     1863314.404 6   1415394.48421
  23731963.597     1186384.299 5    893179.56421
  22051615.2304   -5489292.69346  -4131885.04661
  21583044.776    -5628020.150 7  -4236386.92922
 92  5 10  2 13 14.9990000  0  5G24G12G13G16G20
  20583792.4484    -170923.36747   -123382.45463
  22240436.737     1887887.926 6   1434542.63821
  23734323.339     1198778.462 5    902837.28721
  22040861.4564   -5545801.09346  -4175917.53061
  21572006.9334   -5686029.53247  -4281589.01962
 92  5 10  2 13 29.9990000  0  5G24G12G13G16G20
  20584259.9254    -168471.70447   -121472.07063
  22245127.776     1912545.505 6   1453756.29621
  23736680.1204    1211165.53145    912489.51561
  22030123.315    -5602231.318 6  -4219889.09921
  21560983.3944   -5743957.64247  -4326727.77662
 92  5 10  2 13 44.9990000  0  5G24G12G13G16G20
  20584742.8624    -165928.75947   -119490.55463
  22249837.128     1937285.298 6   1473034.00821
  23739037.909     1223544.024 5    922135.06021
  22019398.2924   -5658580.27646  -4263797.34461
  21549976.6754   -5801805.53647  -4371804.03162
 92  5 10  2 13 59.9990000  0  5G24G12G13G16G20
  20585243.4484    -163298.68047   -117441.14363
  22254561.003     1962105.179 6   1492374.12821
  23741392.0974    1235912.29945    931772.61661
  22008692.269    -5714846.006 6  -4307640.72721
  21538983.2144   -5859574.66747  -4416818.91262
 92  5 10  2 14 14.9990000  0  5G24G12G13G16G20
  20585758.5344    -160583.37647   -115325.31863
  22259298.573     1987004.210 6   1511775.92321
  23743744.4724    1248269.80745    941401.82561
  21998002.714    -5771027.880 6  -4351418.77621
  21528004.292    -5917265.190 7  -4461772.54022
 92  5 10  2 14 29.9990000  0  5G24G12G13G16G20
  20586293.4404    -157779.97647   -113140.85163
  22264051.4644    2011984.13146   1531240.75961
  23746093.0504    1260618.81145    951024.36661
  21987325.3704   -5827124.97746  -4395130.76361
  21517041.4874   -5974874.50547  -4506662.88962
 92  5 10  2 14 44.9990000  0  5G24G12G13G16G20
  20586843.6364    -154887.39647   -110886.89563
  22268821.308     2037043.904 6   1550767.79421
  23748443.8864    1272958.44245    960639.64961
  21976668.7924   -5883135.47646  -4438775.27361
  21506092.644    -6032403.143 7  -4551490.37222
 92  5 10  2 14 59.9990000  0  5G24G12G13G16G20
  20587411.1124    -151904.74847   -108562.75663
  22273604.495     2062182.362 6   1570356.16021
  23750789.4334    1285288.21545    970247.20361
  21966024.9564   -5939057.41246  -4482350.77661
  21495161.292    -6089851.448 7  -4596255.26022
 92  5 10  2 15 14.9990000  0  5G24G12G13G16G20
  20587996.4334    -148829.69147   -106166.60763
  22278403.1984    2087403.96646   1590009.31261
  23753135.136     1297612.738 5    979850.70921
  21955401.214    -5994883.798 6  -4525851.81321
  21484247.323    -6147214.302 7  -4640953.56022
 92  5 10  2 15 29.9990000  0  4G24G12G16G20
  20588598.4094    -145666.39347   -103701.69763
  22283220.120     2112706.040 6   1609725.16821
  21944797.8624   -6050615.29446  -4569278.92462
  21473350.401    -6204493.569 7  -4685586.73422
 92  5 10  2 15 44.9990000  0  4G24G12G16G20
  20589216.0584    -142421.65147   -101173.33063
  22288047.151     2138083.003 6   1629499.37121
  21934209.3004   -6106256.01746  -4612635.29662
  21462463.073    -6261694.126 7  -4730158.56922
 92  5 10  2 15 59.9990000  0  4G24G12G16G20
  20589848.8784    -139095.30747    -98581.37563
  22292890.034     2163540.198 6   1649336.09421
  21923640.0814   -6161805.43546  -4655920.51962
  21451593.7534   -6318810.05447  -4774664.45862
 92  5 10  2 16 14.9990000  0  4G24G12G16G20
  20590496.0974    -135690.36647    -95928.17563
  22297751.394     2189076.481 6   1669234.44721
  21913083.386    -6217267.258 6  -4699137.49821
  21440741.1904   -6375841.57347  -4819104.57562
 92  5 10  2 16 29.9990000  0  4G24G12G16G20
  20591160.1834    -132205.64747    -93212.81363
  22302626.4564    2214692.69546   1689195.07561
  21902546.120    -6272641.729 6  -4742286.38922
  21429904.1904   -6432787.14247  -4863477.72162
 92  5 10  2 16 44.9990000  0  4G24G12G16G20
  20591837.8554    -128643.58947    -90437.18563
  22307514.3474    2240388.15146   1709217.44261
  21892026.9724   -6327927.85746  -4785366.46262
  21419084.644    -6489646.633 7  -4907783.79122
 92  5 10  2 16 59.9990000  0  4G24G12G16G20
  20592527.6054    -125014.68048    -87609.46563
  22312419.5894    2266155.66346   1729295.95761
  21881519.1984   -6383133.95046  -4828384.16662
  21408278.065    -6546426.577 7  -4952027.88522
 92  5 10  2 17 14.9990000  0  5G24G12G 3G16G20
  20593231.0194    -121319.98948    -84730.48563
  22317337.3394    2291997.08546   1749432.06061
  24240693.6364         -0.00954
  21871030.472    -6438260.989 6  -4871340.25221
  21397487.105    -6603124.562 7  -4996208.10922
 92  5 10  2 17 29.9990000  0  5G24G12G 3G16G20
  20593948.2614    -117553.79047    -81795.78563
  22322268.519     2317918.504 6   1769630.51321
  24230891.1984     -51504.86044
  21860557.722    -6493303.787 6  -4914230.70922
  21386715.605    -6659733.755 7  -5040319.14222
 92  5 10  2 17 44.9990000  0  5G24G12G 3G16G20
  20594677.2924    -113722.22348    -78810.14863
  22327217.2534    2343911.70146   1789884.89461
  24221088.8554    -103002.52444
  21850097.0654   -6548270.96746  -4957062.24062
  21375958.683    -6716261.531 7  -5084366.73422
 92  5 10  2 17 59.9990000  0  5G24G12G 3G16G20
  20595419.1364    -109825.67648    -75773.87863
  22332174.1904    2369975.90546   1810194.59861
  24211290.714     -154493.395 4
  21839651.292    -6603163.244 6  -4999835.39421
  21365219.9724   -6772707.90447  -5128350.89562
 92  5 10  2 18 14.9990000  0  5G24G12G 3G16G20
  20596175.5654    -105852.56748    -72677.95463
  22337152.3004    2396119.20346   1830565.93461
  24201495.8554    -205969.19144
  21829221.0814   -6657969.56046  -5042541.58161
  21354493.136    -6829064.147 7  -5172264.82722
 92  5 10  2 18 29.9990000  0  5G24G12G 3G16G20
  20596944.9334    -101801.85948    -69521.55863
  22342140.886     2422340.068 6   1850997.72721
  24191703.1674    -257431.15144        -0.31971
  21818807.620    -6712686.236 6  -5085177.91122
  21343785.855    -6885331.037 7  -5216109.13622
 92  5 10  2 18 44.9990000  0  5G24G12G 3G16G20
  20597730.2694     -97674.38348    -66305.34563
  22347144.315     2448634.158 6   1871486.58221
  24181913.362     -308883.194 4    -40092.75421
  21808413.769    -6767315.292 6  -5127745.96122
  21333096.261    -6941512.064 7  -5259886.53922
 92  5 10  2 18 59.9990000  0  5G24G12G 3G16G20
  20598532.7534     -93460.52148    -63021.81963
  22352162.378     2475008.604 6   1892038.04021
  24172125.0504    -360317.91844    -80171.71761
  21798037.1674   -6821848.93146  -5170239.66862
  21322422.230    -6997599.630 7  -5303591.11122
 92  5 10  2 19 14.9990000  0  5G24G12G 3G16G20
  20599350.1444     -89162.75648    -59672.91163
  22357197.276     2501457.723 6   1912647.68421
  24162337.245     -411740.502 4   -120241.18921
  21787676.1364   -6876292.08046  -5212662.85462
  21311762.339    -7053598.535 7  -5347226.60122
 92  5 10  2 19 29.9990000  0  5G24G12G 3G16G20
  20600184.0194     -84778.00048    -56256.22163
  22362243.8474    2527982.31346   1933316.13561
  24152558.972     -463150.003 5   -160300.48021
  21777334.597    -6930639.961 6  -5255011.80722
  21301123.933    -7109507.348 7  -5390791.88822
 92  5 10  2 19 44.9990000  0  5G24G12G 3G16G20
  20601034.5584     -80308.81847    -52773.74363
  22367304.464     2554578.657 6   1954040.50821
  24142775.714     -514549.530 4   -200352.01621
  21767009.409    -6984895.072 6  -5297288.47122
  21290503.769    -7165328.921 7  -5434289.19622
 92  5 10  2 19 59.9990000  0  5G24G12G 3G16G20
  20601902.9094     -75749.59648    -49221.10363
  22372379.800     2581249.655 6   1974823.05321
  24132988.730     -565936.131 4   -240393.44321
  21756703.011    -7039052.610 6  -5339489.10822
  21279900.003    -7221059.754 7  -5477715.79822
 92  5 10  2 20 14.9990000  0  5G24G12G 3G16G20
  20602787.0264     -71102.63648    -45600.09763
  22377470.300     2607993.022 6   1995661.98321
  24123217.7144    -617311.55844   -280426.17461
  21746416.792    -7093114.434 6  -5381615.15122
  21269308.894    -7276701.316 7  -5521072.83822
 92  5 10  2 20 29.9990000  0  5G24G12G 3G16G20
  20603687.6984     -66372.36948    -41914.17463
  22382569.737     2634804.301 6   2016553.83521
  24113444.815     -668680.021 4   -320453.45621
  21736146.6284   -7147085.56846  -5423670.54362
  21258735.753    -7332257.388 7  -5564363.26722
 92  5 10  2 20 44.9990000  0  5G24G12G 3G16G20
  20604604.8944     -61553.29948    -38159.05663
  22387687.792     2661690.494 6   2037504.05921
  24103670.0654    -720034.02944   -360469.49461
  21725894.198    -7200961.287 6  -5465651.58122
  21248188.050    -7387719.954 7  -5607580.82622
 92  5 10  2 20 59.9990000  0  5G24G12G 3G16G20
  20605537.4954     -56649.97448    -34338.28663
  22392817.308     2688645.330 6   2058507.77821
  24093899.151     -771379.680 4   -400479.00821
  21715661.6204   -7254747.26646  -5507562.69362
  21237643.815    -7443095.036 7  -5650730.22322
 92  5 10  2 21 14.9990000  0  5G24G12G 3G16G20
  20606487.4334     -51661.92648    -30451.49563
  22397960.003     2715672.194 6   2079567.62221
  24084130.956     -822713.284 4   -440479.14221
  21705443.5974   -7308438.52346  -5549399.99862
  21227122.995    -7498378.298 7  -5693808.06722
 92  5 10  2 21 29.9980000  0  5G24G12G 3G16G20
  20607451.4434     -46594.34048    -26502.72963
  22403116.053     2742766.399 6   2100679.93821
  24074364.154     -874033.860 4   -480469.10121
  21695245.811    -7362034.153 6  -5591162.77722
  21216620.490    -7553568.230 7  -5736813.19022
 92  5 10  2 21 44.9980000  0  5G24G12G 3G16G20
  20608431.4824     -41443.01548    -22488.70863
  22408287.522     2769935.331 6   2121850.47821
  24064600.436     -925344.175 4   -520451.09821
  21685065.5454   -7415536.03247  -5632852.50762
  21206136.678    -7608667.667 7  -5779747.79822
 92  5 10  2 21 59.9980000  0  5G24G12G 3G16G20
  20609426.0844     -36215.61748    -18415.41263
  22413468.975     2797170.799 6   2143072.87721
  24054840.3424    -976646.58844   -560426.90461
  21674900.045    -7468945.527 6  -5674470.25622
  21195670.514    -7663678.391 7  -5822613.28222
 92  5 10  2 22 14.9980000  0  5G24G12G 3G16G20
  20610436.3504     -30914.71148    -14284.83463
  22418663.811     2824472.474 6   2164346.85921
  24045079.9284   -1027941.67244   -600397.01361
  21664752.967    -7522262.174 6  -5716015.64022
  21185220.397    -7718600.125 7  -5865409.42022
 92  5 10  2 22 29.9980000  0  5G24G12G 3G16G20
  20611458.0534     -25535.47948    -10093.22463
  22423874.482     2851846.787 6   2185677.44121
  24035322.2014   -1079222.02244   -640355.64961
  21654626.4434   -7575477.98446  -5757482.46962
  21174786.014    -7773425.605 7  -5908130.55522
 92  5 10  2 22 44.9980000  0  5G24G12G 3G16G20
  20612495.8574     -20083.15448     -5844.66063
  22429097.600     2879289.139 6   2207061.04521
  24025561.982    -1130492.445 4   -680306.54921
  21644519.256    -7628595.052 6  -5798872.34622
  21164372.607    -7828159.060 7  -5950779.98622
 92  5 10  2 22 59.9980000  0  5G24G12G 3G16G20
  20613547.6934     -14559.78348     -1540.73563
  22434329.576     2906797.389 6   2228495.99321
  24015808.9124   -1181754.42344   -720250.84461
  21634429.5374   -7681613.66046  -5840185.51562
  21153970.764    -7882801.600 7  -5993358.57122
 92  5 10  2 23 14.9980000  0  5G24G12G 3G16G20
  20614609.8654      -8961.22947      2821.77563
  22439578.053     2934376.834 6   2249986.41421
  24006054.592    -1233002.312 4   -760184.21621
  21624360.365    -7734527.836 6  -5881417.29722
  21143597.100    -7937347.383 7  -6035861.76222
 92  5 10  2 23 29.9980000  0  5G24G12G 3G16G20
  20615691.1234      -3290.48847      7240.53663
  22444840.6394    2962024.84346   2271530.26261
  23996305.9984   -1284238.52544   -800108.47161
  21614309.037    -7787342.207 7  -5922571.31322
  21133230.818    -7991798.382 7  -6078291.09522
 92  5 10  2 23 44.9980000  0  5G24G12G 3G16G20
  20616783.0454       2446.08447     11710.59163
  22450113.881     2989733.531 6   2293121.39421
  23986555.857    -1335470.546 4   -840029.45321
  21604273.779    -7840063.233 6  -5963652.58522
  21122887.748    -8046161.580 7  -6120652.01422
 92  5 10  2 23 59.9980000  0  5G24G12G 3G16G20
  20617888.3344       8254.82347     16236.88063
  22455398.404     3017510.580 6   2314765.79421
  23976809.209    -1386690.263 4   -879940.83821
  21594260.889    -7892681.929 6  -6004654.12522
  21112560.865    -8100428.543 7  -6162937.93922
 92  5 10  2 24 14.9980000  0  5G24G12G 3G16G20
  20619008.8574      14137.46148     20820.75263
  22460698.6234    3045355.62846   2336463.17261
  23967064.9674   -1437897.83145   -919842.77761
  21584268.0144   -7945200.90646  -6045577.96862
  21102252.170    -8154599.055 7  -6205148.70722
 92  5 10  2 24 29.9980000  0  5G24G12G 3G16G20
  20620142.3894      20097.77647     25465.15163
  22466009.7564    3073270.09146   2358214.64661
  23957323.686    -1489091.418 5   -959733.78621
  21574295.0064   -7997617.83046  -6086422.28162
  21091963.772    -8208670.820 7  -6247282.53422
 92  5 10  2 24 44.9980000  0  5G24G12G 3G16G20
  20621291.1154      26131.95348     30167.11163
  22471334.201     3101248.621 6   2380016.04821
  23947584.0684   -1540275.97244   -999617.78661
  21564337.2644   -8049936.68546  -6127190.18662
  21081689.568    -8262648.410 7  -6289342.97222
 92  5 10  2 24 59.9980000  0  5G24G12G 3G16G20
  20622452.1234      32238.44248     34925.41463
  22476669.506     3129290.982 6   2401867.18221
  23937846.576    -1591451.602 4  -1039494.83621
  21554399.787    -8102160.946 7  -6167884.36022
  21071437.373    -8316531.354 7  -6331329.66422
 92  5 10  2 25 14.9980000  0  5G24G12G 3G16G20
  20623626.6784      38420.60648     39742.68763
  22482018.850     3157398.820 6   2423769.33821
  23928110.272    -1642615.997 5  -1079363.08021
  21544482.9284   -8154290.42446  -6208504.68762
  21061203.334    -8370317.476 7  -6373240.90222
 92  5 10  2 25 29.9980000  0  5G24G12G 3G16G20
  20624818.7404      44673.70647     44615.23663
  22487378.7794    3185567.02546   2445718.53561
  23918374.272    -1693774.076 4  -1119226.45321
  21534581.381    -8206328.164 7  -6249053.53022
  21050982.248    -8424010.955 7  -6415079.96122
 92  5 10  2 25 44.9980000  0  5G24G12G 3G16G20
  20626023.6234      51004.65147     49548.44263
  22492750.381     3213800.781 6   2467718.82021
  23908640.123    -1744920.510 4  -1159080.72421
  21524696.170    -8258267.693 7  -6289525.85122
  21040786.381    -8477605.921 7  -6456842.25522
 92  5 10  2 25 59.9980000  0  5G24G12G 3G16G20
  20627243.5144      57411.16847     54540.53863
  22498136.397     3242098.053 6   2489768.58021
  23898908.912    -1796056.690 4  -1198927.05121
  21514833.436    -8310108.042 7  -6329920.87422
  21030605.436    -8531103.655 7  -6498528.78322
 92  5 10  2 26 14.9980000  0  5G24G12G 3G16G20
  20628476.9284      63895.71247     59593.43563
  22503531.9594    3270459.83646   2511868.61561
  23889177.982    -1847181.364 4  -1238764.34721
  21504984.9204   -8361850.46547  -6370239.60662
  21020443.436    -8584502.499 7  -6540138.25022
 92  5 10  2 26 29.9980000  0  5G24G12G 3G16G20
  20629723.7014      70456.18647     64705.49563
  22508941.7954    3298883.38346   2534016.77361
  23879452.076    -1898297.128 4  -1278594.72521
  21495155.600    -8413494.550 7  -6410481.70422
  21010303.022    -8637804.472 7  -6581672.22922
 92  5 10  2 26 44.9980000  0  5G24G12G 3G16G20
  20630986.0534      77085.93147     69871.53463
  22514362.959     3327364.462 6   2556209.77221
  23869725.615    -1949407.547 5  -1318420.96721
  21485345.0294   -8465042.97847  -6450649.27062
  21000176.076    -8691012.946 7  -6623133.36022
 92  5 10  2 26 59.9980000  0  5G24G12G 3G16G20
  20632261.3114      83788.02747     75093.95363
  22519794.818     3355907.134 6   2578450.75821
  23860002.9824   -2000508.35544  -1358239.71361
  21475553.982    -8516493.156 7  -6490740.27422
  20990070.006    -8744123.267 7  -6664518.00322
 92  5 10  2 27 14.9980000  0  5G24G12G 3G16G20
  20633550.8654      90562.30847     80372.62363
  22525236.0064    3384509.72046   2600738.42661
  23850283.631    -2051600.802 5  -1398051.90821
  21465782.9434   -8567843.70447  -6530753.65662
  20979980.857    -8797136.395 7  -6705826.91222
 92  5 10  2 27 29.9980000  0  5G24G12G 3G16G20
  20634853.8424      97409.53247     85708.12863
  22530692.0534    3413172.22146   2623072.78161
  23840557.451    -2102684.652 5  -1437857.44121
  21456031.2724   -8619090.21647  -6570685.95562
  20969913.725    -8850051.456 7  -6747059.40222
 92  5 10  2 27 44.9980000  0  5G24G12G 3G16G20
  20636173.6394     104331.56847     91101.92563
  22536157.8034    3441896.90546   2645455.59461
  23830838.9124   -2153757.16645
  21446300.0224   -8670228.57047
  20959861.186    -8902865.597 7  -6788213.25322
 92  5 10  2 27 59.9980000  0  5G24G12G 3G16G20
  20637503.5614     111330.11647     96555.34763
  22541636.334     3470685.446 6   2667888.17121
  23821121.318    -2204816.508 4
  21436589.9204   -8721256.69647
  20949830.6624   -8955576.42447  -6829286.59962
 92  5 10  2 28 14.9980000  0  5G24G12G 3G16G20
  20638847.1154     118399.03747    102063.60363
  22547125.600     3499532.786 6   2690366.55921
  23811406.1864   -2255867.21844  -1557220.24361
  21426902.436    -8772180.456 7  -6689976.92122
  20939818.631    -9008188.119 7  -6870282.70022
 92  5 10  2 28 29.9980000  0  5G24G12G 3G16G20
  20640206.0374     125532.70047    107622.31063
  22552624.7644    3528433.40246   2712886.46061
  23801694.3034   -2306914.61044  -1596997.37861
  21417229.7874   -8823005.33147  -6729580.68062
  20929824.1784   -9060705.56147  -6911205.35262
 92  5 10  2 28 44.9980000  0  5G24G12G 3G16G20
  20641576.3814     132737.42247    113236.38463
  22558135.2014    3557393.07946   2735452.38661
  23791982.834    -2357952.569 4  -1636767.13321
  21407577.3034   -8873725.25547  -6769102.66262
  20919849.3344   -9113122.38147  -6952049.60062
 92  5 10  2 28 59.9980000  0  5G24G12G 3G16G20
  20642962.1394     140014.42047    118906.78063
  22563658.0294    3586412.24446   2758064.66261
  23782272.6154   -2408979.99745  -1676528.67961
  21397945.8114   -8924341.86647  -6808544.13862
  20909893.4754   -9165437.26147  -6992814.41362
 92  5 10  2 29 14.9980000  0  5G24G12G 3G16G20
  20644359.8814     147362.45647    124632.52663
  22569190.2794    3615489.05746   2780721.86361
  23772563.818    -2459998.865 5  -1716283.57321
  21388333.7484   -8974854.71147  -6847904.76362
  20899959.1074   -9217651.50947  -7033500.81262
 92  5 10  2 29 29.9980000  0  5G24G12G 3G16G20
  20645773.3424     154785.55047    130416.76563
  22574734.9904    3644627.40646   2803427.00161
  23762859.209    -2511004.647 5  -1756028.23921
  21378739.670    -9025259.203 7  -6887180.95022
  20890045.0924   -9269760.27647  -7074105.01562
 92  5 10  2 29 44.9980000  0  5G24G12G 3G16G20
  20647199.7174     162280.16747    136256.73363
  22580292.0144    3673823.16346   2826176.88661
  23753148.014    -2562001.135 4  -1795765.72521
  21369167.8814   -9075559.53747  -6926375.97562
  20880148.0924   -9321767.02947  -7114629.72562
 92  5 10  2 29 59.9980000  0  5G24G12G 3G16G20
  20648638.5064     169844.97647    142151.39263
  22585859.1544    3703073.50146   2848969.29761
  23743450.318    -2612990.835 5  -1835497.87321
  21359617.1234   -9125760.14747  -6965493.29362
  20870270.3344   -9373674.03747  -7155076.71162
 92  5 10  2 30 14.9980000  0  5G24G12G 3G16G20
  20650091.7954     177479.51747    148100.39063
  22591435.9514    3732379.22546   2871804.86861
  23733747.647    -2663972.542 5  -1875223.82621
  21350081.3504   -9175858.69847  -7004531.08862
  20860410.0454   -9425479.60847  -7195444.66062
 92  5 10  2 30 29.9980000  0  5G24G12G 3G16G20
  20651556.8264     185185.12347    154104.76263
  22597022.670     3761740.709 6   2894683.88821
  23724052.3344   -2714945.34645  -1914942.81961
  21340570.0534   -9225851.47247  -7043486.45062
  20850570.7954   -9477182.41747  -7235732.53262
 92  5 10  2 30 44.9980000  0  5G24G12G 3G16G20
  20653035.6234     192956.40447    160160.31263
  22602620.311     3791153.436 6   2917602.83021
  23714347.2724   -2765913.92945  -1954658.52261
  21331077.8894   -9275739.96547  -7082360.56462
  20840752.3184   -9528786.62747  -7275943.57462
 92  5 10  2 30 59.9980000  0  5G24G12G 3G16G20
  20654526.6474     200793.66247    166267.27163
  22608226.3034    3820619.25946   2940563.14761
  23704652.100    -2816875.676 5  -1994368.88421
  21321604.2324   -9325520.10947  -7121150.25362
  20830949.4514   -9580289.64247  -7316075.76062
 92  5 10  2 31 14.9980000  0  5G24G12G 3G16G20
  20656032.9284     208700.61447    172428.53263
  22613844.076     3850142.041 6   2963567.86021
  23694957.6154   -2867826.42945  -2034070.73161
  21312151.9754   -9375185.32347  -7159850.38662
  20821169.2174   -9631686.62147  -7356125.32162
 92  5 10  2 31 29.9980000  0  5G24G12G 3G16G20
  20657550.3654     216678.53947    178645.10463
  22619474.6154    3879723.34546   2986618.16561
  23685264.943    -2918764.356 5  -2073762.53621
  21302722.522    -9424731.973 7  -7198458.12022
  20811411.2484   -9682975.44347  -7396090.60362
 92  5 10  2 31 44.9980000  0  5G24G12G 3G16G20
  20659079.8114     224722.73047    184913.30963
  22625112.6934    3909357.77346   3009709.85661
  23675570.8264   -2969694.59244  -2113448.40661
  21293315.4434   -9474166.57147  -7236978.54562
  20801671.3574   -9734160.79747  -7435975.26462
 92  5 10  2 31 59.9980000  0  5G24G12G 3G16G20
  20660625.3184     232834.19747    191233.93963
  22630763.5534    3939047.45246   3032844.60961
  23665883.4204   -3020614.36445  -2153126.06761
  21283926.7174   -9523487.77047  -7275410.61462
  20791950.7014   -9785239.68647  -7475776.96362
 92  5 10  2 32 14.9980000  0  5G24G12G 3G16G20
  20662179.5144     241006.43347    197601.92463
  22636422.4044    3968789.08846   3056019.84661
  23656196.1394   -3071526.88545
  21274565.3504   -9572700.69747  -7313758.30962
  20782250.8114   -9836214.82747
 92  5 10  2 32 29.9980000  0  5G24G12G 3G16G20
  20663745.1074     249239.20447    204017.07263
  22642091.842     3998584.864 6   3079237.27821
  23646506.3264   -3122429.48845
  21265224.0294   -9621802.31847  -7352019.27662
  20772569.9124   -9887083.17747
 92  5 10  2 32 44.9980000  0  5G24G12G 3G16G20
  20665323.6394     257535.37047    210481.62263
  22647772.6704    4028434.69746   3102496.82061
  23636820.975    -3173321.995 4  -2272118.79021
  21255902.1074   -9670794.67347  -7390195.09762
  20762908.2644   -9937844.21947  -7594689.49262
 92  5 10  2 32 59.9980000  0  5G24G12G 3G16G20
  20666913.6314     265891.73047    216993.08063
  22653463.6784    4058334.66846   3125795.43461
  23627137.029    -3224207.912 4  -2311770.08721
  21246596.8894   -9719686.31947  -7428292.45262
  20753272.4434   -9988501.24347  -7634162.46562
 92  5 10  2 33 14.9980000  0  5G24G12G 3G16G20
  20668517.2874     274311.13947    223553.66663
  22659163.787     4088285.077 6   3149133.35021
  23617455.568    -3275086.585 5  -2351415.74521
  21237310.2014   -9768478.75847  -7466312.49262
  20743650.0454  -10039053.09447  -7673553.49162
 92  5 10  2 33 29.9980000  0  5G24G12G 3G16G20
  20670131.1234     282795.66947    230164.99563
  22664872.6474    4118287.91346   3172512.11961
  23607778.693    -3325955.720 4  -2391053.96821
  21228044.436    -9817171.074 7  -7504254.51422
  20734052.9904  -10089497.09347  -7712860.46962
 92  5 10  2 33 44.9980000  0  5G24G12G 3G16G20
  20671757.6314     291341.10547    236823.78263
  22670591.0924    4148340.20146   3195929.41361
  23598097.7174   -3376817.65945  -2430686.55961
  21218794.498    -9865764.814 7  -7542119.72222
  20724473.6074  -10139835.35447  -7752085.05862
 92  5 10  2 33 59.9980000  0  5G24G12G 3G16G20
  20673394.8654     299950.91547    243532.72863
  22676317.9824    4178444.02946   3219386.87761
  23588423.357    -3427670.328 5  -2470311.96821
  21209568.857    -9914256.145 7  -7579905.13222
  20714914.4364  -10190065.08247  -7791225.07862
 92  5 10  2 34 14.9980000  0  5G24G12G 3G16G20
  20675046.7484     308622.24647    250289.61363
  22682057.2094    4208596.09546   3242881.94061
  23578741.7644   -3478516.43844  -2509932.22361
  21200363.6074   -9962645.30847  -7617610.93362
  20705376.2014  -10240188.90947  -7830282.57662
 92  5 10  2 34 29.9980000  0  5G24G12G 3G16G20
  20676709.1784     317358.87347    257097.37363
  22687803.342     4238796.391 6   3266414.57521
  23569073.0374   -3529355.76645  -2549547.21461
  21191175.4594  -10010928.94147  -7655234.50662
  20695854.701   -10290206.252 7  -7869257.10422
 92  5 10  2 34 44.9980000  0  5G24G12G 3G16G20
  20678383.1074     326163.64847    263958.24563
  22693558.6864    4269043.84646   3289983.94261
  23559395.2174   -3580189.03545  -2589157.49761
  21182006.9124  -10059104.58747  -7692773.93062
  20686361.131   -10340117.467 7  -7908148.93422
 92  5 10  2 34 59.9980000  0  5G24G12G 3G16G20
  20680073.6544     335038.96047    270874.07063
  22699325.3504    4299340.54846   3313591.71061
  23549727.4594   -3631013.78145  -2628761.11661
  21172860.1544  -10107169.65847  -7730227.19362
  20676882.920   -10389919.721 7  -7946955.86022
 92  5 10  2 35 14.9980000  0  5G24G12G 3G16G20
  20681774.9514     343984.10547    277844.31363
  22705099.311     4329687.713 5   3337238.76621
  23540057.014    -3681828.453 5  -2668356.89421
  21163733.7874  -10155116.96947  -7767588.69562
  20667426.0144  -10439610.85747  -7985676.20062
 92  5 10  2 35 29.9980000  0  5G24G12G 3G16G20
  20683490.2014     352998.61947    284868.61463
  22710883.5374    4360085.90845   3360925.61961
  23530388.2254   -3732632.02845  -2707944.03061
  21154634.2254  -10202938.97247  -7804852.55462
  20657993.568   -10489189.825 7  -8024309.13922
 92  5 10  2 35 44.9980000  0  5G24G12G 3G16G20
  20685219.2874     362081.83547    291946.44563
  22716677.943     4390535.419 6   3384652.43321
  23520720.5064   -3783423.89345  -2747522.02061
  21145556.1394  -10250632.66947  -7842016.43862
  20648580.717   -10538655.537 7  -8062853.82522
 92  5 10  2 35 59.9980000  0  5G24G12G 3G16G20
  20686958.2794     371225.26047    299071.19063
  22722482.4984    4421026.90146   3408411.97361
  23511058.506    -3834213.088 5  -2787097.97421
  21136507.0374  -10298206.26247  -7879086.73662
  20639184.787   -10588016.678 7  -8101317.03122
 92  5 10  2 36 14.9980000  0  5G24G12G 3G16G20
  20688710.8264     380432.94347    306246.00963
  22728290.7174    4451561.94646   3432205.44361
  23501390.3034   -3884997.70844  -2826670.32761
  21127477.3264  -10345660.32647  -7916063.89862
  20629812.264   -10637270.924 7  -8139696.93922
 92  5 10  2 36 29.9980000  0  5G24G12G 3G16G20
  20690477.1864     389711.62947    313476.15763
  22734113.068     4482149.034 5   3456039.46321
  23491731.4824   -3935768.90045  -2866232.21761
  21118471.7794  -10392985.99547  -7952941.00162
  20620461.803   -10686409.323 7  -8177986.57822
 92  5 10  2 36 44.9980000  0  5G24G12G 3G16G20
  20692255.6934     399052.66547    320754.88363
  22739942.4674    4512780.89145   3479908.38261
  23482071.2484   -3986533.50745  -2905788.95761
  21109487.8184  -10440188.27347  -7989721.97062
  20611133.529   -10735438.265 7  -8216190.93522
 92  5 10  2 36 59.9980000  0  5G24G12G 3G16G20
  20694045.2254     408454.75447    328081.18763
  22745780.3734    4543459.03645   3503813.35461
  23472414.8504   -4037289.49245  -2945339.01361
  21100528.2874  -10487266.81147  -8026406.51262
  20601824.818   -10784355.259 7  -8254308.05122
 92  5 10  2 37 14.9980000  0  5G24G12G 3G16G20
  20695845.1934     417907.88847    335447.26663
  22751625.5924    4574174.95945   3527747.77061
  23462758.170    -4088045.414 5  -2984889.03821
  21091592.0924  -10534231.15647  -8063002.06862
  20592535.412   -10833168.343 7  -8292344.20022
 92  5 10  2 37 29.9980000  0  5G24G12G 3G16G20
  20697655.1474     427429.43647    342866.65863
  22757480.272     4604943.619 5   3551723.28121
  23453097.373    -4138785.564 5  -3024426.74721
  21082680.0684  -10581066.53647  -8099497.13862
  20583269.889   -10881861.461 7  -8330286.87422
 92  5 10  2 37 44.9980000  0  5G24G12G 3G16G20
  20699479.6784     437015.03347    350335.95263
  22763345.350     4635760.559 5   3575736.41021
  23443445.686    -4189514.389 5  -3063955.60821
  21073792.2724  -10627781.68747  -8135898.52062
  20574024.779   -10930438.802 7  -8368139.32922
 92  5 10  2 37 59.9980000  0  5G24G12G 3G16G20
  20701314.2254     446663.82147    357854.49163
  22769217.3974    4666624.20945   3599785.94661
  23433792.670    -4240232.791 4  -3103476.39121
  21064921.7324  -10674380.85847  -8172209.52762
  20564804.397   -10978901.163 7  -8405902.19122
 92  5 10  2 38 14.9980000  0  5G24G12G 3G16G20
  20703163.6544     456371.80647    365419.15563
  22775096.295     4697528.146 5   3623866.85721
  23424140.4284   -4290947.00045  -3142993.89561
  21056075.5144  -10720871.11447  -8208435.66762
  20555602.522   -11027254.316 7  -8443579.95522
 92  5 10  2 38 29.9980000  0  5G24G12G 3G16G20
  20705021.2324     466140.87547    373031.41563
  22780986.8424    4728476.06045   3647982.04161
  23414494.2724   -4341653.08745  -3182505.05961
  21047250.3894  -10767248.25647  -8244573.66662
  20546422.279   -11075493.746 7  -8481169.10922
 92  5 10  2 38 44.9980000  0  5G24G12G 3G16G20
  20706891.3264     475965.59147    380687.04263
  22786883.639     4759463.869 5   3672128.30921
  23404849.0144   -4392354.51845  -3222012.61061
  21038446.5844  -10813516.10847  -8280626.50762
  20537262.100   -11123622.881 7  -8518672.31422
 92  5 10  2 38 59.9980000  0  5G24G12G 3G16G20
  20708773.7254     485853.56347    388391.95763
  22792791.014     4790498.689 5   3696311.21121
  23395200.7324   -4443044.02545  -3261510.85061
  21029664.5534  -10859670.85147  -8316591.20262
  20528127.943   -11171633.892 7  -8556083.47522
 92  5 10  2 39 14.9980000  0  5G24G12G 3G16G20
  20710665.5374     495799.85847    396142.31863
  22798702.092     4821572.452 5   3720524.46221
  23385556.6704   -4493729.00545  -3301005.56461
  21020897.7564  -10905722.07647  -8352475.23862
  20519013.748   -11219533.989 7  -8593408.21022
 92  5 10  2 39 29.9980000  0  5G24G12G 3G16G20
  20712571.3814     505810.33247    403942.68863
  22804625.2094    4852689.68345   3744771.59261
  23375914.0294   -4544405.01645  -3340493.29461
  21012155.7174  -10951663.49547  -8388273.71262
  20509921.178   -11267318.084 7  -8630642.55622
 92  5 10  2 39 44.9980000  0  5G24G12G 3G16G20
  20714485.7794     515884.65047    411792.80463
  22810556.022     4883849.291 5   3769051.72621
  23366269.092    -4595072.350 5  -3379974.27921
  21003435.6544  -10997493.93047  -8423985.70362
  20500848.600   -11314986.443 7  -8667786.71622
 92  5 10  2 39 59.9980000  0  5G24G12G 3G16G20
  20716413.3974     526016.67247    419687.88963
  22816491.092     4915046.575 5   3793361.22921
  23356630.982    -4645735.639 5  -3419452.09521
  20994736.6314  -11043215.93347  -8459613.20262
  20491798.545   -11362543.284 7  -8704843.97722
 92  5 10  2 40 14.9980000  0  5G24G12G 3G16G20
  20718354.8734     536213.56147    427633.51263
  22822437.248     4946287.937 5   3817705.07421
  23346990.670    -4696388.174 5  -3458921.52221
  20986058.0614  -11088820.77947  -8495149.40662
  20482773.162   -11409981.383 7  -8741808.71222
 92  5 10  2 40 29.9980000  0  5G24G12G 3G16G20
  20720309.2484     546474.95447    435629.40663
  22828388.318     4977573.359 5   3842083.25921
  23337355.436    -4747029.395 5  -3498382.15021
  20977399.8654  -11134307.35047  -8530593.45162
  20473768.982   -11457299.817 7  -8778680.19922
 92  5 10  2 40 44.9980000  0  5G24G12G 3G16G20
  20722273.7324     556796.28547    443671.99763
  22834347.811     5008898.044 5   3866492.04221
  23327720.3654   -4797663.69545  -3537837.38461
  20968765.5454  -11179679.41647  -8565948.26962
  20464787.904   -11504503.061 7  -8815461.92922
 92  5 10  2 40 59.9980000  0  5G24G12G 3G16G20
  20724247.6394     567179.94047    451763.15963
  22840318.068     5040260.585 5   3890930.29421
  23318082.568    -4848292.448 5  -3577288.28421
  20960154.3574  -11224936.15747  -8601213.22562
  20455825.232   -11551591.691 7  -8852154.35222
 92  5 10  2 41 14.9980000  0  5G24G12G 3G16G20
  20726238.3184     577631.64847    459907.34663
  22846292.9514    5071663.90645   3915400.35261
  23308451.279    -4898912.136 5  -3616732.15621
  20951567.3574  -11270071.59847  -8636383.66462
  20446884.615   -11598561.996 7  -8888754.56722
 92  5 10  2 41 29.9980000  0  5G24G12G 3G16G20
  20728240.9204     588153.51547    468106.20163
  22852278.1624    5103109.75445   3939903.53361
  23298818.881    -4949520.704 5  -3656167.34421
  20943003.2094  -11315079.47947  -8671454.70662
  20437968.943   -11645411.574 7  -8925260.70922
 92  5 10  2 41 44.9970000  0  5G24G12G 3G16G20
  20730252.6894     598735.16247    476351.64363
  22858269.556     5134588.960 5   3964432.70721
  23289188.6184   -5000121.50045  -3695596.45661
  20934459.1344  -11359963.80047  -8706429.46662
  20429077.649   -11692143.731 7  -8961675.35722
 92  5 10  2 41 59.9970000  0  5G24G12G 3G16G20
  20732278.5954     609376.01447    484643.21063
  22864267.6654    5166105.33245   3988990.84261
  23279565.603    -5050721.330 5  -3735024.83421
  20925938.9544  -11404730.65347  -8741312.69262
  20420208.860   -11738764.280 7  -8998003.03622
 92  5 10  2 42 14.9970000  0  5G24G12G 3G16G20
  20734314.1344     620084.61247    492987.56763
  22870272.712     5197665.086 5   4013582.78121
  23269933.743    -5101307.955 5  -3774442.90921
  20917445.6654  -11449370.53647  -8776096.98562
  20411356.970   -11785261.167 7  -9034234.35622
 92  5 10  2 42 29.9970000  0  5G24G12G 3G16G20
  20736366.4544     630849.09547    501375.46963
  22876281.532     5229255.247 5   4038198.41521
  23260305.1494   -5151894.24545  -3813860.74961
  20908974.1574  -11493898.16847  -8810793.80662
  20402531.860   -11831646.629 7  -9070378.85022
 92  5 10  2 42 44.9970000  0  5G24G12G 3G16G20
  20738425.1034     641674.83247    509811.11063
  22882298.845     5260880.016 5   4062841.02321
  23250681.415    -5202475.463 5  -3853274.62521
  20900523.8994  -11538308.12747  -8845398.93262
  20393724.720   -11877915.656 7  -9106432.62022
 92  5 10  2 42 59.9970000  0  5G24G12G 3G16G20
  20740496.9154     652563.95447    518296.13563
  22888325.282     5292541.721 5   4087512.39921
  23241061.4464   -5253048.97245  -3892682.46661
  20892093.9624  -11582596.20847  -8879909.09362
  20384944.290   -11924065.332 7  -9142393.38322
 92  5 10  2 43 14.9970000  0  5G24G12G 3G16G20
  20742581.1104     663512.21247    526827.23963
  22894358.978     5324237.610 5   4112210.42621
  23231439.9704   -5303617.18945  -3932086.23261
  20883687.4394  -11626762.52347  -8914324.36862
  20376186.970   -11970097.719 7  -9178262.75022
 92  5 10  2 43 29.9970000  0  5G24G12G 3G16G20
  20744674.6184     674512.89747    535399.20063
  22900396.118     5355965.187 5   4136933.14321
  23221818.6964   -5354182.16545  -3971487.44161
  20875307.3214  -11670809.28447  -8948646.48762
  20367447.485   -12016014.580 7  -9214042.10222
 92  5 10  2 43 44.9970000  0  5G24G12G 3G16G20
  20746777.2044     685564.76647    544011.04863
  22906437.0404    5387726.40545   4161682.08161
  23212197.0714   -5404741.55045  -4010884.30261
  20866950.7674  -11714734.91547  -8982874.21762
  20358730.814   -12061813.184 7  -9249729.30122
 92  5 10  2 43 59.9970000  0  5G24G12G 3G16G20
  20748890.4544     696663.85747    552659.68863
  22912492.2284    5419517.56245   4186454.32161
  23202573.298    -5455298.897 5  -4050279.58721
  20858613.9544  -11758542.11347  -9017009.66262
  20350037.876   -12107496.659 7  -9285326.78822
 92  5 10  2 44 14.9970000  0  5G24G12G 3G16G20
  20751013.0714     707827.44547    561358.58863
  22918547.204     5451351.420 5   4211259.86721
  23192957.751    -5505841.133 5  -4089663.06821
  20850300.1184  -11802215.44247  -9051040.79462
  20341371.165   -12153051.559 7  -9320824.09022
 92  5 10  2 44 29.9970000  0  5G24G12G 3G16G20
  20753146.5244     719046.44347    570100.66863
  22924609.978     5483217.160 5   4236090.23621
  23183340.970    -5556378.439 5  -4129042.70621
  20842013.5714  -11845763.40947  -9084974.24662
  20332724.814   -12198487.942 7  -9356229.03822
 92  5 10  2 44 44.9970000  0  5G24G12G 3G16G20
  20755292.7744     730320.90547    578885.96463
  22930679.524     5515114.531 5   4260945.26521
  23173720.3534   -5606910.75545  -4168418.49161
  20833753.3064  -11889182.05947  -9118806.93062
  20324098.485   -12243805.394 7  -9391541.31422
 92  5 10  2 44 59.9970000  0  5G24G12G 3G16G20
  20757450.1034     741655.06247    587717.77963
  22936760.743     5547049.905 5   4285829.89321
  23164107.439    -5657431.359 5  -4207785.13221
  20825517.8684  -11932463.01647  -9152532.31462
  20315498.1494  -12288996.84547  -9426755.40762
 92  5 10  2 45 14.9970000  0  5G24G12G 3G16G20
  20759616.501      753040.184 7    596589.31223
  22942840.681     5579016.965 5   4310739.21921
  23154489.704    -5707946.351 5  -4247147.38321
  20817303.5404  -11975613.18747  -9186155.78762
  20306924.689   -12334068.143 7  -9461875.87522
 92  5 10  2 45 29.9970000  0  5G24G12G 3G16G20
  20761793.9464     764478.21747    605502.06763
  22948931.228     5611016.970 5   4335674.23021
  23144888.485    -5758453.893 5  -4286503.85721
  20809116.2284  -12018634.09047  -9219678.53862
  20298369.993   -12379017.245 7  -9496901.12822
 92  5 10  2 45 44.9970000  0  5G24G12G 3G16G20
  20763980.2434     775965.08447    614452.88063
  22955024.915     5643043.262 5   4360629.69921
  23135273.7984   -5808960.52845  -4325859.61061
  20800955.4934  -12061534.10047  -9253107.08662
  20289837.993   -12423850.210 7  -9531835.88622
 92  5 10  2 45 59.9970000  0  5G24G12G 3G16G20
  20766174.6574     787502.17547    623442.82763
  22961127.9544    5675095.17045   4385605.13161
  23125665.8994   -5859466.34245  -4365214.69861
  20792815.7044  -12104313.67547  -9286441.78662
  20281331.853   -12468566.662 7  -9566679.85222
 92  5 10  2 46 14.9970000  0  5G24G12G 3G16G20
  20768381.1184     799098.74647    632479.11563
  22967229.829     5707177.722 5   4410604.45321
  23116053.7984   -5909966.16845  -4404565.15261
  20784696.0014  -12146969.04247  -9319679.70862
  20272844.446   -12513161.164 7  -9601428.79222
 92  5 10  2 46 29.9970000  0  5G24G12G 3G16G20
  20770598.1104     810756.02447    641562.71063
  22973340.720     5739293.338 5   4435629.53421
  23106446.431    -5960456.948 5  -4443908.56021
  20776602.7354  -12189498.60347  -9352819.59562
  20264382.571   -12557630.519 7  -9636080.22022
 92  5 10  2 46 44.9970000  0  5G24G12G 3G16G20
  20772827.7514     822468.63347    650689.41563
  22979458.6654    5771440.71445   4460679.36261
  23096837.126    -6010939.805 5  -4483245.78721
  20768535.3454  -12231904.84147  -9385863.39162
  20255940.110   -12601975.293 7  -9670634.56622
 92  5 10  2 46 59.9970000  0  5G24G12G 3G16G20
  20775066.8064     834231.55247    659855.33163
  22985583.735     5803617.716 5   4485752.26821
  23087234.532    -6061416.533 5  -4522578.20821
  20760488.9234  -12274192.08547  -9418814.45962
  20247527.446   -12646197.079 7  -9705093.07822
 92  5 10  2 47 14.9970000  0  5G24G12G 3G16G20
  20777315.2124     846043.16247    669059.18263
  22991710.564     5835823.023 5   4510847.23621
  23077631.1814   -6111887.90345  -4561906.50161
  20752461.5484  -12316361.80347  -9451673.94962
  20239135.618   -12690296.459 7  -9739456.21122
 92  5 10  2 47 29.9970000  0  5G24G12G 3G16G20
  20779571.4154     857905.04347    678302.21063
  22997843.2204    5868053.33745   4535961.69461
  23068023.7124   -6162357.00545  -4601232.99061
  20744458.7514  -12358416.50947  -9484443.81562
  20230766.696   -12734276.142 7  -9773726.07222
 92  5 10  2 47 44.9970000  0  5G24G12G 3G16G20
  20781837.532      869820.969 7    687587.35723
  23003985.048     5900311.023 5   4561097.47721
  23058423.017    -6212821.034 5  -4640555.54021
  20736482.2984  -12400350.49047  -9517119.61362
  20222418.970   -12778132.801 7  -9807900.06722
 92  5 10  2 47 59.9970000  0  5G24G12G 3G16G20
  20784117.5564     881796.30047    696918.78963
  23010123.689     5932601.647 5   4586258.90921
  23048825.1494   -6263274.23745  -4679869.66761
  20728526.1104  -12442154.75347  -9549694.32862
  20214098.220   -12821860.460 7  -9841973.55122
 92  5 10  2 48 14.9970000  0  5G24G12G 3G16G20
  20786406.3924     893825.16647    706291.93863
  23016275.5644    5964918.96645   4611441.15661
  23039218.782    -6313722.332 5  -4719179.80921
  20720592.5714  -12483833.34147  -9582171.11562
  20205804.985   -12865464.582 7  -9875950.76522
 92  5 10  2 48 29.9970000  0  5G24G12G 3G16G20
  20788705.4704     905904.54847    715704.45163
  23022431.6424    5997259.40945   4636641.41661
  23029618.634    -6364168.496 5  -4758488.44421
  20712684.9234  -12525388.68647  -9614551.86962
  20197528.032   -12908948.027 7  -9909833.94622
 92  5 10  2 48 44.9970000  0  5G24G12G 3G16G20
  20791013.9624     918035.99947    725157.53963
  23028590.3684    6029626.91145   4661862.75561
  23020027.524    -6414608.507 5  -4797792.25821
  20704806.1034  -12566814.32547  -9646831.55962
  20189275.024   -12952306.284 7  -9943619.58122
 92  5 10  2 48 59.9970000  0  5G24G12G 3G16G20
  20793333.1104     930216.02547    734648.47863
  23034755.001     6062016.961 5   4687101.67621
  23010426.9704   -6465046.45645  -4837094.49861
  20696944.6894  -12608114.87947  -9679013.77862
  20181048.399   -12995543.180 7  -9977310.64622
 92  5 10  2 49 14.9970000  0  5G24G12G 3G16G20
  20795659.2744     942451.05047    744182.27163
  23040921.524     6094432.052 5   4712360.10021
  23000828.9314   -6515479.55645  -4876392.93261
  20689108.0174  -12649283.54147  -9711093.22862
  20172846.493   -13038655.542 7 -10010904.67523
 92  5 10  2 49 29.9970000  0  5G24G12G 3G16G20
  20797998.3534     954742.11047    753759.72663
  23047093.5404    6126870.43245   4737636.67361
  22991232.1034   -6565909.21345  -4915688.73661
  20681299.3144  -12690317.87247  -9743068.00462
  20164664.517   -13081644.490 7 -10044402.53623
 92  5 10  2 49 44.9970000  0  5G24G12G 3G16G20
  20800346.3294     967086.58647    763378.80463
  23053274.306     6159331.437 5   4762930.86021
  22981632.8994   -6616335.86645  -4954982.15561
  20673520.290   -12731219.174 7  -9774939.12622
  20156505.610   -13124510.026 7 -10077804.23223
 92  5 10  2 49 59.9970000  0  5G24G12G 3G16G20
  20802705.0954     979479.74747    773035.81863
  23059455.3684    6191814.11945   4788241.94361
  22972040.603    -6666759.642 5  -4994273.35221
  20665759.7434  -12771988.59247  -9806707.47462
  20148374.196   -13167252.333 7 -10111109.90622
 92  5 10  2 50 14.9970000  0  5G24G12G 3G16G20
  20805074.5014     991928.01647    782735.77563
  23065641.610     6224325.366 5   4813575.28621
  22962444.4394   -6717173.61345  -5033556.89261
  20658024.9394  -12812623.01347  -9838370.63062
  20140265.251   -13209863.933 7 -10144313.73223
 92  5 10  2 50 29.9970000  0  5G24G12G 3G16G20
  20807453.5244    1004425.02247    792473.70063
  23071833.009     6256860.846 5   4838927.50521
  22952855.110    -6767581.689 5  -5072835.83321
  20650320.0484  -12853126.55647  -9869931.80862
  20132181.142   -13252348.367 7 -10177418.46623
 92  5 10  2 50 44.9970000  0  5G24G12G 3G16G20
  20809841.4464    1016966.71247    802246.45063
  23078026.9934    6289419.15845   4864297.53461
  22943259.2824   -6817984.81445  -5112110.93561
  20642638.6894  -12893499.58547  -9901391.28362
  20124118.095   -13294706.359 7 -10210424.67323
 92  5 10  2 50 59.9970000  0  5G24G12G 3G16G20
  20812236.8764    1029552.70347    812053.71863
  23084228.1574    6322000.41345   4889685.43661
  22933669.9464   -6868382.65245  -5151381.92661
  20634977.876   -12933742.463 7  -9932749.34022
  20116084.782   -13336937.210 7 -10243331.81123
 92  5 10  2 51 14.9970000  0  5G24G12G 3G16G20
  20814635.1964    1042175.05247    821889.32062
  23090431.6424    6354595.72245   4915084.26661
  22924082.392    -6918783.780 5  -5190655.46421
  20627343.7044  -12973862.69147  -9964011.82762
  20108068.845   -13379049.217 7 -10276146.34323
 92  5 10  2 51 29.9970000  0  5G24G12G 3G16G20
  20817048.7904    1054847.08547    831763.63563
  23096639.993     6387218.432 5   4940504.46921
  22914492.7284   -6969174.34645  -5229920.77161
  20619737.7674  -13013844.48647  -9995166.44062
  20100080.134   -13421028.245 7 -10308857.25423
 92  5 10  2 51 44.9970000  0  5G24G12G 3G16G20
  20819465.8684    1067557.09747    841667.54562
  23102848.6964    6419858.69045   4965938.34261
  22904903.5094   -7019563.91245  -5269185.31161
  20612151.1814  -13053702.85547 -10026224.88062
  20092115.743   -13462883.591 7 -10341471.79123
 92  5 10  2 51 59.9970000  0  5G24G12G 3G16G20
  20821892.5404    1080307.58347    851602.99163
  23109067.1104    6452518.30145   4991387.27361
  22895316.2674   -7069950.16545  -5308447.27461
  20604587.9234  -13093436.54947 -10057186.17262
  20084177.610   -13504612.620 7 -10373987.90223
 92  5 10  2 52 14.9970000  0  5G24G12G 3G16G20
  20824327.2204    1093104.34747    861574.49563
  23115286.5564    6485199.47145   5016853.00761
  22885724.774    -7120330.717 5  -5347704.79921
  20597055.2044  -13133042.55447 -10088047.96662
  20076258.251   -13546212.710 7 -10406403.53623
 92  5 10  2 52 29.9970000  0  5G24G12G 3G16G20
  20826774.4154    1105952.09347    871585.72462
  23121508.7984    6517904.18245   5042337.11161
  22876140.751    -7170703.127 5  -5386955.98121
  20589543.243   -13172514.319 7 -10118805.16022
  20068366.149   -13587681.004 7 -10438716.47423
 92  5 10  2 52 44.9970000  0  5G24G12G 3G16G20
  20829225.1574    1118839.25247    881627.66262
  23127731.2204    6550621.01945   5067830.62661
  22866555.798    -7221078.399 5  -5426209.39521
  20582051.2204  -13211860.45347 -10149464.45862
  20060503.110   -13629028.390 7 -10470935.19923
 92  5 10  2 52 59.9970000  0  5G24G12G 3G16G20
  20831686.9934    1131778.90547    891710.50662
  23133962.540     6583360.152 5   5093341.53321
  22856971.7594   -7271446.26845  -5465457.05361
  20574592.618   -13251071.509 7 -10180018.50122
  20052656.353   -13670244.142 7 -10503051.35023
 92  5 10  2 53 14.9970000  0  5G24G12G 3G16G20
  20834159.3534    1144767.14147    901831.20863
  23140198.5094    6616116.47045   5118865.82261
  22847386.985    -7321811.265 5  -5504702.43621
  20567158.0174  -13290151.31347 -10210470.27062
  20044837.235   -13711332.543 7 -10535068.26523
 92  5 10  2 53 29.9970000  0  5G24G12G 3G16G20
  20836641.8604    1157808.38347    911993.21562
  23146432.0244    6648892.96045   5144405.82261
  22837803.7824   -7372169.96945  -5543942.95261
  20559743.314   -13329094.407 7 -10240815.51022
  20037045.790   -13752289.938 7 -10566983.10423
 92  5 10  2 53 44.9970000  0  5G24G12G 3G16G20
  20839133.2124    1170899.62447    922194.17962
  23152677.2824    6681687.11645   5169959.59461
  22828221.251    -7422524.576 5  -5583180.24921
  20552358.6894  -13367905.58847 -10271057.95862
  20029274.212   -13793118.393 7 -10598797.46223
 92  5 10  2 53 59.9970000  0  5G24G12G 3G16G20
  20841634.0404    1184043.44147    932436.11062
  23158916.7434    6714499.93145   5195527.90261
  22818640.649    -7472873.921 5  -5622413.46921
  20545001.462   -13406584.457 7 -10301197.30922
  20021528.001   -13833816.179 7 -10630510.00623
 92  5 10  2 54 14.9970000  0  5G24G12G 3G16G20
  20844142.8994    1197231.60747    942712.60362
  23165169.7434    6747323.99445   5221104.98561
  22809062.056    -7523224.615 5  -5661647.73121
  20537662.821   -13445135.925 7 -10331237.39022
  20013808.720   -13874389.789 7 -10662125.79123
 92  5 10  2 54 29.9970000  0  5G24G12G 3G16G20
  20846662.1494    1210471.99347    953029.78062
  23171415.0564    6780168.22945   5246697.77661
  22799481.493    -7573567.807 5  -5700876.14921
  20530351.9464  -13483550.31047 -10361170.65062
  20006113.446   -13914830.007 7 -10693637.63023
 92  5 10  2 54 44.9970000  0  5G24G12G 3G16G20
  20849190.2904    1223760.39547    963384.36962
  23177668.6494    6813031.50045   5272305.36661
  22789899.220    -7623904.083 5  -5740099.18521
  20523071.064   -13521830.574 7 -10390999.40422
  19998441.478   -13955137.120 7 -10725045.75123
 92  5 10  2 54 59.9970000  0  5G24G12G 3G16G20
  20851730.1184    1237092.21747    973772.79562
  23183923.423     6845908.425 5   5297923.64621
  22780320.774    -7674238.414 5  -5779320.70321
  20515808.774   -13559984.483 7 -10420729.69922
  19990797.454   -13995315.842 7 -10756353.82923
 92  5 10  2 55 14.9970000  0  5G24G12G 3G16G20
  20854274.2984    1250470.56147    984197.47162
  23190183.806     6878800.243 5   5323553.52021
  22770745.884    -7724569.274 5  -5818539.51121
  20508570.532   -13598010.021 7 -10450359.96522
  19983179.142   -14035364.537 7 -10787560.58623
 92  5 10  2 55 29.9970000  0  5G24G12G 3G16G20
  20856829.5714    1263900.18747    994662.10862
  23196448.4704    6911711.42145   5349198.46561
  22761166.079    -7774891.765 5  -5857751.82921
  20501364.595   -13635901.453 7 -10479885.73122
  19975580.907   -14075277.726 7 -10818661.75623
 92  5 10  2 55 44.9970000  0  5G24G12G 3G16G20
  20859393.0404    1277375.73447   1005162.53362
  23202712.4854    6944638.25945   5374855.60561
  22751589.9464   -7825209.27645  -5896960.22661
  20494177.157   -13673663.427 7 -10509310.62022
  19968012.821   -14115058.728 7 -10849659.92223
 92  5 10  2 55 59.9970000  0  5G24G12G 3G16G20
  20861965.1424    1290895.68847   1015697.55262
  23208985.1034    6977581.12945   5400525.23761
  22742020.290    -7875521.150 5  -5936164.24221
  20487012.2824  -13711295.60547 -10538634.37062
  19960468.743   -14154706.504 7 -10880554.27423
 92  5 10  2 56 14.9970000  0  5G24G12G 3G16G20
  20864545.6894    1304458.63647   1026266.08262
  23215251.993     7010538.924 5   5426206.51521
  22732442.3454   -7925827.91845  -5975364.28161
  20479878.9854  -13748796.88247 -10567856.11662
  19952947.259   -14194221.389 7 -10911345.07823
 92  5 10  2 56 29.9970000  0  5G24G12G 3G16G20
  20867137.5174    1318066.85447   1036869.88462
  23221531.1654    7043512.31045   5451899.96061
  22722873.3684   -7976128.61445  -6014559.58861
  20472770.0644  -13786163.26547 -10596972.74962
  19945452.743   -14233602.200 7 -10942031.40423
 92  5 10  2 56 44.9970000  0  5G24G12G 3G16G20
  20869734.6344    1331713.42147   1047503.56662
  23227803.024     7076494.555 5   5477600.27521
  22713301.6964   -8026429.70845  -6053755.18961
  20465680.048   -13823400.010 7 -10625988.37122
  19937985.579   -14272854.975 7 -10972617.96523
 92  5 10  2 56 59.9970000  0  5G24G12G 3G16G20
  20872337.4234    1345402.83547   1058170.63762
  23234084.767     7109489.531 5   5503310.51921
  22703731.4784   -8076727.00645  -6092947.82461
  20458621.0404  -13860503.44147 -10654900.10762
  19930538.157   -14311975.253 7 -11003101.28323
 92  5 10  2 57 14.9970000  0  5G24G12G 3G16G20
  20874953.2824    1359136.54347   1068872.22262
  23240367.485     7142498.346 5   5529031.56621
  22694166.735    -8127018.831 5  -6132136.21921
  20451588.7514  -13897469.87447 -10683705.09362
  19923118.728   -14350961.270 7 -11033479.97923
 92  5 10  2 57 29.9970000  0  5G24G12G 3G16G20
  20877573.4314    1372909.85847   1079604.66462
  23246653.1494    7175517.28745   5554760.47461
  22684592.1734   -8177308.65645  -6171323.05461
  20444575.767   -13934299.835 7 -10712403.74322
  19915729.884   -14389816.136 7 -11063756.48223
 92  5 10  2 57 44.9970000  0  5G24G12G 3G16G20
  20880203.149     1386727.026 7   1090371.27522
  23252934.8144    7208554.43345   5580503.58561
  22675021.110    -8227587.898 5  -6210501.65021
  20437596.3684  -13970984.19447 -10740988.92662
  19908359.759   -14428531.336 7 -11093924.15523
 92  5 10  2 57 59.9970000  0  5G24G12G 3G16G20
  20882839.9934    1400581.12347   1101166.66262
  23259223.2674    7241601.90945   5606254.72661
  22665458.595    -8277864.366 5  -6249678.04921
  20430645.5794  -14007529.64347 -10769465.87462
  19901016.064   -14467113.915 7 -11123988.48423
 92  5 10  2 58 14.9970000  0  5G24G12G 3G16G20
  20885481.603     1414476.260 7   1111994.03022
  23265514.2514    7274658.78145   5632013.21861
  22655889.212    -8328138.245 5  -6288852.47021
  20423713.868   -14043937.152 7 -10797835.33522
  19893702.931   -14505564.167 7 -11153949.70823
 92  5 10  2 58 29.9970000  0  5G24G12G 3G16G20
  20888136.0874    1428414.36747   1122854.88362
  23271804.8994    7307725.03345   5657778.98361
  22646318.892    -8378409.500 5  -6328024.82021
  20416811.501   -14080208.001 7 -10826098.31022
  19886410.001   -14543881.525 7 -11183807.36823
 92  5 10  2 58 44.9970000  0  5G24G12G 3G16G20
  20890795.134     1442394.900 7   1133748.78922
  23278102.5484    7340802.80845   5683553.76761
  22636759.0404   -8428675.35945  -6367192.97461
  20409939.8994  -14116339.18147 -10854252.44862
  19879140.548   -14582062.920 7 -11213559.08923
 92  5 10  2 58 59.9970000  0  5G24G12G 3G16G20
  20893463.9854    1456413.88947   1144672.66462
  23284397.962     7373890.497 5   5709336.25321
  22627188.743    -8478937.332 5  -6406358.11221
  20403086.6344  -14152334.39147 -10882300.63762
  19871903.587   -14620109.722 7 -11243205.92923
 92  5 10  2 59 14.9970000  0  5G24G12G 3G16G20
  20896138.9784    1470478.17047   1155631.83462
  23290700.845     7406991.170 5   5735128.84021
  22617629.306    -8529191.881 5  -6445517.45321
  20396263.2674  -14188187.89947 -10910238.41062
  19864691.532   -14658018.008 7 -11272744.83623
 92  5 10  2 59 29.9970000  0  5G24G12G 3G16G20
  20898824.3604    1484586.42947   1166625.27162
  23296997.0794    7440101.58045   5760929.04961
  22608065.6264   -8579441.75345  -6484673.12761
  20389471.4464  -14223900.44747 -10938066.33962
  19857499.462   -14695790.513 7 -11302177.93723
 92  5 10  2 59 44.9970000  0  5G24G12G 3G16G20
  20901518.6344    1498741.42447   1177655.12962
  23303301.2824    7473222.80845   5786737.69061
  22598502.095    -8629685.613 5  -6523824.17021
  20382699.7594  -14259471.79147 -10965784.23862
  19850340.923   -14733425.690 7 -11331504.03123
 92  5 10  2 59 59.9970000  0  5G24G12G 3G16G20
  20904222.1344    1512946.12447   1188723.71862
  23309609.423     7506354.792 5   5812554.68221
  22588948.6574   -8679923.15245  -6562970.25661
  20375956.5484  -14294905.00647 -10993394.50762
  19843205.884   -14770922.905 7 -11360722.62123
 92  5 10  3  0 14.9970000  0  5G24G12G 3G16G20
  20906934.5874    1527201.47947   1199831.77762
  23315913.024     7539494.329 5   5838377.57421
  22579385.548    -8730157.081 5  -6602113.54521
  20369243.2204  -14330203.42047 -11020899.73862
  19836093.970   -14808284.558 7 -11389835.58123
 92  5 10  3  0 29.9970000  0  5G24G12G 3G16G20
  20909657.2514    1541505.03847   1210977.40362
  23322224.259     7572642.275 5   5864207.03721
  22569828.399    -8780386.452 5  -6641253.25321
  20362548.5324  -14365365.91947 -11048299.05362
  19829012.860   -14845509.323 7 -11418841.87022
 92  5 10  3  0 44.9970000  0  5G24G12G 3G16G20
  20912386.4934    1555849.43847   1222154.84862
  23328533.1264    7605795.10445   5890040.26561
  22560274.1424   -8830614.21345  -6680391.74761
  20355882.3374  -14400391.91247 -11075592.00462
  19821953.579   -14882600.217 7 -11447743.84723
 92  5 10  3  0 59.9970000  0  5G24G12G 3G16G20
  20915122.3924    1570237.81247   1233366.56062
  23334833.3294    7638953.33145   5915877.74061
  22550709.071    -8880839.565 5  -6719528.33721
  20349246.6184  -14435279.47447 -11102777.08762
  19814919.532   -14919555.751 7 -11476540.34923
 92  5 10  3  1 14.9970000  0  5G24G12G 3G16G20
  20917871.759     1584675.909 7   1244617.01322
  23341149.603     7672118.787 5   5941720.83121
  22541158.103    -8931060.224 5  -6758661.27021
  20342630.6574  -14470025.34147 -11129851.76362
  19807915.149   -14956373.885 7 -11505229.78423
 92  5 10  3  1 29.9970000  0  5G24G12G 3G16G20
  20920629.4394    1599162.55947   1255905.30362
  23347462.329     7705289.104 5   5967567.70521
  22531600.274    -8981278.340 5  -6797792.23021
  20336046.2044  -14504633.04147 -11156818.77362
  19800934.235   -14993056.328 7 -11533813.48623
 92  5 10  3  1 44.9960000  0  5G24G12G 3G16G20
  20923393.9414    1613694.08747   1267228.56662
  23353779.5434    7738461.90144   5993416.52561
  22522046.4184   -9031490.08345  -6836918.22961
  20329489.9104  -14539101.91147 -11183677.59762
  19793979.043   -15029599.943 7 -11562289.01023
 92  5 10  3  1 59.9960000  0  5G24G12G 3G16G20
  20926166.6994    1628268.96147   1278585.60062
  23360089.949     7771641.018 5   6019270.20921
  22512490.606    -9081702.553 5  -6876044.78221
  20322952.0984  -14573438.89447 -11210433.66162
  19787052.481   -15066009.622 7 -11590660.17123
 92  5 10  3  2 14.9960000  0  5G24G12G 3G16G20
  20928947.0434    1642881.29547   1289971.82962
  23366404.0044    7804820.86945   6045124.54961
  22502931.707    -9131915.431 5  -6915171.67821
  20316444.1064  -14607643.31347 -11237086.42362
  19780149.168   -15102285.830 7 -11618927.32523
 92  5 10  3  2 29.9960000  0  5G24G12G 3G16G20
  20931737.5204    1657537.18347   1301391.99762
  23372721.941     7838010.115 5   6070986.17321
  22493382.4104   -9182119.54145  -6954291.71261
  20309964.5744  -14641705.58747 -11263628.42362
  19773271.082   -15138419.179 7 -11647083.16222
 92  5 10  3  2 44.9960000  0  5G24G12G 3G16G20
  20934533.8164    1672234.06247   1312844.10562
  23379036.7154    7871207.48645   6096854.15661
  22483832.1914   -9232316.14445  -6993405.89361
  20303505.7704  -14675626.88747 -11290060.57562
  19766424.988   -15174410.669 7 -11675128.46123
 92  5 10  3  2 59.9960000  0  5G24G12G 3G16G20
  20937336.8714    1686964.91847   1324322.68962
  23385355.301     7904404.075 5   6122721.50221
  22474277.8714   -9282513.34045  -7032520.54861
  20297079.3404  -14709416.97047 -11316390.47262
  19759596.527   -15210268.211 7 -11703069.38423
 92  5 10  3  3 14.9960000  0  5G24G12G 3G16G20
  20940145.0744    1701736.43547   1335832.96062
  23391671.2544    7937606.03144   6148593.05661
  22464724.348    -9332704.936 5  -7071630.84721
  20290675.4814  -14743071.22047 -11342614.53262
  19752802.606   -15245985.193 7 -11730900.77723
 92  5 10  3  3 29.9960000  0  5G24G12G 3G16G20
  20942964.4574    1716543.65047   1347371.04762
  23397991.543     7970811.165 5   6174467.04621
  22455177.4884   -9382892.57845  -7110738.05161
  20284292.8634  -14776591.97347 -11368734.57462
  19746034.965   -15281563.330 7 -11758623.98323
 92  5 10  3  3 44.9960000  0  5G24G12G 3G16G20
  20945788.1764    1731384.66347   1358935.46762
  23404310.660     8004019.583 5   6200343.65421
  22445622.121    -9433075.768 5  -7149841.80421
  20277942.4884  -14809978.29347 -11394749.85762
  19739287.176   -15317002.006 7 -11786238.51623
 92  5 10  3  3 59.9960000  0  5G24G12G 3G16G20
  20948618.9734    1746256.10847   1370523.60462
  23410631.199     8037229.276 5   6226221.19421
  22436075.3324   -9483256.15345  -7188943.35861
  20271616.2074  -14843229.67147 -11420659.99262
  19732569.895   -15352302.340 7 -11813745.25023
 92  5 10  3  4 14.9960000  0  5G24G12G 3G16G20
  20951458.0904    1761162.19147   1382138.73062
  23416945.996     8070443.233 4   6252102.10821
  22426527.8634   -9533430.57545  -7228040.27361
  20265310.4414  -14876340.98647 -11446460.98862
  19725882.731   -15387460.956 7 -11841141.55423
 92  5 10  3  4 29.9960000  0  5G24G12G 3G16G20
  20954298.5274    1776102.12547   1393780.22762
  23423271.723     8103659.110 5   6277984.46021
  22416976.660    -9583600.872 5  -7267133.97421
  20259039.1914  -14909313.22947 -11472153.61162
  19719215.691   -15422479.688 7 -11868428.85923
 92  5 10  3  4 44.9960000  0  5G24G12G 3G16G20
  20957148.3954    1791075.55747   1405447.84162
  23429594.441     8136875.543 5   6303867.26121
  22407435.316    -9633767.970 5  -7306225.14621
  20252793.0514  -14942145.60847 -11497737.25562
  19712578.754   -15457359.208 7 -11895607.68823
 92  5 10  3  4 59.9960000  0  5G24G12G 3G16G20
  20960004.1294    1806083.63747   1417142.43662
  23435913.9654    8170092.99345   6329750.87061
  22397886.715    -9683931.148 5  -7345313.29221
  20246568.7234  -14974835.40847 -11523209.79762
  19705970.199   -15492098.408 7 -11922677.17023
 92  5 10  3  5 14.9960000  0  5G24G12G 3G16G20
  20962864.5434    1821123.88347   1428862.10562
  23442233.4104    8203308.59144   6355633.03161
  22388343.215    -9734092.776 5  -7384400.23221
  20240377.3714  -15007384.25047 -11548572.50163
  19699383.629   -15526699.496 7 -11949639.03823
 92  5 10  3  5 29.9960000  0  4G24G 3G16G20
  20965734.2314    1836200.27447   1440609.94362
  22378795.8714   -9784251.63445  -7423485.00161
  20234211.3014  -15039788.23447 -11573822.32762
  19692825.379   -15561161.149 7 -11976492.25323
 92  5 10  3  5 44.9960000  0  4G24G 3G16G20
  20968611.2624    1851316.48647   1452388.80462
  22369253.777    -9834405.226 5  -7462565.66921
  20228070.0594  -15072044.52847 -11598957.07062
  19686298.684   -15595480.426 7 -12003234.53023
 92  5 10  3  5 59.9960000  0  4G24G 3G16G20
  20971495.5514    1866473.97347   1464199.83062
  22359705.840    -9884552.834 5  -7501641.66821
  20221963.1994  -15104152.12647 -11623975.95163
  19679790.848   -15629656.431 7 -12029865.16523
 92  5 10  3  6 14.9960000  0  4G24G 3G16G20
  20974385.3714    1881669.48447   1476040.49362
  22350161.4264   -9934700.26845  -7540717.53961
  20215880.9884  -15136119.27947 -11648885.39163
  19673314.590   -15663694.813 7 -12056388.55923
 92  5 10  3  6 29.9960000  0  4G24G 3G16G20
  20977285.4184    1896900.05547   1487908.47362
  22340625.098    -9984850.548 5  -7579795.61721
  20209819.4264  -15167950.03547 -11673688.55262
  19666864.949   -15697598.493 7 -12082806.99023
 92  5 10  3  6 44.9960000  0  5G24G17G 3G16G20
  20980193.6684    1912179.25447   1499814.34062
  23233691.0434         -0.42554
  22331081.8014  -10034988.92445  -7618864.43061
  20203794.793   -15199629.098 7 -11698373.50923
  19660440.090   -15731352.458 7 -12109108.76023
 92  5 10  3  6 59.9960000  0  5G24G17G 3G16G20
  20983109.9024    1927502.22947   1511754.32262
  23221168.1294     -65816.19044
  22321546.3094  -10085121.03645  -7657928.36161
  20197793.2074  -15231161.98647 -11722944.56163
  19654045.277   -15764962.095 7 -12135298.07323
 92  5 10  3  7 14.9960000  0  5G24G17G 3G16G20
  20986033.0204    1942868.04947   1523727.68862
  23208653.6214    -131582.56444
  22312007.965   -10135248.326 6  -7696988.53021
  20191817.8094  -15262551.27447 -11747403.71963
  19647677.012   -15798428.713 7 -12161375.93823
 92  5 10  3  7 29.9960000  0  5G24G17G 3G16G20
  20988966.5594    1958277.37747   1535734.95562
  23196144.4024    -197300.13344
  22302468.9884  -10185370.77145  -7736044.93261
  20185876.0514  -15293795.58047 -11771749.90362
  19641332.973   -15831752.044 7 -12187342.15023
 92  5 10  3  7 44.9960000  0  5G24G17G 3G16G20
  20991908.8634    1973724.16847   1547771.40962
  23183650.238     -262973.448 4
  22292930.6064  -10235492.01445  -7775100.37961
  20179955.8564  -15324898.85547 -11795986.19162
  19635021.356   -15864935.568 7 -12213199.42123
 92  5 10  3  7 59.9960000  0  5G24G17G 3G16G20
  20994851.4184    1989206.65847   1559835.67662
  23171160.0124    -328601.03644        -0.00971
  22283394.0204  -10285609.35145  -7814152.80261
  20174061.4104  -15355859.08447 -11820111.02063
  19628733.512   -15897976.373 7 -12238945.48323
 92  5 10  3  8 14.9960000  0  5G24G17G 3G16G20
  20997801.4964    2004716.07947   1571920.93062
  23158675.6914    -394189.58044    -51107.80161
  22273851.738   -10335730.108 5  -7853207.89021
  20168200.2074  -15386683.48947 -11844130.00863
  19622469.520   -15930881.727 7 -12264586.00023
 92  5 10  3  8 29.9960000  0  5G24G17G 3G16G20
  21000758.668     2020261.949 7   1584034.58222
  23146206.543     -459727.685 4   -102176.26521
  22264317.1524  -10385843.74745  -7892257.42261
  20162360.2704  -15417360.24547 -11868033.94563
  19616237.785   -15963640.754 7 -12290112.49823
 92  5 10  3  8 44.9960000  0  5G24G17G 3G16G20
  21003725.3634    2035839.95647   1596173.27962
  23133743.559     -525217.873 4   -153207.41621
  22254785.590   -10435952.446 6  -7931303.09721
  20156548.996   -15447888.024 7 -11891821.80022
  19610031.691   -15996255.482 7 -12315526.55523
 92  5 10  3  8 59.9960000  0  5G24G17G 3G16G20
  21006696.5354    2051452.80147   1608339.12262
  23121290.168     -590658.617 4   -204200.04721
  22245247.379   -10486054.968 5  -7970343.97721
  20150773.8484  -15478265.29847 -11915492.37863
  19603852.106   -16028724.379 7 -12340826.97423
 92  5 10  3  9 14.9960000  0  5G24G17G 3G16G20
  21009674.9734    2067096.58847   1620529.08362
  23108849.043     -656050.802 4   -255154.83021
  22235714.6764  -10536155.01545  -8009382.92761
  20145016.0984  -15508497.88847 -11939050.21162
  19597703.606   -16061050.962 7 -12366016.50023
 92  5 10  3  9 29.9960000  0  5G24G17G 3G16G20
  21012655.0514    2082767.13747   1632739.89762
  23096411.7704    -721397.98144   -306074.52861
  22226182.379   -10586256.039 6  -8048422.63421
  20139289.754   -15538591.318 7 -11962499.61222
  19591574.965   -16093238.616 7 -12391097.76923
 92  5 10  3  9 44.9960000  0  5G24G17G 3G16G20
  21015643.5124    2098476.11847   1644980.65462
  23083989.8164    -786689.27944   -356950.70961
  22216650.051   -10636345.750 6  -8087453.52921
  20133594.059   -15568534.950 7 -11985832.28922
  19585478.621   -16125274.858 7 -12416061.05823
 92  5 10  3  9 59.9960000  0  5G24G17G 3G16G20
  21018636.6454    2114220.32947   1657248.86762
  23071574.5904    -851928.55145   -407786.35561
  22207121.520   -10686427.289 6  -8126478.05821
  20127919.520   -15598331.981 7 -12009050.73122
  19579413.395   -16157162.423 7 -12440908.49423
 92  5 10  3 10 14.9960000  0  5G24G17G 3G16G20
  21021647.3714    2129999.88747   1669544.61562
  23059168.879     -917117.879 5   -458583.05921
  22197591.488   -10736504.397 5  -8165499.14321
  20122280.066   -15627986.379 7 -12032158.03023
  19573370.012   -16188905.172 7 -12465643.08423
 92  5 10  3 10 29.9960000  0  5G24G17G 3G16G20
  21024649.7934    2145811.08047   1681865.01862
  23046770.965     -982263.962 5   -509346.08521
  22188060.863   -10786583.243 6  -8204521.56721
  20116662.590   -15657504.748 7 -12055159.33423
  19567356.129   -16220509.038 7 -12490269.45623
 92  5 10  3 10 44.9960000  0  5G24G17G 3G16G20
  21027668.6214    2161658.06747   1694213.31962
  23034382.238    -1047365.958 4   -560074.74421
  22178532.3244  -10836660.29546  -8243542.59061
  20111069.590   -15686884.557 7 -12078052.67222
  19561371.231   -16251970.333 7 -12514784.73423
 92  5 10  3 10 59.9960000  0  5G24G17G 3G16G20
  21030689.5204    2177541.02347   1706589.63762
  23021999.5984   -1112427.04644   -610771.53861
  22169000.949   -10886736.853 6  -8282563.25121
  20105508.770   -15716127.962 7 -12100839.72022
  19555408.496   -16283289.998 7 -12539189.64823
 92  5 10  3 11 14.9960000  0  5G24G17G 3G16G20
  21033720.6994    2193471.47547   1719002.97162
  23009628.6294   -1177434.51544   -661426.55761
  22159475.5744  -10936803.05546  -8321575.83561
  20099969.637   -15745227.833 7 -12123514.92322
  19549478.887   -16314458.091 7 -12563476.45923
 92  5 10  3 11 29.9960000  0  5G24G17G 3G16G20
  21036758.7314    2209439.33947   1731445.44962
  22997268.340    -1242397.689 4   -712047.07421
  22149948.059   -10986867.708 6  -8360587.20621
  20094456.098   -15774193.084 7 -12146085.22623
  19543576.879   -16345483.172 7 -12587651.82723
 92  5 10  3 11 44.9960000  0  5G24G17G 3G16G20
  21039806.684     2225444.019 7   1743916.60422
  22984912.262    -1307318.264 4   -762634.37321
  22140420.457   -11036930.161 6  -8399596.87621
  20088973.043   -15803019.784 7 -12168547.56922
  19537696.184   -16376364.731 7 -12611715.36423
 92  5 10  3 11 59.9960000  0  5G24G17G 3G16G20
  21042858.051     2241478.674 7   1756411.12222
  22972568.7854   -1372200.96144   -813192.17761
  22130895.8794  -11086996.54546  -8438609.59461
  20083512.684   -15831709.851 7 -12190903.44323
  19531848.848   -16407108.412 7 -12635671.45923
 92  5 10  3 12 14.9960000  0  5G24G17G 3G16G20
  21045915.9964    2257550.89847   1768934.90662
  22960231.7544   -1437034.82244   -863711.89961
  22121366.199   -11137057.705 6  -8477618.24221
  20078078.316   -15860253.783 7 -12213145.44922
  19526028.816   -16437704.941 7 -12659512.89223
 92  5 10  3 12 29.9960000  0  5G24G17G 3G16G20
  21048978.684     2273658.096 7   1781485.95222
  22947902.082    -1501821.867 4   -914195.15621
  22111842.6374  -11187114.12046  -8516623.20361
  20072677.356   -15888653.546 7 -12235275.11522
  19520229.215   -16468154.782 7 -12683240.02623
 92  5 10  3 12 44.9960000  0  5G24G17G 3G16G20
  21052050.543     2289795.405 7   1794060.44722
  22935580.691    -1566564.803 4   -964644.06321
  22102315.965   -11237166.946 6  -8555625.36921
  20067300.402   -15916908.714 7 -12257292.10922
  19514464.004   -16498458.816 7 -12706853.54023
 92  5 10  3 12 59.9960000  0  5G24G17G 3G16G20
  21055129.191     2305956.860 7   1806653.77322
  22923264.5664   -1631265.76144  -1015060.24261
  22092792.152   -11287220.923 6  -8594628.41821
  20061947.387   -15945021.741 7 -12279198.34623
  19508726.543   -16528621.524 7 -12730356.93323
 92  5 10  3 13 14.9960000  0  5G24G17G 3G16G20
  21058204.426     2322146.596 7   1819269.13422
  22910967.316    -1695916.913 5  -1065437.61321
  22083269.9104  -11337271.50346  -8633628.83261
  20056629.434   -15972987.611 7 -12300989.91423
  19503010.856   -16558638.372 7 -12753746.66723
 92  5 10  3 13 29.9960000  0  5G24G17G 3G16G20
  21061290.457     2338360.042 7   1831902.97922
  22898674.277    -1760522.897 5  -1115779.77721
  22073744.457   -11387322.123 6  -8672629.26821
  20051333.231   -16000811.430 7 -12322670.79622
  19497326.707   -16588512.488 7 -12777025.18223
 92  5 10  3 13 44.9960000  0  5G24G17G 3G16G20
  21064384.3794    2354605.25847   1844561.58162
  22886387.6844   -1825077.89145  -1166082.25361
  22064221.137   -11437364.402 6  -8711623.21321
  20046065.035   -16028483.477 7 -12344233.41522
  19491674.309   -16618235.606 7 -12800186.04023
 92  5 10  3 13 59.9960000  0  5G24G17G 3G16G20
  21067481.9574    2370874.29947   1857238.74862
  22874109.9494   -1889588.12844  -1216349.80161
  22054693.887   -11487405.853 6  -8750616.51621
  20040830.285   -16056010.382 7 -12365682.93722
  19486042.488   -16647814.890 7 -12823234.81623
 92  5 10  3 14 14.9960000  0  5G24G17G 3G16G20
  21070582.293     2387169.386 7   1869936.19822
  22861844.762    -1954051.319 5  -1266580.72421
  22045176.3094  -11537444.84646  -8789607.88561
  20035618.496   -16083392.758 7 -12387019.83822
  19480441.598   -16677248.616 7 -12846170.17423
 92  5 10  3 14 29.9960000  0  5G24G17G 3G16G20
  21073687.020     2403493.329 7   1882656.13922
  22849584.1454   -2018466.03044  -1316773.88661
  22035654.8954  -11587478.85346  -8828595.39761
  20030431.449   -16110630.707 7 -12408244.19722
  19474871.660   -16706534.067 7 -12868989.99223
 92  5 10  3 14 44.9960000  0  5G24G17G 3G16G20
  21076797.223     2419843.522 7   1895396.52522
  22837335.957    -2082833.275 5  -1366930.00321
  22026131.6604  -11637510.07546  -8867580.71461
  20025280.715   -16137725.548 7 -12429357.04423
  19469321.395   -16735673.445 7 -12891695.98923
 92  5 10  3 14 59.9960000  0  5G24G17G 3G16G20
  21079916.582     2436218.261 7   1908156.04722
  22825099.4024   -2147152.17145  -1417048.50561
  22016609.7234  -11687540.95745  -8906565.77761
  20020152.035   -16164677.724 7 -12450358.72422
  19463805.106   -16764668.708 7 -12914289.68623
 92  5 10  3 15 14.9960000  0  5G24G17G 3G16G20
  21083036.793     2452619.630 7   1920936.32322
  22812869.793    -2211422.878 5  -1467129.44121
  22007091.660   -11737570.097 6  -8945549.48021
  20015045.754   -16191489.176 7 -12471250.75322
  19458317.9024  -16793518.53847 -12936770.06263
 92  5 10  3 15 29.9960000  0  5G24G17G 3G16G20
  21086159.762     2469046.386 7   1933736.38022
  22800644.4964   -2275648.33545  -1517175.11361
  21997574.1214  -11787598.11746  -8984532.32261
  20009974.473   -16218161.128 7 -12492034.07322
  19452852.4024  -16822223.41447 -12959137.48763
 92  5 10  3 15 44.9960000  0  5G24G17G 3G16G20
  21089294.1994    2485499.19047   1946556.73862
  22788431.7624   -2339825.43245  -1567183.10661
  21988052.9814  -11837622.26846  -9023512.15361
  20004926.910   -16244687.650 7 -12512704.07422
  19447418.7384  -16850780.46047 -12981389.72163
 92  5 10  3 15 59.9960000  0  5G24G17G 3G16G20
  21092425.9104    2501970.74047   1959391.71062
  22776227.7384   -2403956.94545  -1617155.59361
  21978536.527   -11887647.616 6  -9062492.89121
  19999901.949   -16271071.737 7 -12533263.09122
  19442014.098   -16879194.566 7 -13003530.57023
 92  5 10  3 16 14.9960000  0  5G24G17G 3G16G20
  21095567.4264    2518460.90947   1972241.18662
  22764037.606    -2468041.779 5  -1667091.66021
  21969013.3014  -11937673.16446  -9101473.81461
  19994910.066   -16297313.376 7 -12553711.10822
  19436632.863   -16907464.455 7 -13025559.04123
 92  5 10  3 16 29.9960000  0  5G24G17G 3G16G20
  21098705.270     2534971.694 7   1985106.72122
  22751848.3564   -2532080.87945  -1716992.16561
  21959494.6764  -11987698.17346  -9140454.31061
  19989945.941   -16323411.260 7 -12574047.10722
  19431279.856   -16935589.554 7 -13047474.69123
 92  5 10  3 16 44.9960000  0  5G24G17G 3G16G20
  21101855.457     2551510.560 7   1997994.13022
  22739673.6134   -2596065.38745  -1766850.09061
  21949976.863   -12037714.505 6  -9179428.05821
  19985004.8714  -16349356.26347 -12594263.98262
  19425958.8244  -16963561.41647 -13069270.93763
 92  5 10  3 16 59.9960000  0  5G24G17G 3G16G20
  21105007.9654    2568074.10547   2010900.78462
  22727506.3244   -2660000.76145  -1816669.71361
  21940462.4654  -12087728.58746  -9218400.01861
  19980096.6764  -16375154.34247 -12614366.37062
  19420663.3564  -16991386.43447 -13090952.76463
 92  5 10  3 17 14.9960000  0  5G24G17G 3G16G20
  21108161.2934    2584669.33947   2023832.13162
  22715350.9414   -2723887.48945  -1866451.46561
  21930944.7234  -12137738.04846  -9257368.40161
  19975218.371   -16400803.300 7 -12634352.55322
  19415394.9494  -17019062.06647 -13112518.17763
 92  5 10  3 17 29.9960000  0  5G24G17G 3G16G20
  21111326.707     2601294.548 7   2036786.82622
  22703197.731    -2787728.269 5  -1916197.40721
  21921427.137   -12187745.557 6  -9296335.28021
  19970362.762   -16426304.332 7 -12654223.47822
  19410159.4184  -17046590.87047 -13133969.18563
 92  5 10  3 17 44.9960000  0  5G24G17G 3G16G20
  21114496.1294    2617950.03247   2049765.11962
  22691058.9734   -2851521.70345  -1965906.43861
  21911913.6454  -12237751.40946  -9335300.82861
  19965540.441   -16451655.115 7 -12673977.31922
  19404947.223   -17073973.060 7 -13155305.94423
 92  5 10  3 17 59.9960000  0  5G24G17G 3G16G20
  21117674.9264    2634638.22647   2062768.90562
  22678927.129    -2915266.683 5  -2015577.73721
  21902397.684   -12287753.743 6  -9374263.67421
  19960747.0904  -16476854.65747 -12693613.31662
  19399763.699   -17101206.525 7 -13176526.81223
 92  5 10  3 18 14.9960000  0  5G24G17G 3G16G20
  21120855.1524    2651362.76547   2075801.01662
  22666808.8954   -2978960.57245  -2065209.20561
  21892880.5354  -12337749.93646  -9413221.71761
  19955977.090   -16501900.850 7 -12713129.81722
  19394613.0274  -17128288.71147 -13197629.80663
 92  5 10  3 18 29.9960000  0  5G24G17G 3G16G20
  21124046.0044    2668121.29247   2088859.60962
  22654696.0984   -3042606.45945  -2114803.27661
  21883370.4734  -12387743.65446  -9452177.82061
  19951239.965   -16526795.956 7 -12732528.58722
  19389485.8714  -17155223.02547 -13218617.57363
 92  5 10  3 18 44.9960000  0  5G24G17G 3G16G20
  21127241.606     2684914.542 7   2101945.26922
  22642597.5514   -3106202.87045  -2164358.80861
  21873858.1214  -12437735.10546  -9491132.17461
  19946534.801   -16551540.869 7 -12751810.32722
  19384386.4654  -17182009.60947 -13239490.22763
 92  5 10  3 18 59.9960000  0  5G24G17G 3G16G20
  21130444.6604    2701744.13547   2115059.23962
  22630504.5664   -3169748.78745  -2213874.97861
  21864342.6214  -12487724.15146  -9530084.64761
  19941851.3564  -16576135.34947 -12770974.84662
  19379320.7934  -17208648.25247 -13260247.60563
 92  5 10  3 19 14.9960000  0  5G24G17G 3G16G20
  21133653.6214    2718608.61247   2128200.39962
  22618422.606    -3233243.538 5  -2263351.25421
  21854834.457   -12537708.733 6  -9569033.63921
  19937200.7314  -16600576.34547 -12790019.76862
  19374280.4264  -17235136.78147 -13280888.00763
 92  5 10  3 19 29.9960000  0  5G24G17G 3G16G20
  21136867.457     2735502.277 7   2141364.27522
  22606353.137    -3296688.062 5  -2312788.44321
  21845321.4264  -12587688.72046  -9607979.05161
  19932581.4414  -16624863.12047 -12808944.51762
  19369264.5984  -17261474.94147 -13301411.24163
 92  5 10  3 19 44.9960000  0  5G24G17G 3G16G20
  21140087.0824    2752419.16847   2154546.25662
  22594283.309    -3360083.543 5  -2362187.40121
  21835809.793   -12637666.993 6  -9646923.13921
  19927985.832   -16649001.437 7 -12827753.58422
  19364283.8714  -17287665.34647 -13321819.33563
 92  5 10  3 19 59.9960000  0  5G24G17G 3G16G20
  21143310.6134    2769354.42847   2167742.56562
  22582230.231    -3423433.084 5  -2411550.54321
  21826300.6134  -12687646.66246  -9685868.29061
  19923417.824   -16672998.716 7 -12846452.75222
  19359327.324   -17313711.305 7 -13342114.87823
 92  5 10  3 20 14.9960000  0  5G24G17G 3G16G20
  21146534.8324    2786312.95647   2180957.00562
  22570179.3404   -3486731.69045  -2460874.01161
  21816791.5824  -12737624.19746  -9724811.78961
  19918882.934   -16696850.834 7 -12865038.80322
  19354395.504   -17339608.782 7 -13362294.72023
 92  5 10  3 20 29.9960000  0  5G24G17G 3G16G20
  21149767.2774    2803298.37647   2194192.39262
  22558145.3484   -3549973.82845  -2510153.47161
  21807277.8954  -12787596.07446  -9763750.88561
  19914368.4964  -16720554.69147 -12883509.33062
  19349498.582   -17365354.634 7 -13382356.41223
 92  5 10  3 20 44.9960000  0  5G24G17G 3G16G20
  21153008.6214    2820310.10047   2207448.27662
  22546122.1604   -3613163.44045  -2559392.01061
  21797772.1844  -12837564.52546  -9802687.29361
  19909885.770   -16744114.675 7 -12901867.74722
  19344631.9884  -17390950.54947 -13402301.27162
 92  5 10  3 20 59.9960000  0  5G24G17G 3G16G20
  21156244.8244    2837346.60547   2220723.46962
  22534105.465    -3676302.755 5  -2608591.33421
  21788260.4344  -12887530.19746  -9841621.56061
  19905432.5824  -16767531.75447 -12920114.81062
  19339784.2544  -17416397.23747 -13422129.84763
 92  5 10  3 21 14.9960000  0  5G24G17G 3G16G20
  21159494.7314    2854407.03547   2234017.30962
  22522096.910    -3739389.213 5  -2657749.50321
  21778752.8874  -12937490.17946  -9880551.38061
  19901002.4814  -16790802.29747 -12938247.69962
  19334973.7464  -17441691.83447 -13441839.91963
 92  5 10  3 21 29.9960000  0  5G24G17G 3G16G20
  21162746.1604    2871492.79647   2247330.88862
  22510108.496    -3802420.122 5  -2706864.37121
  21769249.9654  -12987442.80246  -9919475.46161
  19896599.5044  -16813925.10047 -12956265.46162
  19330189.8244  -17466832.56047 -13461430.08863
 92  5 10  3 21 44.9950000  0  5G24G17G 3G16G20
  21165997.9994    2888599.21547   2260660.56562
  22498125.0934   -3865396.77545  -2755936.96161
  21759743.437   -13037392.399 6  -9958397.18521
  19892230.390   -16836907.191 7 -12974173.57122
  19325431.3354  -17491825.27447 -13480904.92463
 92  5 10  3 21 59.9950000  0  5G24G17G 3G16G20
  21169264.3744    2905737.79147   2274015.30662
  22486151.4834   -3928318.23845  -2804966.54361
  21750240.718   -13087339.704 6  -9997317.12221
  19887883.7574  -16859744.67147 -12991969.00262
  19320704.4524  -17516667.27247 -13500262.31763
 92  5 10  3 22 14.9950000  0  5G24G17G 3G16G20
  21172527.3664    2922901.55447   2287389.66862
  22474188.2884   -3991186.58245  -2853954.74361
  21740732.8044  -13137286.72646 -10036236.84761
  19883561.866   -16882435.857 7 -13009650.43622
  19316010.1714  -17541362.37147 -13519505.24463
 92  5 10  3 22 29.9950000  0  5G24G17G 3G16G20
  21175801.0384    2940091.89447   2300784.73562
  22462234.546    -4054000.198 5  -2902900.28521
  21731228.8194  -13187231.18946 -10075154.56161
  19879275.6324  -16904976.18247 -13027214.31462
  19311335.1554  -17565907.70847 -13538631.47563
 92  5 10  3 22 44.9950000  0  5G24G17G 3G16G20
  21179072.8824    2957306.40647   2314198.64062
  22450294.0694   -4116761.27845  -2951804.89761
  21721726.2334  -13237172.91046 -10114070.15561
  19875016.0304  -16927368.56847 -13044662.92162
  19306690.5934  -17590303.24747 -13557640.97463
 92  5 10  3 22 59.9950000  0  5G24G17G 3G16G20
  21182353.5384    2974544.72247   2327631.09562
  22438361.4294   -4179471.25245  -3000669.69261
  21712224.6014  -13287111.78746 -10152983.52461
  19870781.3354  -16949611.77347 -13061995.28062
  19302080.679   -17614549.036 7 -13576533.78623
 92  5 10  3 23 14.9950000  0  5G24G17G 3G16G20
  21185640.1554    2991801.75847   2341078.13562
  22426430.5854   -4242131.22745  -3049495.53561
  21702722.2804  -13337051.81246 -10191897.79261
  19866575.8984  -16971709.30147 -13079214.12462
  19297494.4684  -17638648.97647 -13595312.94763
 92  5 10  3 23 29.9950000  0  5G24G17G 3G16G20
  21188926.8274    3009082.31047   2354543.50262
  22414522.4764   -4304737.32345  -3098279.39761
  21693220.4294  -13386989.80246 -10230810.47461
  19862402.3664  -16993657.46147 -13096316.57862
  19292934.2264  -17662599.45747 -13613975.65063
 92  5 10  3 23 44.9950000  0  5G24G17G 3G16G20
  21192220.6874    3026386.35547   2368027.17962
  22402614.6324   -4367292.52345  -3147023.58961
  21683717.069   -13436927.023 6 -10269722.54921
  19858250.8744  -17015459.10147 -13113304.86262
  19288406.7104  -17686401.93347 -13632523.02263
 92  5 10  3 23 59.9950000  0  5G24G17G 3G16G20
  21195516.648     3043717.159 7   2381531.71622
  22390723.202    -4429791.122 5  -3195723.68321
  21674215.413   -13486857.964 6 -10308629.74321
  19854129.9764  -17037108.98947 -13130174.89662
  19283908.148   -17710050.658 7 -13650950.58723
 92  5 10  3 24 14.9950000  0  5G24G17G 3G16G20
  21198820.7414    3061072.14147   2395055.08562
  22378843.257    -4492235.096 5  -3244381.21321
  21664709.7884  -13536781.29146 -10347530.99561
  19850042.2104  -17058606.01747 -13146925.82162
  19279431.749   -17733544.299 7 -13669257.30923
 92  5 10  3 24 29.9950000  0  5G24G17G 3G16G20
  21202124.210     3078442.478 7   2408590.42522
  22366964.4214   -4554633.56545  -3293003.27861
  21655213.6244  -13586704.51346 -10386432.17661
  19845979.6874  -17079959.57447 -13163564.94762
  19274991.890   -17756890.296 7 -13687448.98223
 92  5 10  3 24 44.9950000  0  5G24G17G 3G16G20
  21205432.0384    3095829.50146   2422138.75262
  22355099.827    -4616984.250 5  -3341588.11221
  21645713.733   -13636627.657 6 -10425333.29821
  19841938.1014  -17101172.50347 -13180094.50462
  19270580.4524  -17780088.75047 -13705525.69163
 92  5 10  3 24 59.9950000  0  5G24G17G 3G16G20
  21208746.6084    3113238.18647   2435703.95762
  22343248.6554   -4679283.31245  -3390132.72861
  21636213.468   -13686548.368 6 -10464232.50721
  19837931.1944  -17122239.62547 -13196510.43362
  19266191.7964  -17803137.14447 -13723485.47563
 92  5 10  3 25 14.9950000  0  5G24G17G 3G16G20
  21212065.0624    3130669.78847   2449287.02661
  22331403.483    -4741526.743 5  -3438633.99121
  21626715.640   -13736464.416 6 -10503128.10021
  19833953.4914  -17143157.26947 -13212809.88862
  19261832.8124  -17826033.21447 -13741326.55763
 92  5 10  3 25 29.9950000  0  5G24G17G 3G16G20
  21215386.6794    3148116.70147   2462882.01862
  22319569.062    -4803719.670 5  -3487095.91921
  21617216.444   -13786381.542 6 -10542024.52021
  19829997.6714  -17163932.38447 -13228998.28462
  19257505.6084  -17848782.52647 -13759053.28663
 92  5 10  3 25 44.9950000  0  5G24G17G 3G16G20
  21218707.7104    3165581.85347   2476491.22562
  22307740.6944   -4865860.90245  -3535517.53561
  21607717.2334  -13836296.73046 -10580919.44261
  19826070.1404  -17184563.40647 -13245074.40062
  19253207.5384  -17871382.16647 -13776663.38863
 92  5 10  3 25 59.9950000  0  5G24G17G 3G16G20
  21222035.6634    3183068.29847   2490117.03662
  22295925.741    -4927946.000 5  -3583895.41921
  21598221.3904  -13886207.15846 -10619810.65261
  19822175.5544  -17205048.55047 -13261036.84462
  19248931.8664  -17893829.00947 -13794154.43063
 92  5 10  3 26 14.9950000  0  5G24G17G 3G16G20
  21225367.585     3200576.796 7   2503760.01222
  22284121.7654   -4989975.38545  -3632229.89961
  21588722.733   -13936112.787 6 -10658698.12221
  19818305.9914  -17225386.45847 -13276884.55862
  19244689.9374  -17916123.35747 -13811526.64963
 92  5 10  3 26 29.9950000  0  5G24G17G 3G16G20
  21228704.4054    3218106.52347   2517419.53061
  22272331.101    -5051951.171 5  -3680522.62121
  21579226.6324  -13986015.02646 -10697582.94161
  19814459.9914  -17245576.93547 -13292617.39662
  19240479.0774  -17938266.41147 -13828780.97863
 92  5 10  3 26 44.9950000  0  5G24G17G 3G16G20
  21232043.2024    3235654.62547   2531093.37461
  22260545.515    -5113875.989 5  -3728775.61621
  21569731.4994  -14035918.13346 -10736468.46261
  19810644.7184  -17265624.49847 -13308238.86262
  19236293.1714  -17960262.19847 -13845920.54963
 92  5 10  3 26 59.9950000  0  5G24G17G 3G16G20
  21235385.5074    3253228.66446   2544787.43161
  22248771.733    -5175744.806 5  -3776984.98021
  21560236.054   -14085814.664 6 -10775348.84221
  19806861.4764  -17285521.07847 -13323742.68262
  19232133.7184  -17982103.46147 -13862939.71063
 92  5 10  3 27 14.9950000  0  5G24G17G 3G16G20
  21238735.3664    3270825.69646   2558499.41162
  22237010.023    -5237561.382 5  -3825153.65321
  21550742.5544  -14135705.73246 -10814224.96161
  19803103.6244  -17305269.39247 -13339130.97262
  19228007.3584  -18003791.21347 -13879839.25763
 92  5 10  3 27 29.9950000  0  5G24G17G 3G16G20
  21242089.288     3288445.704 7   2572229.29621
  22225260.4294   -5299325.18045  -3873281.17861
  21541250.085   -14185590.352 6 -10853096.06521
  19799369.3044  -17324872.40747 -13354406.04162
  19223913.7184  -18025324.36547 -13896618.33363
 92  5 10  3 27 44.9950000  0  5G24G17G 3G16G20
  21245448.968     3306091.022 7   2585978.90822
  22213508.077    -5361037.613 5  -3921368.69321
  21531757.9054  -14235468.74646 -10891962.32561
  19795668.2104  -17344330.55047 -13369568.22362
  19219843.4444  -18046702.93647 -13913276.95163
 92  5 10  3 27 59.9950000  0  5G24G17G 3G16G20
  21248810.351     3323758.627 7   2599745.89622
  22201775.6324   -5422700.68645  -3969417.73861
  21522267.1484  -14285343.70546 -10930825.89161
  19791996.1634  -17363643.66047 -13384617.39562
  19215800.5774  -18067929.92747 -13929817.46763
 92  5 10  3 28 14.9950000  0  5G24G17G 3G16G20
  21252173.1634    3341445.09346   2613527.56761
  22190051.741    -5484317.671 5  -4017430.87421
  21512774.312   -14335219.038 6 -10969689.74921
  19788348.4444  -17382811.58247 -13399553.43562
  19211790.9914  -18089009.18947 -13946242.85763
 92  5 10  3 28 29.9950000  0  5G24G17G 3G16G20
  21255549.0074    3359154.60547   2627327.18161
  22178334.312    -5545883.022 5  -4065403.79021
  21503286.7734  -14385089.57846 -11008549.87561
  19784726.3984  -17401827.22547 -13414370.81062
  19207812.0854  -18109935.34547 -13962548.96163
 92  5 10  3 28 44.9950000  0  5G24G17G 3G16G20
  21258917.483     3376888.866 6   2641146.09221
  22166626.4914   -5607392.85645  -4113333.43561
  21493799.4764  -14434953.19346 -11047404.60561
  19781136.4834  -17420690.31947 -13429069.31862
  19203859.7654  -18130706.34447 -13978734.15963
 92  5 10  3 28 59.9950000  0  5G24G17G 3G16G20
  21262300.4054    3394650.87747   2654986.63562
  22154934.312    -5668844.064 5  -4161217.39221
  21484309.773   -14484808.284 6 -11086252.71721
  19777580.1164  -17439399.87147 -13443648.18562
  19199932.3984  -18151320.52247 -13994797.15963
 92  5 10  3 29 14.9950000  0  5G24G17G 3G16G20
  21265680.6404    3412435.93246   2668845.10862
  22143255.960    -5730241.250 5  -4209059.25221
  21474823.585   -14534660.364 6 -11125098.46321
  19774047.6324  -17457960.37547 -13458110.91062
  19196039.8044  -18171783.46447 -14010742.30763
 92  5 10  3 29 29.9950000  0  5G24G17G 3G16G20
  21269071.6014    3430240.14046   2682718.52361
  22131579.944    -5791584.633 5  -4256859.20021
  21465338.671   -14584512.166 6 -11163943.97621
  19770540.3354  -17476374.44347 -13472459.52862
  19192176.0234  -18192097.70147 -14026571.58663
 92  5 10  3 29 44.9950000  0  5G24G17G 3G16G20
  21272465.491     3448071.480 6   2696613.08721
  22119914.351    -5852866.229 5  -4304611.01421
  21455851.952   -14634355.970 6 -11202783.29021
  19767066.1944  -17494632.00647 -13486686.19262
  19188340.2104  -18212255.62947 -14042279.06363
 92  5 10  3 29 59.9950000  0  5G24G17G 3G16G20
  21275864.062     3465923.904 6   2710524.08221
  22108269.163    -5914090.543 5  -4352318.19321
  21446367.718   -14684197.198 6 -11241620.57821
  19763623.2964  -17512738.42647 -13500795.08662
  19184531.6324  -18232262.53247 -14057868.86163
 92  5 10  3 30 14.9950000  0  5G24G17G 3G16G20
  21279260.741     3483800.692 6   2724454.07021
  22096633.444    -5975254.272 5  -4399978.14021
  21436888.491   -14734032.300 6 -11280453.10721
  19760208.7024  -17530690.43147 -13514783.65162
  19180751.8664  -18252114.91247 -14073338.24663
 92  5 10  3 30 29.9950000  0  5G24G17G 3G16G20
  21282669.983     3501699.150 6   2738400.92421
  22084998.1244   -6036359.38845  -4447592.43361
  21427400.554   -14783861.254 6 -11319280.82421
  19756818.8664  -17548491.02847 -13528654.24562
  19177006.4834  -18271812.67747 -14088687.15863
 92  5 10  3 30 44.9950000  0  5G24G17G 3G16G20
  21286078.8824    3519617.98146   2752363.66061
  22073385.132    -6097405.056 5  -4495160.39921
  21417921.0624  -14833683.48346 -11358103.31161
  19753456.9444  -17566143.90747 -13542409.72662
  19173289.3434  -18291355.27147 -14103915.15163
 92  5 10  3 30 59.9950000  0  5G24G17G 3G16G20
  21289492.140     3537549.664 6   2766336.41021
  22061781.265    -6158398.781 5  -4542687.89921
  21408439.9914  -14883506.19246 -11396926.17461
  19750126.9524  -17583656.42547 -13556055.83662
  19169596.6244  -18310749.91047 -14119027.86163
 92  5 10  3 31 14.9950000  0  5G24G17G 3G16G20
  21292907.382     3555500.113 6   2780323.79321
  22050183.4214   -6219335.14545  -4590170.69461
  21398956.624   -14933322.386 6 -11435743.97321
  19746824.8584  -17601020.55147 -13569586.31463
  19165933.0304  -18329989.78447 -14134019.97263
 92  5 10  3 31 29.9950000  0  5G24G17G 3G16G20
  21296325.6164    3573468.46446   2794325.14162
  22038598.2264   -6280215.01145  -4637609.46461
  21389485.0074  -14983132.01146 -11474556.64361
  19743547.8274  -17618236.11447 -13583001.03662
  19162302.9834  -18349074.68547 -14148891.32463
 92  5 10  3 31 44.9950000  0  5G24G17G 3G16G20
  21299748.2264    3591456.23946   2808341.59961
  22027021.9374   -6341035.14645  -4685001.69061
  21380005.452   -15032931.657 6 -11513361.55621
  19740298.3984  -17635299.75847 -13596297.37762
  19158704.0624  -18368001.07947 -14163639.16563
 92  5 10  3 31 59.9950000  0  5G24G17G 3G16G20
  21303174.155     3609459.135 6   2822369.84221
  22015460.319    -6401801.563 5  -4732352.06821
  21370524.726   -15082728.327 6 -11552164.11721
  19737077.3904  -17652218.75347 -13609480.99762
  19155131.4444  -18386776.03147 -14178268.99763
 92  5 10  3 32 14.9950000  0  5G24G17G 3G16G20
  21306604.007     3627472.368 6   2836406.14721
  22003903.304    -6462518.064 5  -4779663.54821
  21361056.5464  -15132525.66146 -11590967.21361
  19733887.0854  -17668996.42447 -13622554.50462
  19151582.9834  -18405403.35647 -14192783.79863
 92  5 10  3 32 29.9950000  0  5G24G17G 3G16G20
  21310034.601     3645502.673 6   2850455.75521
  21992359.608    -6523177.536 5  -4826930.59821
  21351578.398   -15182317.161 6 -11629765.77021
  19730725.9374  -17685624.94647 -13635511.78862
  19148066.7104  -18423876.28347 -14207178.28363
 92  5 10  3 32 44.9950000  0  5G24G17G 3G16G20
  21313465.608     3663547.243 6   2864516.48021
  21980830.608    -6583782.641 5  -4874155.27221
  21342102.2024  -15232106.55346 -11668562.66161
  19727587.3044  -17702108.64847 -13648356.22562
  19144581.0854  -18442198.77747 -14221455.55363
 92  5 10  3 32 59.9950000  0  5G24G17G 3G16G20
  21316907.4444    3681609.62046   2878591.07161
  21969307.773    -6644333.851 5  -4921337.95321
  21332627.335   -15281893.410 6 -11707357.58921
  19724476.0154  -17718446.59447 -13661087.09162
  19141126.6244  -18460370.29447 -14235615.17463
 92  5 10  3 33 14.9950000  0  5G24G17G 3G16G20
  21320344.7804    3699694.38446   2892683.08761
  21957796.7334   -6704827.04145  -4968475.42361
  21323155.1484  -15331673.34646 -11746147.12361
  19721394.5934  -17734633.69247 -13673700.40962
  19137698.5234  -18478386.47947 -14249653.75863
 92  5 10  3 33 29.9950000  0  5G24G17G 3G16G20
  21323792.796     3717802.642 6   2906793.40121
  21946296.569    -6765261.685 5  -5015567.28021
  21313686.3664  -15381446.21246 -11784931.16861
  19718344.132   -17750669.773 7 -13686196.04522
  19134297.6244  -18496247.26847 -14263571.25263
 92  5 10  3 33 44.9950000  0  5G24G17G 3G16G20
  21327239.937     3735925.351 6   2920915.00421
  21934803.796    -6825644.819 5  -5062618.98721
  21304212.569   -15431220.033 6 -11823715.94021
  19715324.2334  -17766563.17947 -13698580.51062
  19130923.6014  -18513960.62147 -14277373.86063
 92  5 10  3 33 59.9950000  0  5G24G17G 3G16G20
  21330697.0074    3754061.80046   2935047.31561
  21923317.7494   -6885976.97145  -5109630.99861
  21294741.077   -15480994.965 6 -11862501.58021
  19712325.2884  -17782316.13747 -13710855.54362
  19127582.2264  -18531526.63347 -14291061.66763
 92  5 10  3 34 14.9950000  0  5G24G17G 3G16G20
  21334149.4214    3772219.09546   2949195.86461
  21911849.437    -6946251.507 5  -5156598.08121
  21285273.241   -15530763.388 6 -11901282.14721
  19709353.3124  -17797921.50247 -13723015.56162
  19124272.5154  -18548938.05447 -14304629.00463
 92  5 10  3 34 29.9950000  0  5G24G17G 3G16G20
  21337608.2804    3790391.23046   2963355.97061
  21900394.601    -7006471.403 5  -5203522.60421
  21275801.023   -15580528.056 6 -11940059.78721
  19706409.2964  -17813381.90447 -13735062.61462
  19120988.9914  -18566197.36847 -14318077.81763
 92  5 10  3 34 44.9950000  0  5G24G17G 3G16G20
  21341068.562     3808582.272 6   2977530.82021
  21888946.9604   -7066635.09545  -5250403.33761
  21266331.202   -15630285.926 6 -11978832.14021
  19703495.2184  -17828694.66847 -13746994.64462
  19117733.1634  -18583301.63547 -14331405.81463
 92  5 10  3 34 59.9950000  0  5G24G17G 3G16G20
  21344530.796     3826790.036 6   2991718.69521
  21877506.968    -7126745.969 5  -5297242.89221
  21256862.9054  -15680038.14146 -12017600.07761
  19700612.2654  -17843859.54747 -13758811.43162
  19114505.4994  -18600252.00147 -14344613.89263
 92  5 10  3 35 14.9950000  0  5G24G17G 3G16G20
  21347999.218     3845011.027 6   3005916.88521
  21866082.288    -7186800.989 5  -5344038.94621
  21247401.077   -15729783.907 6 -12056362.98421
  19697755.6714  -17858875.62147 -13770512.26262
  19111308.3744  -18617047.71347 -14357701.46363
 92  5 10  3 35 29.9950000  0  5G24G17G 3G16G20
  21351469.4214    3863245.83246   3020125.83261
  21854659.241    -7246797.643 5  -5390789.51721
  21237933.108   -15779522.242 6 -12095120.12121
  19694927.8354  -17873739.76647 -13782094.70762
  19108141.4914  -18633687.89447 -14370667.84163
 92  5 10  3 35 44.9950000  0  5G24G17G 3G16G20
  21354940.5934    3881491.25246   3034343.04761
  21843257.4834   -7306739.30445  -5437497.22661
  21228468.2734  -15829255.01246 -12133872.91661
  19692126.6714  -17888452.90947 -13793559.49062
  19105006.7734  -18650174.30747 -14383514.39763
 92  5 10  3 35 59.9950000  0  5G24G17G 3G16G20
  21358415.8354    3899733.76846   3048557.99861
  21831856.2964   -7366637.58945  -5484171.14461
  21219005.8274  -15878993.43046 -12172630.10961
  19689351.3744  -17903028.06447 -13804916.74362
  19101897.0774  -18666518.39347 -14396250.05263
 92  5 10  3 36 14.9950000  0  5G24G17G 3G16G20
  21361885.0624    3917992.23646   3062785.38361
  21820462.007    -7426475.370 5  -5530797.92521
  21209538.929   -15928720.145 6 -12211378.17521
  19686607.6244  -17917444.86647 -13816150.61662
  19098819.0774  -18682702.73547 -14408861.23063
 92  5 10  3 36 29.9950000  0  5G24G17G 3G16G20
  21365362.9994    3936258.63746   3077018.93361
  21809093.640    -7486259.279 5  -5577382.71121
  21200080.0774  -15978442.44846 -12250122.80361
  19683893.6874  -17931708.53047 -13827265.14862
  19095766.9214  -18698734.46047 -14421353.48563
 92  5 10  3 36 44.9950000  0  5G24G17G 3G16G20
  21368844.4054    3954538.36546   3091262.87061
  21797721.858    -7545986.160 5  -5623923.08021
  21190619.4524  -16028157.01046 -12288861.39161
  19681210.655   -17945817.066 7 -13838258.79822
  19092742.6324  -18714610.47147 -14433724.40663
 92  5 10  3 36 59.9950000  0  5G24G17G 3G16G20
  21372320.296     3972824.343 6   3105511.70821
  21786373.546    -7605664.141 5  -5670425.32521
  21181161.7024  -16077871.98646 -12327600.30161
  19678555.7184  -17959777.22147 -13849136.83762
  19089749.6714  -18730339.01247 -14445980.41363
 92  5 10  3 37 14.9950000  0  5G24G17G 3G16G20
  21375801.804     3991118.826 6   3119767.12121
  21775025.1794   -7665285.42045  -5716883.38961
  21171703.7734  -16127583.43546 -12366336.47261
  19675928.421   -17973587.516 7 -13859898.09422
  19086785.1794  -18745916.13547 -14458118.43063
 92  5 10  3 37 29.9950000  0  5G24G17G 3G16G20
  21379286.366     4009429.759 6   3134035.36521
  21763691.296    -7724843.821 5  -5763292.47121
  21162240.616   -16177286.564 6 -12405066.16221
  19673326.2574  -17987243.17547 -13870538.85762
  19083852.6944  -18761337.00847 -14470134.69163
 92  5 10  3 37 44.9950000  0  5G24G17G 3G16G20
  21382774.4444    4027764.54046   3148322.20861
  21752371.874    -7784337.837 5  -5809651.37521
  21152786.905   -16226977.301 6 -12443786.20421
  19670756.2024  -18000741.05147 -13881056.67862
  19080951.1404  -18776597.68847 -14482026.12963
 92  5 10  3 37 59.9950000  0  5G24G17G 3G16G20
  21386268.5154    4046113.04946   3162619.75161
  21741057.218    -7843776.761 5  -5855967.35821
  21143330.2334  -16276666.46246 -12482505.00961
  19668213.8434  -18014095.24147 -13891462.53362
  19078075.2574  -18791709.07547 -14493801.23963
 92  5 10  3 38 14.9950000  0  5G24G17G 3G16G20
  21389765.062     4064482.419 6   3176933.53021
  21729760.655    -7903157.877 5  -5902238.29421
  21133873.562   -16326350.586 6 -12521219.89021
  19665701.9834  -18027301.44247 -13901753.07562
  19075228.6874  -18806667.79947 -14505457.39363
 92  5 10  3 38 29.9950000  0  5G24G17G 3G16G20
  21393264.3124    4082876.88746   3191266.89461
  21718472.179    -7962478.982 5  -5948462.46421
  21124422.390   -16376026.573 6 -12559928.43321
  19663220.0694  -18040357.80547 -13911926.85662
  19072407.1164  -18821470.91747 -14516992.29963
 92  5 10  3 38 44.9950000  0  5G24G17G 3G16G20
  21396769.6794    4101292.45446   3205616.68461
  21707190.8274   -8021743.20845  -5994642.31561
  21114969.593   -16425698.506 6 -12598633.82921
  19660764.7884  -18053273.33347 -13921990.89962
  19069619.4524  -18836122.55847 -14528409.17063
 92  5 10  3 38 59.9950000  0  5G24G17G 3G16G20
  21400274.7104    4119727.33746   3219981.52561
  21695925.554    -8080951.548 5  -6040778.62221
  21105515.937   -16475367.643 6 -12637337.03021
  19658333.0154  -18066050.22847 -13931946.92162
  19066859.6554  -18850624.04347 -14539709.02763
 92  5 10  3 39 14.9950000  0  5G24G17G 3G16G20
  21403787.3274    4138185.81646   3234364.77161
  21684671.6404   -8140097.34145  -6086866.18361
  21096069.382   -16525028.625 6 -12676033.87621
  19655927.1014  -18078683.80247 -13941791.25962
  19064131.3354  -18864970.05147 -14550887.73963
 92  5 10  3 39 29.9950000  0  5G24G17G 3G16G20
  21407304.7024    4156663.83846   3248763.23861
  21673431.608    -8199183.771 5  -6132907.50621
  21086617.491   -16574684.845 6 -12714727.01821
  19653547.8584  -18091179.21447 -13951527.93762
  19061431.9524  -18879163.92547 -14561947.90863
 92  5 10  3 39 44.9950000  0  5G24G17G 3G16G20
  21410823.210     4175159.391 6   3263175.36721
  21662191.1944   -8258215.54845  -6178906.22461
  21077170.0154  -16624338.91846 -12753418.47461
  19651195.390   -18103537.351 7 -13961157.64322
  19058760.1014  -18893208.33847 -14572891.60763
 92  5 10  3 39 59.9950000  0  5G24G17G 3G16G20
  21414347.2184    4193672.21646   3277600.94861
  21650977.2494   -8317189.52545  -6224859.91361
  21067721.9764  -16673987.32246 -12792105.53361
  19648869.2884  -18115755.63547 -13970678.37762
  19056116.5464  -18907099.95447 -14583716.25063
 92  5 10  3 40 14.9950000  0  5G24G17G 3G16G20
  21417875.0464    4212200.96546   3292038.93561
  21639766.0234   -8376104.80445  -6270767.85561
  21058273.0694  -16723628.61846 -12830787.05061
  19646571.5774  -18127828.92347 -13980086.13062
  19053502.7414  -18920837.30647 -14594420.68963
 92  5 10  3 40 29.9950000  0  5G24G17G 3G16G20
  21421401.2734    4230738.81246   3306484.02061
  21628563.5624   -8434964.66045  -6316632.60961
  21048830.226   -16773265.225 6 -12869464.90221
  19644303.0384  -18139757.92247 -13989381.44762
  19050916.5304  -18934423.05547 -14605006.99163
 92  5 10  3 40 44.9950000  0  5G24G17G 3G16G20
  21424930.1084    4249279.85646   3320931.59461
  21617371.749    -8493767.175 5  -6362452.67421
  21039385.8664  -16822901.50946 -12908142.51661
  19642059.202   -18151547.852 7 -13998568.39522
  19048359.4294  -18947861.41347 -14615478.44163
 92  5 10  3 40 59.9950000  0  5G24G17G 3G16G20
  21428459.577     4267826.014 6   3335383.12721
  21606192.437    -8552509.737 5  -6408226.04921
  21029937.210   -16872534.784 6 -12946817.78021
  19639844.6944  -18163193.56747 -14007642.97062
  19045829.6714  -18961149.99347 -14625833.18763
 92  5 10  3 41 14.9950000  0  5G24G17G 3G16G20
  21431987.3584    4286381.71646   3349842.12761
  21595021.249    -8611187.073 5  -6453948.58021
  21020496.093   -16922160.373 6 -12985487.04721
  19637657.6714  -18174686.77747 -14016598.72162
  19043329.4684  -18974284.08647 -14636067.55363
 92  5 10  3 41 29.9950000  0  5G24G17G 3G16G20
  21435523.429     4304949.424 6   3364310.45021
  21583865.788    -8669796.912 5  -6499618.53321
  21011056.585   -16971776.393 6 -13024148.85321
  19635500.2414  -18186025.49647 -14025434.07962
  19040858.1944  -18987262.09647 -14646180.28863
 92  5 10  3 41 44.9940000  0  5G24G17G 3G16G20
  21439057.5184    4323518.97646   3378780.22461
  21572724.986    -8728345.956 5  -6545241.10121
  21001614.190   -17021389.531 6 -13062808.42221
  19633372.2994  -18197217.95047 -14034155.46663
  19038415.8854  -19000093.06947 -14656178.45163
 92  5 10  3 41 59.9940000  0  5G24G17G 3G16G20
  21442594.5574    4342106.54646   3393264.04861
  21561607.4944   -8786831.25745  -6590814.00661
  20992177.135   -17070995.232 6 -13101462.19321
  19631271.5574  -18208254.82847 -14042755.62262
  19036004.8694  -19012767.63847 -14666054.74863
 92  5 10  3 42 14.9940000  0  5G24G17G 3G16G20
  21446133.3384    4360703.84746   3407755.44161
  21550482.346    -8845258.764 5  -6636341.86821
  20982734.752   -17120598.552 6 -13140114.11821
  19629200.7134  -18219145.02647 -14051241.48062
  19033620.1904  -19025293.36247 -14675815.06163
 92  5 10  3 42 29.9940000  0  5G24G17G 3G16G20
  21449672.1584    4379315.87946   3422258.32861
  21539377.994    -8903623.133 5  -6681820.54921
  20973295.486   -17170195.691 6 -13178761.22021
  19627154.6194  -18229887.38247 -14059612.14163
  19031266.7294  -19037666.67547 -14685456.60863
 92  5 10  3 42 44.9940000  0  5G24G17G 3G16G20
  21453219.6354    4397950.68946   3436778.96361
  21528289.643    -8961917.597 5  -6727244.73721
  20963859.893   -17219782.540 6 -13217400.31121
  19625138.1584  -18240482.57447 -14067868.13062
  19028943.0024  -19049883.57647 -14694976.27663
 92  5 10  3 42 59.9940000  0  5G24G17G 3G16G20
  21456771.846     4416612.089 6   3451320.27921
  21517203.565    -9020144.299 5  -6772616.15421
  20954426.674   -17269358.624 6 -13256031.00521
  19623148.3224  -18250930.48347 -14076009.35462
  19026649.0414  -19061943.66847 -14704373.75363
 92  5 10  3 43 14.9940000  0  5G24G17G 3G16G20
  21460325.5184    4435289.67346   3465874.24761
  21506129.354    -9078317.284 5  -6817945.69321
  20944995.643   -17318933.595 6 -13294660.83521
  19621187.0884  -18261240.52247 -14084043.14262
  19024383.5724  -19073856.65647 -14713656.61863
 92  5 10  3 43 29.9940000  0  5G24G17G 3G16G20
  21463885.4864    4453987.26846   3480443.80561
  21495075.447    -9136434.860 5  -6863232.05821
  20935557.236   -17368504.143 6 -13333287.22621
  19619251.1664  -18271411.29747 -14091968.41662
  19022144.5724  -19085619.35147 -14722822.36363
 92  5 10  3 43 44.9940000  0  5G24G17G 3G16G20
  21467442.8224    4472705.63846   3495029.55461
  21484028.6044   -9194496.71545  -6908474.99461
  20926132.361   -17418067.410 6 -13371907.93221
  19617341.5494  -18281442.11547 -14099784.63262
  19019936.2524  -19097229.17647 -14731868.98463
 92  5 10  3 43 59.9940000  0  5G24G17G 3G16G20
  21471010.9244    4491437.26546   3509625.61861
  21472982.3384   -9252511.40145  -6953681.19461
  20916699.119   -17467629.134 6 -13410527.43421
  19615458.8464  -18291337.16947 -14107495.05162
  19017753.455   -19108691.901 7 -14740800.99523
 92  5 10  3 44 14.9940000  0  5G24G17G 3G16G20
  21474576.8614    4510187.56846   3524236.24761
  21461951.768    -9310470.555 5  -6998844.10621
  20907267.2834  -17517179.43246 -13449138.03061
  19613603.1044  -18301086.43247 -14115091.87562
  19015604.072   -19119997.520 7 -14749610.58723
 92  5 10  3 44 29.9940000  0  5G24G17G 3G16G20
  21478148.6274    4528946.42446   3538853.52861
  21450935.6974   -9368377.23145  -7043966.14561
  20897840.619   -17566723.061 6 -13487743.43421
  19611774.4634  -18310694.93147 -14122579.00962
  19013480.877   -19131151.015 7 -14758301.63023
 92  5 10  3 44 44.9940000  0  5G24G17G 3G16G20
  21481718.932     4547710.963 6   3553475.26521
  21439930.7524   -9426230.17245  -7089046.29461
  20888411.4084  -17616260.35146 -13526343.89661
  19609972.8304  -18320163.43847 -14129957.06362
  19011388.1584  -19142152.96847 -14766874.58763
 92  5 10  3 44 59.9940000  0  5G24G17G 3G16G20
  21485290.0884    4566476.94046   3568098.11761
  21428929.3934   -9484034.59445  -7134088.63661
  20878983.9004  -17665795.07046 -13564942.36761
  19608197.7444  -18329492.43247 -14137226.40562
  19009321.682   -19153006.980 7 -14775332.26923
 92  5 10  3 45 14.9940000  0  5G24G17G 3G16G20
  21488863.2914    4585240.70646   3582719.22461
  21417936.104    -9541791.618 5  -7179094.05521
  20869562.533   -17715326.278 6 -13603538.10521
  19606450.1114  -18338678.72547 -14144384.54362
  19007284.822   -19163712.504 7 -14783674.24723
 92  5 10  3 45 29.9940000  0  5G24G17G 3G16G20
  21492428.5884    4604003.21846   3597339.36961
  21406956.565    -9599494.086 5  -7224056.96821
  20860136.385   -17764850.512 6 -13642128.40621
  19604729.5334  -18347720.79047 -14151430.30162
  19005276.4714  -19174266.06847 -14791897.81363
 92  5 10  3 45 44.9940000  0  5G24G17G 3G16G20
  21496002.3154    4622765.30546   3611959.16461
  21395984.7994   -9657139.95445  -7268975.76561
  20850716.5104  -17814366.01946 -13680711.90961
  19603036.0884  -18356616.77647 -14158362.23063
  19003295.9164  -19184666.14847 -14800001.77063
 92  5 10  3 45 59.9940000  0  5G24G17G 3G16G20
  21499568.1904    4641520.75846   3626573.82661
  21385026.9634   -9714734.30645  -7313854.42461
  20841294.627   -17863879.175 6 -13719293.57421
  19601371.6824  -18365371.98947 -14165184.46962
  19001344.6584  -19194919.25247 -14807991.21063
 92  5 10  3 46 14.9940000  0  5G24G17G 3G16G20
  21503137.7754    4660278.26946   3641190.06161
  21374077.104    -9772269.185 5  -7358686.75321
  20831872.447   -17913383.785 6 -13757868.57821
  19599733.3774  -18373979.05947 -14171891.27263
  18999422.1824  -19205019.32947 -14815861.40263
 92  5 10  3 46 29.9940000  0  5G24G17G 3G16G20
  21506710.3074    4679037.31646   3655807.50961
  21363141.1044   -9829744.47446  -7403472.63261
  20822450.283   -17962883.472 6 -13796439.74821
  19598123.1584  -18382444.70947 -14178487.87562
  18997527.3224  -19214970.13247 -14823615.27663
 92  5 10  3 46 44.9940000  0  5G24G17G 3G16G20
  21510278.4164    4697801.44046   3670428.89161
  21352214.830    -9887159.946 6  -7448211.91421
  20813035.2524  -18012378.68746 -13835007.44561
  19596539.6824  -18390766.93147 -14184972.71862
  18995662.2364  -19224772.17347 -14831253.23963
 92  5 10  3 46 59.9940000  0  5G24G17G 3G16G20
  21513852.291     4716573.200 6   3685056.25021
  21341297.5884   -9944520.37145  -7492908.28761
  20803617.1354  -18061871.41046 -13873573.21361
  19594985.2054  -18398945.65147 -14191345.73663
  18993824.3544  -19234427.67547 -14838777.01363
 92  5 10  3 47 14.9940000  0  5G24G17G 3G16G20
  21517428.018     4735358.207 6   3699693.93021
  21330394.611   -10001820.864 5  -7537557.97921
  20794201.2914  -18111354.61546 -13912131.54961
  19593457.0574  -18406973.17147 -14197600.93562
  18992017.2834  -19243929.92147 -14846181.37063
 92  5 10  3 47 29.9940000  0  5G24G17G 3G16G20
  21521004.9004    4754157.88446   3714343.02561
  21319504.2054  -10059060.72946  -7582160.43961
  20784785.4794  -18160827.98046 -13950682.21061
  19591958.4794  -18414850.02347 -14203738.73463
  18990237.174   -19253278.326 7 -14853465.85223
 92  5 10  3 47 44.9940000  0  5G24G17G 3G16G20
  21524585.986     4772973.511 6   3729004.56521
  21308621.1974  -10116239.91246  -7626715.58761
  20775372.0654  -18210289.72746 -13989223.82861
  19590488.9474  -18422573.58147 -14209757.08263
  18988486.9634  -19262471.49047 -14860629.36863
 92  5 10  3 47 59.9940000  0  5G24G17G 3G16G20
  21528170.4474    4791806.22246   3743679.41761
  21297754.838   -10173361.868 6  -7671226.15821
  20765964.8854  -18259741.84946 -14027757.94161
  19589046.3464  -18430144.93647 -14215656.82962
  18986767.400   -19271511.392 7 -14867673.46723
 92  5 10  3 48 14.9940000  0  5G24G17G 3G16G20
  21531752.7754    4810649.56746   3758362.52261
  21286895.463   -10230431.873 6  -7715696.24721
  20756551.0964  -18309191.18546 -14066289.88461
  19587633.658   -18437571.268 7 -14221443.57023
  18985074.955   -19280405.095 7 -14874603.64623
 92  5 10  3 48 29.9940000  0  5G24G17G 3G16G20
  21535339.8854    4829505.55746   3773055.50661
  21276045.447   -10287445.253 6  -7760122.21721
  20747142.1274  -18358634.22246 -14104816.92861
  19586247.5964  -18444852.41747 -14227117.18762
  18983412.869   -19289149.362 7 -14881417.37723
 92  5 10  3 48 44.9940000  0  5G24G17G 3G16G20
  21538930.025     4848372.719 6   3787757.19921
  21265202.791   -10344403.978 6  -7804505.59321
  20737732.8224  -18408072.59046 -14143340.33261
  19584888.3934  -18451990.09347 -14232679.00063
  18981775.986   -19297745.867 7 -14888115.97123
 92  5 10  3 48 59.9940000  0  5G24G17G 3G16G20
  21542524.8694    4867250.27246   3802466.99561
  21254374.768   -10401306.568 6  -7848845.23321
  20728330.3464  -18457503.37546 -14181857.82561
  19583557.158   -18458981.665 7 -14238126.96723
  18980171.096   -19306192.103 7 -14894697.47123
 92  5 10  3 49 14.9940000  0  5G24G17G 3G16G20
  21546116.455     4886136.666 6   3817183.65721
  21243556.666   -10458151.223 6  -7893139.72621
  20718922.7214  -18506925.41646 -14220368.50361
  19582252.4164  -18465829.90747 -14243463.24863
  18978592.4084  -19314486.80447 -14901160.87963
 92  5 10  3 49 29.9940000  0  5G24G17G 3G16G20
  21549713.494     4905035.628 6   3831910.09421
  21232755.0574  -10514931.51046  -7937384.07361
  20709521.8224  -18556334.35646 -14258868.96361
  19580977.4004  -18472532.09047 -14248685.72163
  18977045.7054  -19322625.73947 -14907502.89963
 92  5 10  3 49 44.9940000  0  5G24G17G 3G16G20
  21553310.1744    4923937.26646   3846638.65161
  21221955.6974  -10571655.82846  -7981584.79261
  20700122.3304  -18605740.20646 -14297367.02161
  19579726.315   -18479100.079 7 -14253803.61923
  18975524.2914  -19330619.17647 -14913731.55563
 92  5 10  3 49 59.9940000  0  5G24G17G 3G16G20
  21556911.065     4942844.491 6   3861371.57521
  21211174.291   -10628322.766 6  -8025740.80821
  20690718.236   -18655142.113 6 -14335862.04321
  19578501.666   -18485535.870 7 -14258818.50623
  18974030.994   -19338466.360 7 -14919846.26123
 92  5 10  3 50 14.9940000  0  5G24G17G 3G16G20
  21560510.3154    4961759.73046   3876110.70161
  21200406.0254  -10684929.26046  -8069849.72861
  20681317.893   -18704537.599 6 -14374352.01921
  19577303.533   -18491839.153 7 -14263730.14323
  18972564.846   -19346165.176 7 -14925845.35323
 92  5 10  3 50 29.9940000  0  5G24G17G 3G16G20
  21564109.2214    4980681.75546   3890855.13561
  21189641.338   -10741473.178 6  -8113909.87221
  20671923.299   -18753925.956 6 -14412836.47121
  19576132.244   -18498009.716 7 -14268538.36023
  18971127.588   -19353714.888 7 -14931728.26123
 92  5 10  3 50 44.9940000  0  5G24G17G 3G16G20
  21567709.666     4999609.430 6   3905603.95621
  21178896.0494  -10797957.08146  -8157923.25561
  20662522.518   -18803308.091 6 -14451316.07421
  19574983.174   -18504048.444 7 -14273243.84923
  18969716.885   -19361116.679 7 -14937495.91023
 92  5 10  3 50 59.9940000  0  5G24G17G 3G16G20
  21571320.1354    5018545.44546   3920359.28361
  21168161.471   -10854378.102 6  -8201887.66221
  20653129.127   -18852678.794 6 -14489786.76421
  19573861.096   -18509948.694 7 -14277841.43323
  18968337.947   -19368365.680 7 -14943144.49923
 92  5 10  3 51 14.9940000  0  5G24G17G 3G16G20
  21574918.7524    5037476.71246   3935110.92861
  21157431.994   -10910748.770 6  -8245812.81621
  20643738.4164  -18902049.97846 -14528257.81161
  19572761.955   -18515723.669 7 -14282341.39923
  18966984.0724  -19375473.53947 -14948683.09463
 92  5 10  3 51 29.9940000  0  5G24G17G 3G16G20
  21578523.2214    5056409.61946   3949863.85161
  21146714.463   -10967062.966 6  -8289693.95921
  20634341.6744  -18951416.31146 -14566725.07861
  19571684.174   -18521367.199 7 -14286738.94723
  18965662.6974  -19382435.52947 -14954108.03063
 92  5 10  3 51 44.9940000  0  5G24G17G 3G16G20
  21582125.3544    5075347.76746   3964620.83861
  21136010.854   -11023315.884 6  -8333527.34921
  20624952.674   -19000774.292 6 -14605185.83121
  19570636.5024  -18526875.56447 -14291031.16463
  18964367.5494  -19389248.24147 -14959416.64763
 92  5 10  3 51 59.9940000  0  5G24G17G 3G16G20
  21585729.6744    5094291.23446   3979381.99561
  21125319.6974  -11079508.21746  -8377313.55261
  20615557.6744  -19050122.96546 -14643639.34361
  19569613.174   -18532246.844 7 -14295216.56523
  18963099.557   -19395910.818 7 -14964608.27823
 92  5 10  3 52 14.9940000  0  5G24G17G 3G16G20
  21589336.5414    5113241.94446   3994148.76261
  21114636.1664  -11135637.79946  -8421050.85461
  20606170.596   -19099460.452 6 -14682084.11721
  19568620.361   -18537476.760 7 -14299291.81123
  18961858.9864  -19402421.71247 -14969681.70863
 92  5 10  3 52 29.9940000  0  5G24G17G 3G16G20
  21592939.7214    5132191.95946   4008915.00861
  21103966.2604  -11191708.77846  -8464742.47261
  20596776.2524  -19148792.41446 -14720524.60161
  19567653.705   -18542566.800 7 -14303258.06723
  18960645.2994  -19408786.56647 -14974641.34263
 92  5 10  3 52 44.9940000  0  5G24G17G 3G16G20
  21596546.283     5151149.718 6   4023687.27121
  21093308.416   -11247714.881 6  -8508383.56621
  20587393.979   -19198110.376 6 -14758954.17221
  19566712.150   -18547509.701 7 -14307109.66023
  18959463.330   -19414997.303 7 -14979480.89323
 92  5 10  3 52 59.9940000  0  5G24G17G 3G16G20
  21600160.7364    5170108.31246   4038460.19661
  21082665.205   -11303664.030 6  -8551980.26121
  20578011.1974  -19247420.88846 -14797377.94061
  19565797.338   -18552313.148 7 -14310852.59423
  18958311.877   -19421060.585 7 -14984205.53623
 92  5 10  3 53 14.9940000  0  5G24G17G 3G16G20
  21603765.6354    5189073.28946   4053238.09361
  21072028.166   -11359550.810 6  -8595528.35421
  20568635.2134  -19296718.72046 -14835791.83561
  19564908.275   -18556972.189 7 -14314482.99923
  18957190.5104  -19426971.33347 -14988811.34863
 92  5 10  3 53 29.9940000  0  5G24G17G 3G16G20
  21607376.705     5208040.154 6   4068017.45121
  21061401.8614  -11415378.66546  -8639030.53961
  20559253.0884  -19346009.96546 -14874200.59461
  19564049.1744  -18561493.51947 -14318006.10663
  18956091.533   -19432735.984 7 -14993303.30523
 92  5 10  3 53 44.9940000  0  5G24G17G 3G16G20
  21610987.150     5227018.741 6   4082805.94521
  21050791.924   -11471139.385 6  -8682480.42021
  20549876.5724  -19395286.40446 -14912597.82161
  19563219.7214  -18565866.32147 -14321413.47363
  18955021.9324  -19438346.44347 -14997675.11863
 92  5 10  3 53 59.9940000  0  5G24G17G 3G16G20
  21614600.5804    5246007.99046   4097602.75161
  21040194.494   -11526836.796 6  -8725880.95521
  20540500.2294  -19444550.45346 -14950985.37961
  19562416.158   -18570092.382 7 -14324706.49623
  18953980.065   -19443805.131 7 -15001928.65423
 92  5 10  3 54 14.9940000  0  5G24G17G 3G16G20
  21618211.7214    5265000.42546   4112402.04361
  21029604.846   -11582480.977 6  -8769240.02721
  20531129.596   -19493810.391 6 -14989369.72621
  19561635.3544  -18574179.75547 -14327891.45263
  18952971.7054  -19449121.00647 -15006070.90263
 92  5 10  3 54 29.9940000  0  5G24G17G 3G16G20
  21621830.807     5283996.448 6   4127204.12021
  21019027.2604  -11638069.37946  -8812555.63361
  20521755.635   -19543066.269 6 -15027750.91821
  19560883.1194  -18578129.64847 -14330969.28063
  18951990.721   -19454293.858 7 -15010101.70923
 92  5 10  3 54 44.9940000  0  5G24G17G 3G16G20
  21625445.3854    5303007.31746   4142017.78261
  21008458.7834  -11693593.43246  -8855821.09561
  20512385.2054  -19592307.99946 -15066121.09361
  19560159.736   -18581933.718 7 -14333933.47823
  18951033.986   -19459314.093 7 -15014013.59023
 92  5 10  3 54 59.9940000  0  5G24G17G 3G16G20
  21629065.393     5322025.298 6   4156836.96921
  20997907.7054  -11749061.99146  -8899043.30961
  20503014.9554  -19641543.62146 -15104486.51061
  19559464.205   -18585602.756 7 -14336792.45723
  18950103.502   -19464189.851 7 -15017812.91023
 92  5 10  3 55 14.9940000  0  5G24G17G 3G16G20
  21632687.8694    5341055.04746   4171665.33561
  20987360.8304  -11804468.69846  -8942217.33061
  20493645.5414  -19690770.16846 -15142844.86261
  19558790.471   -18589130.826 7 -14339541.59423
  18949202.924   -19468918.497 7 -15021497.58123
 92  5 10  3 55 29.9940000  0  5G24G17G 3G16G20
  21636310.6434    5360102.37446   4186507.39861
  20976829.2524  -11859809.17646  -8985339.73661
  20484284.2604  -19739984.49046 -15181193.65261
  19558145.8934  -18592512.05147 -14342176.30263
  18948334.268   -19473496.867 7 -15025065.15223
 92  5 10  3 55 44.9940000  0  5G24G17G 3G16G20
  21639940.8224    5379160.14646   4201357.60161
  20966306.4324  -11915092.76246  -9028417.82561
  20474919.7524  -19789194.35546 -15219539.00461
  19557528.533   -18595753.509 7 -14344702.10123
  18947492.150   -19477933.203 7 -15028522.05223
 92  5 10  3 55 59.9940000  0  5G24G17G 3G16G20
  21643565.2604    5398229.64046   4216216.93761
  20955805.4944  -11970320.20546  -9071452.15761
  20465551.682   -19838397.578 6 -15257879.18921
  19556941.744   -18598854.759 7 -14347118.65023
  18946671.5724  -19482225.39047 -15031866.62163
 92  5 10  3 56 14.9940000  0  5G24G17G 3G16G20
  21647192.2524    5417307.78046   4231083.01161
  20945305.2994  -12025490.83546  -9114442.22061
  20456191.604   -19887593.729 6 -15296213.81621
  19556378.135   -18601818.725 7 -14349428.22123
  18945880.7294  -19486373.36647 -15035098.81963
 92  5 10  3 56 29.9940000  0  5G24G17G 3G16G20
  21650828.7914    5436397.23446   4245957.90561
  20934812.9404  -12080598.22046  -9157383.01361
  20446834.8854  -19936777.77747 -15334539.05761
  19555838.549   -18604641.500 7 -14351627.77323
  18945122.924   -19490372.236 7 -15038214.82923
 92  5 10  3 56 44.9940000  0  5G24G17G 3G16G20
  21654467.104     5455491.154 6   4260836.25821
  20924338.330   -12135649.746 6  -9200280.28321
  20437472.2364  -19985955.35146 -15372859.26361
  19555325.111   -18607329.963 7 -14353722.67023
  18944390.393   -19494227.964 7 -15041219.31523
 92  5 10  3 56 59.9940000  0  5G24G17G 3G16G20
  21658098.2134    5474590.57946   4275718.92761
  20913874.096   -12190645.689 6  -9243134.23721
  20428124.8694  -20035124.58647 -15411172.90761
  19554841.963   -18609881.705 7 -14355711.02623
  18943683.291   -19497938.792 7 -15044110.89523
 92  5 10  3 57 14.9940000  0  5G24G17G 3G16G20
  21661730.893     5493688.506 6   4290600.40621
  20903416.7994  -12245590.59746  -9285948.42761
  20418765.7834  -20084290.85847 -15449484.23561
  19554384.182   -18612302.789 7 -14357597.57323
  18943000.033   -19501510.459 7 -15046894.02923
 92  5 10  3 57 29.9940000  0  5G24G17G 3G16G20
  21665367.299     5512784.993 6   4305480.77621
  20892975.8774  -12300483.31046  -9328721.94161
  20409403.5414  -20133451.67746 -15487791.37061
  19553945.455   -18614591.361 7 -14359380.86423
  18942350.143   -19504940.548 7 -15049566.83023
 92  5 10  3 57 44.9940000  0  5G24G17G 3G16G20
  21668997.924     5531880.685 6   4320360.51021
  20882542.8854  -12355319.66346  -9371451.53561
  20400054.2994  -20182600.95646 -15526089.49361
  19553533.072   -18616746.194 7 -14361059.94123
  18941728.471   -19508223.336 7 -15052124.86523
 92  5 10  3 57 59.9940000  0  5G24G17G 3G16G20
  21672630.3224    5550973.73846   4335238.18461
  20872115.8934  -12410096.07946  -9414134.43561
  20390705.4944  -20231737.68247 -15564377.82361
  19553151.986   -18618767.960 7 -14362635.33223
  18941127.5184  -19511358.21347 -15054567.65863
 92  5 10  3 58 14.9940000  0  5G24G17G 3G16G20
  21676260.885     5570059.027 6   4350109.81221
  20861707.3304  -12464812.62546  -9456770.66861
  20381353.971   -20280865.576 6 -15602659.26721
  19552792.893   -18620660.103 7 -14364109.71623
  18940558.3774  -19514348.97147 -15056898.14963
 92  5 10  3 58 29.9940000  0  5G24G17G 3G16G20
  21679897.408     5589144.208 6   4364981.37521
  20851305.4164  -12519462.58246  -9499355.02461
  20372010.0334  -20329980.01147 -15640930.21861
  19552455.588   -18622414.965 7 -14365477.12723
  18940020.432   -19517190.950 7 -15059112.70123
 92  5 10  3 58 44.9940000  0  5G24G17G 3G16G20
  21683527.947     5608225.726 6   4379850.07321
  20840919.7054  -12574050.26446  -9541890.84961
  20362665.549   -20379085.148 7 -15679193.92821
  19552148.1904  -18624034.83747 -14366739.35663
  18939506.885   -19519888.788 7 -15061214.93123
 92  5 10  3 58 59.9940000  0  5G24G17G 3G16G20
  21687157.2754    5627304.39546   4394716.54361
  20830543.6504  -12628576.68846  -9584378.94761
  20353314.6664  -20428181.57546 -15717450.84761
  19551868.080   -18625517.990 7 -14367895.04823
  18939018.4634  -19522443.37847 -15063205.55263
 92  5 10  3 59 14.9940000  0  5G24G17G 3G16G20
  21690787.2684    5646377.04446   4409578.31261
  20820178.033   -12683042.354 6  -9626819.71121
  20343977.174   -20477272.097 6 -15755703.17221
  19551608.400   -18626867.452 7 -14368946.56223
  18938560.057   -19524857.655 7 -15065086.82223
 92  5 10  3 59 29.9940000  0  5G24G17G 3G16G20
  21694421.7914    5665456.45946   4424445.36261
  20809824.6044  -12737434.27946  -9669203.00061
  20334644.502   -20526344.320 7 -15793941.25421
  19551378.455   -18628070.225 7 -14369883.77623
  18938132.1664  -19527119.58947 -15066849.39663
 92  5 10  3 59 44.9940000  0  5G24G17G 3G16G20
  21698049.197     5684536.040 6   4439312.55421
  20799486.518   -12791759.051 6  -9711533.96421
  20325304.440   -20575404.838 6 -15832170.20921
  19551182.2054  -18629132.28647 -14370711.34363
  18937725.2364  -19529235.93347 -15068498.52563
 92  5 10  3 59 59.9940000  0  5G24G17G 3G16G20
  21701681.908     5703616.392 6   4454180.33921
  20789162.721   -12846019.282 6  -9753814.64821
  20315971.2214  -20624456.30246 -15870392.11461
  19551003.088   -18630054.391 7 -14371429.85523
  18937351.283   -19531209.705 7 -15070036.54523
 92  5 10  4  0 14.9940000  0  5G24G17G 3G16G20
  21705311.541     5722698.557 6   4469049.53021
  20778850.158   -12900216.841 6  -9796046.48121
  20306640.385   -20673500.247 6 -15908608.16221
  19550853.869   -18630836.676 7 -14372039.41623
  18937004.9794  -19533042.65747 -15071464.85663
 92  5 10  4  0 29.9940000  0  5G24G17G 3G16G20
  21708943.549     5741789.703 6   4483925.72921
  20768546.8854  -12954348.69146  -9838227.13061
  20297309.752   -20722530.913 7 -15946813.83321
  19550735.791   -18631474.183 7 -14372536.16023
  18936679.900   -19534729.467 7 -15072779.28523
 92  5 10  4  0 44.9940000  0  5G24G17G 3G16G20
  21712577.9864    5760884.16646   4498804.49961
  20758256.221   -13008421.654 6  -9880361.88921
  20287981.4244  -20771552.52247 -15985012.50861
  19550639.5104  -18631972.94447 -14372924.79563
  18936387.190   -19536274.284 7 -15073983.09223
 92  5 10  4  0 59.9940000  0  5G24G17G 3G16G20
  21716211.838     5779979.338 6   4513683.83121
  20747976.9164  -13062439.08246  -9922453.36061
  20278649.0654  -20820565.08546 -16023204.10561
  19550567.057   -18632335.830 7 -14373207.55423
  18936122.9004  -19537677.84047 -15075076.80663
 92  5 10  4  1 14.9940000  0  5G24G17G 3G16G20
  21719844.533     5799076.492 6   4528564.70121
  20737711.807   -13116401.530 6  -9964502.00721
  20269327.1354  -20869568.19447 -16061388.32861
  19550528.580   -18632564.500 7 -14373385.72523
  18935879.0184  -19538939.65247 -15076060.06363
 92  5 10  4  1 29.9940000  0  5G24G17G 3G16G20
  21723478.5024    5818175.32046   4543446.88161
  20727450.252   -13170308.605 6 -10006507.49221
  20260003.588   -20918560.066 6 -16099563.79721
  19550506.9164  -18632660.18047
  18935667.674   -19540058.311 7 -15076931.79223
 92  5 10  4  1 44.9930000  0  5G24G17G 3G16G20
  21727113.599     5837277.307 6   4558331.52321
  20717201.778   -13224155.050 6 -10048465.73921
  20250688.7944  -20967534.43047 -16137725.60561
  19550512.5674  -18632621.40747
  18935485.567   -19541031.001 7 -15077689.77123
 92  5 10  4  1 59.9930000  0  5G24G17G 3G16G20
  21730751.005     5856385.531 6   4573221.02521
  20706965.825   -13277947.352 6 -10090381.80321
  20241370.5604  -21016497.55147 -16175878.66361
  19550549.544   -18632448.328 7
  18935324.2944  -19541857.82147 -15078334.07663
 92  5 10  4  2 14.9930000  0  5G24G17G 3G16G20
  21734392.028     5875497.285 6   4588113.27821
  20696743.153   -13331682.530 6 -10132253.35021
  20232055.122   -21065447.597 7 -16214021.53921
  19550605.091   -18632143.346 7
  18935195.224   -19542540.746 7 -15078866.27023
 92  5 10  4  2 29.9930000  0  5G24G17G 3G16G20
  21738028.552     5894615.801 6   4603010.79721
  20686528.3644  -13385358.92846 -10174079.09361
  20222744.114   -21114382.404 7 -16252152.55221
  19550685.474   -18631706.447 7 -14372717.05023
  18935093.9894  -19543077.57747 -15079284.62163
 92  5 10  4  2 44.9930000  0  5G24G17G 3G16G20
  21741662.8724    5913737.35746   4617910.69161
  20676320.864   -13438980.433 6 -10215862.06021
  20213432.114   -21163304.171 6 -16290273.38221
  19550797.450   -18631140.980 7 -14372276.41422
  18935014.7244  -19543470.76847 -15079591.04063
 92  5 10  4  2 59.9930000  0  5G24G17G 3G16G20
  21745303.3724    5932857.98246   4632809.84961
  20666128.614   -13492553.180 6 -10257607.03421
  20204120.325   -21212216.620 6 -16328386.97221
  19550926.716   -18630452.710 7 -14371740.08923
  18934974.2714  -19543724.49147 -15079788.78763
 92  5 10  4  3 14.9930000  0  5G24G17G 3G16G20
  21748944.4974    5951987.00046   4647715.54661
  20655947.3334  -13546064.96446 -10299304.52561
  20194818.7944  -21261110.85247 -16366486.34361
  19551084.0284  -18629633.59747 -14371101.81262
  18934948.880   -19543830.155 7
 92  5 10  4  3 29.9930000  0  5G24G17G 3G16G20
  21752584.521     5971126.175 6   4662629.17121
  20645772.036   -13599510.951 6 -10340950.72821
  20185521.3574  -21309985.42347 -16404570.40861
  19551264.3884  -18628682.96747 -14370361.05562
  18934959.919   -19543786.437 7
 92  5 10  4  3 44.9930000  0  5G24G17G 3G16G20
  21756229.919     5990268.449 6   4677545.19021
  20635614.841   -13652897.306 6 -10382550.46221
  20176219.263   -21358848.748 6 -16442645.70721
  19551466.7084  -18627609.11147 -14369524.27762
  18934995.357   -19543602.232 7
 92  5 10  4  3 59.9930000  0  5G24G17G 3G16G20
  21759872.7944    6009417.87146   4692466.78361
  20625472.3724  -13706219.86546 -10424100.49461
  20166926.5284  -21407698.53747 -16480710.45161
  19551699.0444  -18626409.71247 -14368589.67462
  18935052.1614  -19543275.24247
 92  5 10  4  4 14.9930000  0  5G24G17G 3G16G20
  21763519.278     6028574.119 6   4707393.71021
  20615332.966   -13759480.640 6 -10465602.37721
  20157631.888   -21456536.008 6 -16518765.57821
  19551946.3174  -18625084.94747 -14367557.38962
  18935149.2634  -19542807.33447 -15079074.31363
 92  5 10  4  4 29.9930000  0  5G24G17G 3G16G20
  21767163.677     6047736.590 6   4722325.47921
  20605209.2554  -13812680.60546 -10507056.86761
  20148342.200   -21505361.689 7 -16556811.53221
  19552226.1924  -18623637.46847 -14366429.47762
  18935260.0834  -19542199.27947 -15078600.53663
 92  5 10  4  4 44.9930000  0  5G24G17G 3G16G20
  21770811.4894    6066903.85546   4737260.97561
  20595098.2324  -13865820.16846 -10548464.30861
  20139043.2944  -21554174.75346 -16594847.64561
  19552521.5994  -18622066.17447 -14365205.09462
  18935406.372   -19541450.338 7 -15078016.98823
 92  5 10  4  4 59.9930000  0  5G24G17G 3G16G20
  21774462.1694    6086065.15846   4752191.84061
  20584997.3494  -13918905.22946 -10589829.27961
  20129761.8804  -21602983.59646 -16632880.48161
  19552844.8884  -18620379.40447 -14363890.73162
  18935569.153   -19540569.383 7 -15077330.57523
 92  5 10  4  5 14.9930000  0  5G24G17G 3G16G20
  21778106.146     6105223.555 6   4767120.44221
  20574903.9744  -13971932.06246 -10631148.87861
  20120473.747   -21651787.758 7 -16670909.67421
  19553186.0604  -18618574.63447 -14362484.41962
  18935765.3414  -19539556.27547 -15076541.17263
 92  5 10  4  5 29.9930000  0  5G24G17G 3G16G20
  21781749.9744    6124388.54746   4782054.17261
  20564829.810   -14024890.392 6 -10672415.09221
  20111192.8024  -21700577.61647 -16708927.70961
  19553557.3804  -18616638.12247 -14360975.45362
  18935981.5134  -19538401.69447 -15075641.53263
 92  5 10  4  5 44.9930000  0  5G24G17G 3G16G20
  21785400.3884    6143556.65646   4796990.33561
  20554756.6614  -14077788.28046 -10713634.22161
  20101915.6384  -21749355.18247 -16746936.16161
  19553948.2324  -18614567.52347 -14359362.00562
  18936230.9274  -19537108.06647 -15074633.54763
 92  5 10  4  5 59.9930000  0  5G24G17G 3G16G20
  21789047.6304    6162733.43846   4811933.24261
  20544711.067   -14130622.113 6 -10754803.41921
  20092637.294   -21798112.939 7 -16784929.18121
  19554371.4664  -18612352.67447 -14357636.15462
  18936503.1694  -19535667.97647 -15073511.43863
 92  5 10  4  6 14.9930000  0  5G24G17G 3G16G20
  21792697.5754    6181915.46846   4826880.26261
  20534666.5914  -14183395.26546 -10795925.35361
  20083356.278   -21846853.165 7 -16822908.54922
  19554818.5524  -18609994.01247 -14355798.24362
  18936807.8724  -19534083.92047 -15072277.14163
 92  5 10  4  6 29.9930000  0  5G24G17G 3G16G20
  21796348.6304    6201096.42046   4841826.42061
  20524635.3884  -14236111.80646 -10837003.17161
  20074088.099   -21895579.358 7 -16860876.98821
  19555297.3644  -18607495.80547 -14353851.59662
  18937131.575   -19532359.871 7 -15070933.77023
 92  5 10  4  6 44.9930000  0  5G24G17G 3G16G20
  21799999.1074    6220276.34946   4856771.79161
  20514613.8334  -14288768.83846 -10878034.60861
  20064816.2474  -21944288.50447 -16898832.12961
  19555796.5134  -18604854.65347 -14351793.56462
  18937489.2164  -19530493.01647 -15069479.12163
 92  5 10  4  6 59.9930000  0  5G24G17G 3G16G20
  21803644.1464    6239448.87346   4871711.39661
  20504608.036   -14341373.083 6 -10919024.91621
  20055544.419   -21992987.206 6 -16936779.14621
  19556329.6774  -18602077.20247 -14349629.32562
  18937867.950   -19528490.518 7 -15067918.77823
 92  5 10  4  7 14.9930000  0  5G24G17G 3G16G20
  21807293.1144    6258620.57246   4886650.35861
  20494601.4274  -14393919.84446 -10959970.43661
  20046278.599   -22041672.485 6 -16974715.70621
  19556880.6614  -18599160.69247 -14347356.73162
  18938278.9584  -19526349.56447 -15066250.54163
 92  5 10  4  7 29.9930000  0  5G24G17G 3G16G20
  21810942.489     6277787.514 6   4901585.61421
  20484618.1774  -14446412.87846 -11000874.08761
  20037024.3494  -22090345.16347 -17012642.42961
  19557465.1774  -18596107.31147 -14344977.48662
  18938710.552   -19524071.584 7 -15064475.53223
 92  5 10  4  7 44.9930000  0  5G24G17G 3G16G20
  21814586.0054    6296951.02946   4916518.18161
  20474639.4034  -14498847.73746 -11041732.41561
  20027763.6694  -22139001.11047 -17050556.11661
  19558068.419   -18592916.842 7 -14342491.41922
  18939173.1304  -19521652.69847 -15062590.72963
 92  5 10  4  7 59.9930000  0  5G24G17G 3G16G20
  21818236.841     6316106.569 6   4931444.54921
  20464669.5674  -14551227.89546 -11082548.12161
  20018506.2394  -22187645.49847 -17088460.82361
  19558702.6924  -18589600.39647 -14339907.18362
  18939654.942   -19519098.254 7 -15060600.29523
 92  5 10  4  8 14.9930000  0  5G24G17G 3G16G20
  21821881.982     6335260.158 6   4946369.40021
  20454716.161   -14603544.203 6 -11123314.05721
  20009252.3104  -22236274.41647 -17126353.45862
  19559354.9034  -18586160.85747 -14337227.03862
  18940170.442   -19516404.725 7 -15058501.48223
 92  5 10  4  8 29.9930000  0  5G24G17G 3G16G20
  21825523.0214    6354413.04646   4961293.70361
  20444774.388   -14655794.116 6 -11164028.26121
  20000007.661   -22284887.219 7 -17164233.53921
  19560034.880   -18582599.921 7 -14334452.29622
  18940707.8724  -19513571.65447 -15056293.93563
 92  5 10  4  8 44.9930000  0  5G24G17G 3G16G20
  21829167.9744    6373560.02246   4976213.38761
  20434840.0214  -14707984.83746 -11204696.34061
  19990757.724   -22333489.363 7 -17202105.32322
  19560729.872   -18578924.690 7 -14331588.49222
  18941275.810   -19510605.031 7 -15053982.32523
 92  5 10  4  8 59.9930000  0  5G24G17G 3G16G20
  21832814.278     6392709.276 6   4991134.85521
  20424923.8964  -14760109.64446 -11245313.07461
  19981506.8254  -22382074.85247 -17239964.10161
  19561456.271   -18575129.479 7 -14328631.20022
  18941863.396   -19507499.069 7 -15051562.14223
 92  5 10  4  9 14.9930000  0  5G24G17G 3G16G20
  21836451.482     6411856.536 5   5006054.77521
  20415014.7004  -14812171.82546 -11285881.00261
  19972263.0524  -22430648.00147 -17277813.28862
  19562197.3494  -18571219.03747 -14325584.11362
  18942482.9504  -19504258.58247 -15049037.11963
 92  5 10  4  9 29.9930000  0  5G24G17G 3G16G20
  21840098.9504    6431003.42045   5020974.38461
  20405120.5834  -14864170.69846 -11326399.59661
  19963028.3884  -22479204.81647 -17315649.71562
  19562967.310   -18567189.416 7 -14322444.16522
  18943122.7324  -19500879.78547 -15046404.32563
 92  5 10  4  9 44.9930000  0  5G24G17G 3G16G20
  21843741.8644    6450147.66345   5035891.94161
  20395234.4114  -14916108.34546 -11366870.48561
  19953785.880   -22527745.458 7 -17353473.57122
  19563755.099   -18563041.174 7 -14319211.78622
  18943794.1854  -19497363.13747 -15043664.11763
 92  5 10  4  9 59.9930000  0  5G24G17G 3G16G20
  21847385.333     6469287.247 6   5050805.88521
  20385366.2164  -14967990.15046 -11407297.85261
  19944554.403   -22576275.963 7 -17391289.51421
  19564565.028   -18558779.809 7 -14315891.25422
  18944489.669   -19493715.117 7 -15040821.55023
 92  5 10  4 10 14.9930000  0  5G24G17G 3G16G20
  21851030.1384    6488434.95646   5065726.14661
  20375503.3024  -15019802.32646 -11447670.97561
  19935328.2244  -22624782.63647 -17429086.87562
  19565403.880   -18554389.532 7 -14312470.26922
  18945207.5914  -19489922.40747 -15037866.23263
 92  5 10  4 10 29.9930000  0  5G24G17G 3G16G20
  21854670.2864    6507581.90546   5080645.81661
  20365655.7164  -15071552.13946 -11487995.49461
  19926094.6694  -22673272.36047 -17466871.05462
  19566259.513   -18549873.121 7 -14308951.00522
  18945959.2394  -19485992.10247 -15034803.69563
 92  5 10  4 10 44.9930000  0  5G24G17G 3G16G20
  21858314.380     6526729.679 5   5095566.14121
  20355820.169   -15123238.336 6 -11528270.45121
  19916869.966   -22721742.452 7 -17504639.93121
  19567147.396   -18545226.396 7 -14305330.19222
  18946730.3964  -19481921.95247 -15031632.17763
 92  5 10  4 10 59.9930000  0  5G24G17G 3G16G20
  21861956.763     6545867.619 6   5110478.79521
  20345997.6304  -15174869.44746 -11568502.47261
  19907652.2244  -22770202.69347 -17542401.11862
  19568053.489   -18540460.161 7 -14301616.25922
  18947531.0674  -19477722.25747 -15028359.72263
 92  5 10  4 11 14.9930000  0  5G24G17G 3G16G20
  21865599.216     6565004.856 6   5125390.89021
  20336181.052   -15226434.862 6 -11608683.30421
  19898433.935   -22818643.089 7 -17580146.86222
  19568982.857   -18535562.921 7 -14297800.24522
  18948358.6074  -19473383.22247 -15024978.69163
 92  5 10  4 11 29.9930000  0  5G24G17G 3G16G20
  21869240.614     6584142.333 6   5140303.18521
  20326382.1224  -15277936.41646 -11648814.37961
  19889218.9424  -22867062.95547 -17617876.59862
  19569942.872   -18530534.828 7 -14293882.26622
  18949206.5754  -19468904.58747 -15021488.87863
 92  5 10  4 11 44.9930000  0  5G24G17G 3G16G20
  21872878.833     6603272.404 5   5155209.70621
  20316592.5754  -15329382.42946 -11688902.16661
  19880005.5054  -22915470.02247 -17655596.36862
  19570921.997   -18525382.892 7 -14289867.78522
  18950087.5214  -19464294.44047 -15017896.59063
 92  5 10  4 11 59.9930000  0  5G24G17G 3G16G20
  21876522.8574    6622409.24945   5170121.49561
  20306813.3334  -15380757.65546 -11728934.80561
  19870796.1384  -22963851.78447 -17693296.39962
  19571927.997   -18520094.512 7 -14285746.98622
  18950991.763   -19459540.698 7 -15014192.42123
 92  5 10  4 12 14.9930000  0  5G24G17G 3G16G20
  21880164.5054    6641552.30445   5185038.13761
  20297054.8334  -15432060.68846 -11768911.18161
  19861595.3644  -23012207.11247 -17730975.86162
  19572962.8964  -18514669.22847 -14281519.50362
  18951922.044   -19454642.417 7 -15010375.62223
 92  5 10  4 12 29.9930000  0  5G24G17G 3G16G20
  21883803.4424    6660689.41845   5199950.14661
  20287301.8414  -15483303.52046 -11808840.66561
  19852395.966   -23060546.577 7 -17768642.96522
  19574016.208   -18509117.358 7 -14277193.38222
  18952881.669   -19449610.823 7 -15006454.95423
 92  5 10  4 12 44.9930000  0  5G24G17G 3G16G20
  21887447.021     6679822.866 5   5214859.29421
  20277564.6854  -15534488.36946 -11848724.95261
  19843201.607   -23108869.831 7 -17806297.42922
  19575095.849   -18503440.916 7 -14272770.19622
  18953865.2324  -19444445.74147 -15002430.25263
 92  5 10  4 12 59.9930000  0  5G24G17G 3G16G20
  21891091.1304    6698961.02446   5229772.10461
  20267837.3574  -15585609.32246 -11888559.45961
  19834006.3964  -23157169.77447 -17843933.75162
  19576204.310   -18497634.139 7 -14268245.44622
  18954871.599   -19439140.432 7 -14998296.29523
 92  5 10  4 13 14.9930000  0  5G24G17G 3G16G20
  21894728.7004    6718094.94345   5244681.61361
  20258118.6074  -15636674.45646 -11928350.46661
  19824823.6384  -23205454.33747 -17881558.07762
  19577332.2004  -18491703.45447 -14263624.14962
  18955909.0054  -19433703.22947 -14994059.55363
 92  5 10  4 13 29.9930000  0  5G24G17G 3G16G20
  21898373.7244    6737230.42145   5259592.35561
  20248406.7784  -15687681.42246 -11968096.16161
  19815639.7474  -23253720.02747 -17919167.68962
  19578482.021   -18485646.345 7 -14258904.33522
  18956970.6384  -19428131.00247 -14989717.58763
 92  5 10  4 13 44.9930000  0  5G24G17G 3G16G20
  21902012.0444    6756367.40345   5274504.23961
  20238717.0914  -15738627.15246 -12007794.13261
  19806452.4584  -23301964.92447 -17956761.11462
  19579663.9824  -18479460.90247 -14254084.52062
  18958052.5134  -19422422.28547 -14985269.27363
 92  5 10  4 13 59.9930000  0  5G24G17G 3G16G20
  21905657.7864    6775506.81246   5289418.03861
  20229035.2244  -15789507.25246 -12047440.96461
  19797281.8174  -23350187.03147 -17994336.77462
  19580864.200   -18473145.675 7 -14249163.57722
  18959167.958   -19416575.489 7 -14980713.37423
 92  5 10  4 14 14.9930000  0  5G24G17G 3G16G20
  21909300.2714    6794641.04346   5304327.78861
  20219361.935   -15840328.616 6 -12087042.01421
  19788111.075   -23398393.789 7 -18031900.45822
  19582084.966   -18466711.580 7 -14244150.00922
  18960305.239   -19410598.431 7 -14976055.97923
 92  5 10  4 14 29.9930000  0  5G24G17G 3G16G20
  21912936.302     6813770.230 6   5319233.62421
  20209700.4504  -15891091.98746 -12126597.88961
  19778939.497   -23446585.323 7 -18069452.27922
  19583334.4744  -18460158.99447 -14239044.11162
  18961465.153   -19404491.543 7 -14971297.41523
 92  5 10  4 14 44.9930000  0  5G24G17G 3G16G20
  21916578.4974    6832907.09746   5334145.42161
  20200055.7634  -15941786.51946 -12166100.12361
  19769775.6144  -23494750.37947 -18106983.48962
  19584607.5134  -18453475.56747 -14233836.26162
  18962653.224   -19398244.064 7 -14966429.29623
 92  5 10  4 14 59.9930000  0  5G24G17G 3G16G20
  21920219.0914    6852048.95946   5349061.12561
  20190419.974   -15992413.153 6 -12205549.43821
  19760613.786   -23542891.265 7 -18144495.85622
  19585899.958   -18446663.031 7 -14228527.80322
  18963872.3724  -19391858.48747 -14961453.56063
 92  5 10  4 15 14.9930000  0  5G24G17G 3G16G20
  21923866.8644    6871190.09446   5363976.26861
  20180801.2554  -16042974.41346 -12244947.81461
  19751456.739   -23591011.376 7 -18181992.03622
  19587222.091   -18439721.772 7 -14223119.04622
  18965112.169   -19385338.834 7 -14956373.35523
 92  5 10  4 15 29.9930000  0  5G24G17G 3G16G20
  21927505.2634    6890324.83246   5378886.43061
  20171186.5364  -16093476.38046 -12284299.99761
  19742303.7324  -23639115.30147 -18219475.60062
  19588568.036   -18432659.559 7 -14217616.03822
  18966374.372   -19378690.105 7 -14951192.58323
 92  5 10  4 15 44.9930000  0  5G24G17G 3G16G20
  21931146.052     6909457.299 6   5393794.80821
  20161588.8494  -16143917.02746 -12323604.38961
  19733149.3414  -23687198.69847 -18256943.16562
  19589936.286   -18425472.344 7 -14212015.62022
  18967665.8104  -19371908.13847 -14945907.99263
 92  5 10  4 15 59.9930000  0  5G24G17G 3G16G20
  21934787.7324    6928591.65246   5408704.66161
  20152004.5674  -16194294.44646 -12362859.51961
  19724006.763   -23735258.900 7 -18294392.68922
  19591324.692   -18418156.673 7 -14206315.11522
  18968986.4664  -19364990.75647 -14940517.89363
 92  5 10  4 16 14.9930000  0  5G24G17G 3G16G20
  21938428.5604    6947723.53046   5423612.59061
  20142426.5364  -16244618.74346 -12402073.26361
  19714862.6614  -23783303.50847 -18331830.04962
  19592738.982   -18410723.489 7 -14200523.03822
  18970325.333   -19357945.871 7 -14935028.42623
 92  5 10  4 16 29.9930000  0  5G24G17G 3G16G20
  21942069.2164    6966858.75145   5438523.13061
  20132862.8804  -16294882.84146 -12441240.08661
  19705728.192   -23831326.180 7 -18369250.33622
  19594181.552   -18403166.155 7 -14194634.22122
  18971687.8644  -19350767.78347 -14929435.17163
 92  5 10  4 16 44.9930000  0  5G24G17G 3G16G20
  21945715.0834    6985997.28845   5453436.24061
  20123308.435   -16345089.444 6 -12480362.12421
  19696594.0364  -23879328.49047 -18406654.73962
  19595641.841   -18395485.058 7 -14188648.96522
  18973080.896   -19343458.447 7 -14923739.63523
 92  5 10  4 16 59.9930000  0  5G24G17G 3G16G20
  21949353.9424    7005139.73645   5468352.39861
  20113765.0914  -16395235.37346 -12519436.88261
  19687460.8574  -23927310.07147 -18444042.98062
  19597125.567   -18387682.332 7 -14182568.93322
  18974498.497   -19336017.681 7 -14917941.68523
 92  5 10  4 17 14.9930000  0  5G24G17G 3G16G20
  21952994.0834    7024284.46345   5483270.33361
  20104235.2944  -16445320.29746 -12558464.09261
  19678335.2714  -23975271.16147 -18481415.24562
  19598630.622   -18379759.627 7 -14176395.41122
  18975941.239   -19328446.575 7 -14912042.18223
 92  5 10  4 17 29.9930000  0  5G24G17G 3G16G20
  21956640.3024    7043432.70945   5498191.00761
  20094716.6384  -16495344.56146 -12597444.02861
  19669211.2554  -24023212.82847 -18518772.39562
  19600163.700   -18371719.413 7 -14170130.32822
  18977402.0444  -19320746.15847 -14906041.91563
 92  5 10  4 17 44.9930000  0  5G24G17G 3G16G20
  21960285.2474    7062589.51445   5513118.35361
  20085205.4194  -16545304.73246 -12636374.04061
  19660091.4824  -24071131.99647 -18556112.00162
  19601717.1224  -18363559.91647 -14163772.28962
  18978892.614   -19312913.825 7 -14899938.84123
 92  5 10  4 17 59.9930000  0  5G24G17G 3G16G20
  21963934.724     7081758.720 5   5528055.36421
  20075717.1384  -16595194.88746 -12675249.49061
  19650972.700   -24119025.708 7 -18593431.78222
  19603293.169   -18355279.295 7 -14157319.87522
  18980409.677   -19304947.163 7 -14893731.10723
 92  5 10  4 18 14.9930000  0  5G24G17G 3G16G20
  21967586.8884    7100938.58745   5543000.68961
  20066238.7784  -16645011.60446 -12714067.71261
  19641863.1614  -24166892.88147 -18630730.88362
  19604887.849   -18346879.238 7 -14150774.38822
  18981953.849   -19296845.561 7 -14887418.21623
 92  5 10  4 18 29.9930000  0  5G24G17G 3G16G20
  21971231.8964    7120121.36645   5557948.27761
  20056771.6074  -16694757.12246 -12752830.43561
  19632761.8414  -24214737.74547 -18668012.57962
  19606509.153   -18338363.325 7 -14144138.62822
  18983519.3414  -19288613.40747 -14881003.58663
 92  5 10  4 18 44.9930000  0  5G24G17G 3G16G20
  21974881.692     7139304.316 5   5572896.00021
  20047316.5134  -16744434.20046 -12791539.85261
  19623661.6464  -24262561.24747 -18705277.64062
  19608152.9584  -18329732.31747 -14137413.18062
  18985108.489   -19280252.186 7 -14874488.39423
 92  5 10  4 18 59.9930000  0  5G24G17G 3G16G20
  21978535.333     7158491.623 5   5587847.12121
  20037879.2084  -16794038.04546 -12830192.19661
  19614564.0604  -24310357.13847 -18742521.20162
  19609818.989   -18320979.813 7 -14130593.06222
  18986723.5754  -19271755.84747 -14867867.90963
 92  5 10  4 19 14.9930000  0  5G24G17G 3G16G20
  21982185.3644    7177667.52745   5602789.35061
  20028451.294   -16843583.850 6 -12868799.30421
  19605477.4274  -24358138.14247 -18779753.15262
  19611505.950   -18312118.617 7 -14123688.25022
  18988364.630   -19263137.950 7 -14861152.68123
 92  5 10  4 19 29.9930000  0  5G24G17G 3G16G20
  21985832.4824    7196840.33245   5617729.14761
  20019035.9664  -16893065.34846 -12907356.31061
  19596383.5054  -24405894.88647 -18816966.20062
  19613214.044   -18303140.439 7 -14116692.28422
  18990031.4274  -19254389.30447 -14854335.59163
 92  5 10  4 19 44.9930000  0  5G24G17G 3G16G20
  21989480.8964    7216007.29445   5632664.42861
  20009628.2784  -16942483.76946 -12945864.17661
  19587301.2554  -24453627.36947 -18854160.33062
  19614943.013   -18294046.723 7 -14109606.28322
  18991722.513   -19245510.535 7 -14847417.09323
 92  5 10  4 19 59.9930000  0  5G24G17G 3G16G20
  21993127.4894    7235168.24145   5647594.98261
  20000234.4354  -16991838.28746 -12984322.23561
  19578226.0754  -24501332.87547 -18891333.45162
  19616695.114   -18284836.897 7 -14102429.80922
  18993437.544   -19236499.206 7 -14840395.30723
 92  5 10  4 20 14.9930000  0  5G24G17G 3G16G20
  21996770.9194    7254318.45645   5662517.20961
  19990857.5364  -17041132.55446 -13022733.34961
  19569151.9114  -24549013.13347 -18928486.90862
  19618470.528   -18275512.003 7 -14095163.66922
  18995177.177   -19227357.503 7 -14833271.92223
 92  5 10  4 20 29.9930000  0  5G24G17G 3G16G20
  22000414.3494    7273454.58945   5677428.44661
  19981489.7004  -17090372.55046 -13061102.17861
  19560083.4584  -24596672.88047 -18965624.38062
  19620268.1854  -18266073.89747 -14087809.31462
  18996938.458   -19218090.524 7 -14826050.93423
 92  5 10  4 20 44.9930000  0  5G24G17G 3G16G20
  22004053.5134    7292579.81845   5692331.18361
  19972127.1694  -17139557.01946 -13099427.74561
  19551018.9584  -24644311.13747 -19002745.08962
  19622084.5444  -18256520.09347 -14080364.80262
  18998725.099   -19208697.925 7 -14818732.02823
 92  5 10  4 20 59.9930000  0  5G24G17G 3G16G20
  22007693.419     7311695.269 5   5707226.29221
  19962780.4354  -17188686.94846 -13137710.80461
  19541961.3104  -24691927.83347 -19039849.01062
  19623926.950   -18246851.817 7 -14072831.09522
  19000534.5674  -19199179.90847 -14811315.41363
 92  5 10  4 21 14.9930000  0  5G24G17G 3G16G20
  22011327.0674    7330805.68045   5722117.48861
  19953440.146   -17237756.378 6 -13175946.69421
  19532901.7634  -24739520.07647 -19076933.88162
  19625787.247   -18237065.985 7 -14065205.78822
  19002370.3024  -19189533.95747 -14803799.09063
 92  5 10  4 21 29.9930000  0  5G24G17G 3G16G20
  22014960.536     7349909.955 5   5737003.89021
  19944117.9424  -17286766.50946 -13214136.41261
  19523841.1854  -24787090.71647 -19114001.91162
  19627671.5284  -18227166.57947 -14057491.97462
  19004231.755   -19179763.490 7 -14796185.75923
 92  5 10  4 21 44.9920000  0  5G24G17G 3G16G20
  22018598.0704    7369013.49545   5751889.73461
  19934804.8994  -17335706.40446 -13252271.39561
  19514805.5784  -24834630.40447 -19151045.82062
  19629576.1884  -18217148.30247 -14049685.53762
  19006115.9064  -19169863.57347 -14788471.56563
 92  5 10  4 21 59.9920000  0  5G24G17G 3G16G20
  22022231.7274    7388115.68345   5766774.51861
  19925503.5634  -17384588.11946 -13290361.04061
  19505760.6094  -24882150.11847 -19188074.16362
  19631507.828   -18207013.503 7 -14041788.30522
  19008025.8914  -19159837.84747 -14780659.35363
 92  5 10  4 22 14.9920000  0  5G24G17G 3G16G20
  22025864.899     7407216.587 5   5781658.29921
  19916210.9774  -17433409.37446 -13328403.57561
  19496720.4534  -24929647.74147 -19225085.29462
  19633454.649   -18196763.703 7 -14033801.46122
  19009957.164   -19149688.437 7 -14772750.74723
 92  5 10  4 22 29.9920000  0  5G24G17G 3G16G20
  22029501.391     7426323.646 5   5796546.88821
  19906935.4694  -17482161.34446 -13366392.11561
  19487686.0634  -24977116.61647 -19262074.03362
  19635428.859   -18186390.178 7
  19011912.805   -19139409.055 7
 92  5 10  4 22 44.9920000  0  5G24G17G 3G16G20
  22033136.3524    7445434.54845   5811438.45061
  19897667.149   -17530845.338 6 -13404327.68821
  19478659.3054  -25024558.54047 -19299041.77062
  19637425.0864  -18175895.94847
  19013894.305   -19129002.100 7
 92  5 10  4 22 59.9920000  0  5G24G17G 3G16G20
  22036779.859     7464543.980 5   5826328.90321
  19888414.391   -17579465.761 6 -13442213.73721
  19469632.1564  -25071974.83447 -19335989.52862
  19639443.4064  -18165285.50147
  19015898.047   -19118469.396 7
 92  5 10  4 23 14.9920000  0  5G24G17G 3G16G20
  22040410.1254    7483652.63645   5841218.72661
  19879176.859   -17628027.805 6 -13480054.28221
  19460616.2274  -25119366.52647 -19372918.12062
  19641486.414   -18154561.149 7
  19017925.727   -19107812.234 7
 92  5 10  4 23 29.9920000  0  5G24G17G 3G16G20
  22044048.195     7502759.621 5   5856107.26421
  19869945.867   -17676532.805 6 -13517850.36921
  19451605.4304  -25166732.74547 -19409826.85662
  19643548.109   -18143722.030 7
  19019976.953   -19097030.275 7
 92  5 10  4 23 44.9920000  0  5G24G17G 3G16G20
  22047682.9384    7521862.25045   5870992.38661
  19860721.188   -17724985.347 6 -13555605.58921
  19442598.9454  -25214076.00847 -19446717.71162
  19645633.5314  -18132771.14947
  19022051.703   -19086126.419 7
 92  5 10  4 23 59.9920000  0  5G24G17G 3G16G20
  22051316.938     7540964.438 5   5885877.19121
  19851515.7664  -17773382.23146 -13593317.43561
  19433593.4694  -25261391.06047 -19483586.57862
  19647738.8914  -18121702.90147
  19024150.688   -19075096.186 7
 92  5 10  4 24 14.9920000  0  5G24G17G 3G16G20
  22054954.9534    7560064.18345   5900760.08461
  19842318.6254  -17821724.38646 -13630986.64361
  19424597.4144  -25308680.74047 -19520435.67262
  19649867.6804  -18110520.62747
  19026272.914   -19063942.564 7
 92  5 10  4 24 29.9920000  0  4G17G 3G16G20
  19833121.4844  -17870008.53946 -13668610.65661
  19415599.5864  -25355943.33047 -19557263.66862
  19652017.422   -18099220.936 7
  19028417.984   -19052664.471 7
 92  5 10  4 24 44.9920000  0  4G17G 3G16G20
  19823949.7424  -17918235.59146 -13706190.17761
  19406610.7894  -25403178.62247 -19594070.38462
  19654190.0704  -18087804.63147
  19030588.734   -19041262.153 7
 92  5 10  4 24 59.9920000  0  4G17G 3G16G20
  19814782.9844  -17966407.48646 -13743726.70561
  19397625.8134  -25450387.56347 -19630856.56962
  19656382.828   -18076276.434 7
  19032782.594   -19029737.194 7
 92  5 10  4 25 14.9920000  0  4G17G 3G16G20
  19805628.2424  -18014516.48846 -13781214.23561
  19388648.8754  -25497564.46347 -19667617.79062
  19658599.164   -18064632.015 7
  19035000.477   -19018083.865 7
 92  5 10  4 25 29.9920000  0  4G17G 3G16G20
  19796489.258   -18062560.818 6 -13818651.37821
  19379677.1644  -25544711.76347 -19704355.93462
  19660838.141   -18052872.511 7
  19037239.664   -19006305.330 7
 92  5 10  4 25 44.9920000  0  4G17G 3G16G20
  19787353.875   -18110535.503 6 -13856034.22921
  19370714.0634  -25591829.55547 -19741071.08762
  19663096.242   -18040998.559 7
  19039506.703   -18994402.122 7
 92  5 10  4 25 59.9920000  0  4G17G 3G16G20
  19778239.899   -18158439.699 6 -13893362.16221
  19361749.2424  -25638919.19447 -19777764.31962
  19665375.5244  -18029011.86947
  19041795.211   -18982376.135 7
 92  5 10  4 26 14.9920000  0  4G17G 3G16G20
  19769138.8994  -18206273.84446 -13930635.51361
  19352794.3204  -25685981.25247 -19814436.04562
  19667679.664   -18016914.376 7
  19044107.617   -18970228.358 7
 92  5 10  4 26 29.9920000  0  4G17G 3G16G20
  19760047.0784  -18254036.44046 -13967853.12661
  19343839.8054  -25733014.33947 -19851085.21162
  19670002.227   -18004707.510 7
  19046441.945   -18957957.778 7
 92  5 10  4 26 44.9920000  0  4G17G 3G16G20
  19750970.7424  -18301731.68846 -14005018.23761
  19334895.5004  -25780021.43147 -19887714.11062
  19672344.891   -17992395.464 7
  19048799.633   -18945568.171 7
 92  5 10  4 26 59.9920000  0  4G17G 3G16G20
  19741908.8994  -18349359.34746 -14042130.69661
  19325957.0004  -25827002.80547 -19924322.97862
  19674705.266   -17979979.966 7 -13864879.33322
  19051180.578   -18933060.248 7 -14603950.27922
 92  5 10  4 27 14.9920000  0  4G17G 3G16G20
  19732860.3524  -18396916.05246 -14079187.87461
  19317024.5634  -25873954.89647 -19960909.01962
  19677090.242   -17967457.989 7 -13855121.96822
  19053584.242   -18920430.898 7 -14594109.27322
 92  5 10  4 27 29.9920000  0  4G17G 3G16G20
  19723826.6954  -18444401.66646 -14116189.64561
  19308098.0244  -25920875.90647 -19997470.83862
  19679495.500   -17954825.161 7 -13845278.22222
  19056010.453   -18907678.789 7 -14584172.62322
 92  5 10  4 27 44.9920000  0  4G17G 3G16G20
  19714802.172   -18491822.569 6 -14153140.98621
  19299170.5864  -25967769.78347 -20034011.51562
  19681920.813   -17942086.843 7 -13835352.28022
  19058457.6954  -18894808.30047 -14574143.73162
 92  5 10  4 27 59.9920000  0  4G17G 3G16G20
  19705785.789   -18539179.265 6 -14190042.29521
  19290247.6334  -26014633.65547 -20070528.82262
  19684364.102   -17929241.306 7 -13825342.79222
  19060930.3134  -18881817.06347 -14564020.74962
 92  5 10  4 28 14.9920000  0  4G17G 3G16G20
  19696786.258   -18586477.108 6 -14226897.74321
  19281340.9144  -26061468.36147 -20107023.38862
  19686831.617   -17916291.065 7 -13815251.71322
  19063423.7424  -18868706.24647 -14553804.59762
 92  5 10  4 28 29.9920000  0  5G23G17G 3G16G20
  21958632.8524         -0.86254
  19687799.4064  -18633714.64946 -14263706.20661
  19272431.7894  -26108272.89347 -20143494.44562
  19689311.406   -17903237.541 7 -13805080.16122
  19065941.086   -18855475.474 7 -14543494.94922
 92  5 10  4 28 44.9920000  0  5G23G17G 3G16G20
  21944824.9304     -72586.79445
  19678820.2504  -18680894.54346 -14300469.75261
  19263534.7744  -26155049.00747 -20179943.36062
  19691817.164   -17890080.793 7 -13794828.16922
  19068481.3284  -18842127.08747 -14533093.67462
 92  5 10  4 28 59.9920000  0  5G23G17G 3G16G20
  21931018.0784    -145132.56545
  19669849.0244  -18728016.81046 -14337188.40261
  19254637.4454  -26201795.19247 -20216368.95662
  19694340.664   -17876818.681 7 -13784494.07622
  19071048.0004  -18828659.91947 -14522599.84662
 92  5 10  4 29 14.9920000  0  5G23G17G 3G16G20
  21917219.086     -217632.678 4
  19660891.219   -18775079.101 6 -14373860.32021
  19245757.8914  -26248507.40347 -20252768.07662
  19696883.242   -17863448.719 7 -13774075.94422
  19073633.5004  -18815070.53547 -14512010.77662
 92  5 10  4 29 29.9920000  0  5G23G17G 3G16G20
  21903432.5004    -290085.74645
  19651954.9384  -18822082.68646 -14410486.48161
  19236865.0944  -26295185.13747 -20289140.32762
  19699447.156   -17849970.619 7 -13763573.54822
  19076242.7504  -18801358.87647 -14501326.43062
 92  5 10  4 29 44.9920000  0  5G23G17G 3G16G20
  21889650.727     -362497.405 5        -0.11631
  19643021.0164  -18869030.71146 -14447069.36361
  19227991.836   -26341831.117 7 -20325487.83022
  19702035.031   -17836385.166 7 -13752987.49922
  19078872.2194  -18787528.07547 -14490549.25062
 92  5 10  4 29 59.9920000  0  5G23G17G 3G16G20
  21875881.172     -434870.102 5    -56394.17321
  19634095.149   -18915923.053 6 -14483608.85121
  19219122.024   -26388446.683 7 -20361811.62922
  19704640.195   -17822692.996 7 -13742318.29422
  19081526.8054  -18773580.00147 -14479680.67962
 92  5 10  4 30 14.9920000  0  5G23G17G 3G16G20
  21862117.2344    -507200.42544   -112755.14061
  19625180.7034  -18962756.21246 -14520102.21261
  19210256.6954  -26435029.52547 -20398109.93862
  19707267.719   -17808888.776 7 -13731561.77622
  19084202.781   -18759512.848 7 -14468719.33722
 92  5 10  4 30 29.9920000  0  5G23G17G 3G16G20
  21848359.1024    -579491.88843   -169085.76561
  19616282.594   -19009530.137 6 -14556549.41021
  19201394.9694  -26481582.20747 -20434384.74662
  19709916.211   -17794974.953 7 -13720719.85322
  19086903.649   -18745329.749 7 -14457667.66022
 92  5 10  4 30 44.9920000  0  5G23G17G 3G16G20
  21834611.7744    -651742.26244
  19607393.055   -19056243.956 6 -14592949.77421
  19192544.5394  -26528103.90547 -20470635.41562
  19712582.039   -17780947.157 7 -13709789.11522
  19089626.0864  -18731030.39147 -14446525.36562
 92  5 10  4 30 59.9920000  0  5G23G17G 3G16G20
  21820872.2814    -723954.29145
  19598515.8524  -19102899.38646 -14629304.65461
  19183695.5314  -26574594.41147 -20506861.77562
  19715273.9224  -17766803.54047 -13698768.12762
  19092368.1884  -18716615.10947 -14435292.73662
 92  5 10  4 31 14.9920000  0  5G23G17G 3G16G20
  21807135.1564    -796128.02845
  19589649.9454  -19149487.41646 -14665607.01161
  19174857.3834  -26621047.69847 -20543059.13562
  19717991.6174  -17752538.86047 -13687652.80562
  19095133.3754  -18702078.32847 -14423965.44162
 92  5 10  4 31 29.9920000  0  5G23G17G 3G16G20
  21793406.563     -868269.847 5
  19580798.3444  -19196008.61046
  19166023.4924  -26667466.61447
  19720728.4924  -17738154.91747 -13676444.54862
  19097921.984   -18687423.218 7 -14412545.93422
 92  5 10  4 31 44.9920000  0  5G23G17G 3G16G20
  21779679.9534    -940386.08344
  19571961.0474  -19242467.75946
  19157193.4694  -26713857.51947
  19723486.6254  -17723657.35247 -13665147.75462
  19100730.9384  -18672656.77047 -14401039.67362
 92  5 10  4 31 59.9920000  0  5G23G17G 3G16G20
  21765965.219    -1012473.219 4        -0.28531
  19563130.891   -19288860.601 6
  19148381.0394  -26760218.20847
  19726264.7114  -17709047.35147 -13653763.35062
  19103564.8444  -18657777.44447 -14389445.45862
 92  5 10  4 32 14.9920000  0  5G23G17G 3G16G20
  21752257.375    -1084526.680 4    -56145.29521
  19554316.461   -19335181.318 6
  19139556.9774  -26806544.85047
  19729065.250   -17694327.269 7 -13642293.16522
  19106420.3994  -18642781.73147 -14377760.55062
 92  5 10  4 32 29.9920000  0  5G23G17G 3G16G20
  21738547.1094   -1156549.43143   -112266.69861
  19545514.313   -19381433.595 6
  19130745.9614  -26852837.53647
  19731888.7814  -17679500.23147 -13630739.63962
  19109293.4304  -18627670.43847 -14365985.58562
 92  5 10  4 32 44.9920000  0  5G23G17G 3G16G20
  21724847.9144   -1228536.67045   -168360.47861
  19536725.016   -19427615.645 6
  19121946.5474  -26899092.05447
  19734733.3994  -17664565.03847 -13619101.83262
  19112192.0084  -18612439.98147 -14354117.75962
 92  5 10  4 32 59.9920000  0  5G23G17G 3G16G20
  21711156.5554   -1300493.79145   -224431.04961
  19527952.149   -19473732.391 6 -14918265.31821
  19113155.430   -26945311.298 7 -20795732.05722
  19737591.4694  -17649527.19647 -13607384.04362
  19115110.5864  -18597093.48447 -14342159.50662
 92  5 10  4 33 14.9920000  0  5G23G17G 3G16G20
  21697467.609    -1372424.781 5   -280480.99521
  19519185.3754  -19519786.43746 -14954151.58161
  19104362.0554  -26991498.48247 -20831722.06462
  19740472.0004  -17634394.25847 -13595592.15062
  19118055.1884  -18581634.81047 -14330113.84062
 92  5 10  4 33 29.9920000  0  5G23G17G 3G16G20
  21683784.524    -1444332.664 5
  19510431.9384  -19565782.10146 -14989992.35361
  19095585.1254  -27037657.78447 -20867690.34262
  19743368.2424  -17619170.59647 -13583729.56562
  19121018.2894  -18566068.55047 -14317984.35862
 92  5 10  4 33 44.9920000  0  5G23G17G 3G16G20
  21670104.883    -1516203.468 4
  19501686.9144  -19611713.16946 -15025782.78561
  19086801.5244  -27083780.18347 -20903629.87362
  19746283.1804  -17603847.96747 -13571789.86162
  19123998.8994  -18550386.26447 -14305764.44962
 92  5 10  4 33 59.9920000  0  5G23G17G 3G16G20
  21656435.766    -1588034.759 5
  19492959.4614  -19657583.03946 -15061525.52661
  19078032.2274  -27129866.21847 -20939541.06462
  19749223.1494  -17588428.60847 -13559774.78562
  19127004.3284  -18534589.18247 -14293455.10462
 92  5 10  4 34 14.9920000  0  5G23G17G 3G16G20
  21642780.070    -1659827.414 5        -0.25531
  19484246.516   -19703393.643 6 -15097222.08321
  19069271.156   -27175914.791 7 -20975423.05422
  19752171.7344  -17572912.00347 -13547683.92562
  19130035.1804  -18518676.85047 -14281055.94362
 92  5 10  4 34 29.9920000  0  5G23G17G 3G16G20
  21629121.375    -1731585.114 5
  19475537.0704  -19749150.22146 -15132876.55661
  19060514.6414  -27221927.65547 -21011277.22362
  19755140.3834  -17557295.88447 -13535515.53362
  19133086.0784  -18502651.23247 -14268568.50762
 92  5 10  4 34 44.9920000  0  5G23G17G 3G16G20
  21615474.742    -1803307.316 5
  19466844.984   -19794850.548 6 -15168487.18621
  19051763.4774  -27267903.43947 -21047102.49862
  19758136.4614  -17541576.65147 -13523266.78662
  19136154.977   -18486511.440 7 -14255992.10122
 92  5 10  4 34 59.9920000  0  5G23G17G 3G16G20
  21601831.7034   -1874987.60345
  19458156.047   -19840484.201 6 -15204045.86021
  19043027.7504  -27313836.72347 -21082894.66262
  19761146.7664  -17525750.92947 -13510935.06862
  19139248.3994  -18470252.68447 -14243323.00162
 92  5 10  4 35 14.9920000  0  5G23G17G 3G16G20
  21588198.0084   -1946631.30744
  19449485.9064  -19886056.53346 -15239556.76261
  19034281.9534  -27359734.67447 -21118659.28862
  19764175.719   -17509823.837 7 -13498524.35622
  19142367.5704  -18453882.61147 -14230567.15962
 92  5 10  4 35 29.9920000  0  5G23G17G 3G16G20
  21574571.7114   -2018240.99345        -0.28571
  19440824.2814  -19931571.81946 -15275023.21262
  19025556.617   -27405603.277 7 -21154401.04122
  19767226.8364  -17493800.22847 -13486038.43162
  19145501.3524  -18437407.91847 -14217729.80062
 92  5 10  4 35 44.9920000  0  5G23G17G 3G16G20
  21560953.914    -2089809.071 4    -55767.51621
  19432178.7034  -19977022.15646 -15310439.05162
  19016840.2894  -27451434.85247 -21190113.95462
  19770296.625   -17477671.643 7 -13473470.71622
  19148653.094   -18420821.440 7 -14204805.33022
 92  5 10  4 35 59.9920000  0  5G23G17G 3G16G20
  21547338.227    -2161336.782 3   -111503.38121
  19423541.539   -20022407.682 6 -15345804.38521
  19008124.414   -27497228.895 7 -21225797.60722
  19773383.8674  -17461440.23147 -13460822.86862
  19151832.8994  -18404123.21047 -14191793.78762
 92  5 10  4 36 14.9920000  0  5G23G17G 3G16G20
  21533736.9614   -2232829.57545
  19414911.516   -20067730.810 6 -15381121.09521
  18999420.3914  -27542988.96447 -21261454.79962
  19776490.1024  -17445111.14947 -13448098.92062
  19155033.0704  -18387317.34147 -14178698.37262
 92  5 10  4 36 29.9920000  0  5G23G17G 3G16G20
  21520139.1414   -2304287.50844
  19406303.7034  -20112988.50446 -15416386.82462
  18990717.039   -27588714.541 7 -21297085.11222
  19779619.531   -17428683.118 7 -13435297.87022
  19158248.5004  -18370403.87247 -14165519.10762
 92  5 10  4 36 44.9920000  0  5G23G17G 3G16G20
  21506548.1334   -2375698.35944
  19397705.4224  -20158170.38746 -15451593.47661
  18982023.9064  -27634397.25647 -21332682.02862
  19782764.1644  -17412146.86647 -13422412.48862
  19161491.203   -18353374.625 7 -14152249.63522
 92  5 10  4 36 59.9920000  0  5G23G17G 3G16G20
  21492969.0634   -2447062.50745
  19389117.617   -20203281.262 6 -15486744.79021
  18973338.547   -27680042.275 7 -21368249.56222
  19785929.133   -17395508.965 7 -13409447.90122
  19164753.664   -18336235.586 7 -14138894.62022
 92  5 10  4 37 14.9920000  0  5G23G17G 3G16G20
  21479396.594    -2518384.082 5
  19380547.5634  -20248329.07146 -15521846.97261
  18964655.9304  -27725653.58947 -21403790.83662
  19789116.6644  -17378772.20747 -13396406.28062
  19168033.031   -18318991.287 7 -14125457.57622
 92  5 10  4 37 29.9920000  0  5G23G17G 3G16G20
  21465831.274    -2589655.120 3
  19371986.9224  -20293310.05646 -15556897.07861
  18955986.6564  -27771223.45347 -21439299.80862
  19792322.1804  -17361929.46147 -13383282.07362
  19171336.3674  -18301634.58747 -14111932.93562
 92  5 10  4 37 44.9920000  0  5G23G17G 3G16G20
  21452282.836    -2660880.584 4
  19363438.242   -20338228.218 6 -15591898.23021
  18947325.1094  -27816753.35547 -21474777.64662
  19795543.3054  -17344985.48147 -13370078.98162
  19174662.0314  -18284167.61547 -14098322.37862
 92  5 10  4 37 59.9920000  0  5G23G17G 3G16G20
  21438735.195    -2732066.614 5
  19354902.734   -20383091.626 6 -15626856.71721
  18938662.9534  -27862248.75147 -21510228.59662
  19798789.0784  -17327946.74547 -13356802.04862
  19178004.000   -18266596.154 7 -14084630.40622
 92  5 10  4 38 14.9920000  0  5G23G17G 3G16G20
  21425196.234    -2803211.415 5
  19346375.4694  -20427897.13346 -15661770.09061
  18930014.1024  -27907706.10847 -21545649.90662
  19802047.7114  -17310809.58547 -13343448.42662
  19181369.5944  -18248917.32447 -14070854.75762
 92  5 10  4 38 29.9920000  0  5G23G17G 3G16G20
  21411672.5864   -2874308.14243
  19337866.1884  -20472639.48146 -15696634.25161
  18921369.8204  -27953121.47747 -21581038.49062
  19805329.2034  -17293568.64947 -13330013.93662
  19184755.9454  -18231127.52647 -14056992.64462
 92  5 10  4 38 44.9920000  0  5G23G17G 3G16G20
  21398146.336    -2945357.750 5
  19329358.2194  -20517321.72346 -15731451.57061
  18912739.3994  -27998495.74047 -21616395.05562
  19808630.6954  -17276224.64047 -13316499.13162
  19188160.5944  -18213228.54847 -14043045.45162
 92  5 10  4 38 59.9920000  0  5G23G17G 3G16G20
  21384633.492    -3016367.524 5
  19320865.7114  -20561949.50446 -15766226.45962
  18904113.0164  -28043833.87647 -21651723.46962
  19811949.2344  -17258786.73147 -13302911.15662
  19191586.7664  -18195225.78747 -14029017.38762
 92  5 10  4 39 14.9920000  0  5G23G17G 3G16G20
  21371127.461    -3087337.515 5
  19312382.9924  -20606518.79846 -15800955.76862
  18895492.961   -28089132.094 7 -21687020.75522
  19815283.7974  -17241255.32747 -13289250.33662
  19195031.7034  -18177115.89847 -14014905.85062
 92  5 10  4 39 29.9920000  0  5G23G17G 3G16G20
  21357628.7344   -3158274.43145
  19303913.4614  -20651034.61146 -15835643.41061
  18886877.016   -28134397.364 7 -21722292.37422
  19818638.4384  -17223638.70447 -13275523.10462
  19198496.3834  -18158906.42147 -14000716.71062
 92  5 10  4 39 44.9920000  0  5G23G17G 3G16G20
  21344139.3054   -3229170.84645        -0.15571
  19295454.4144  -20695490.76746 -15870284.56162
  18878269.8674  -28179622.25347 -21757532.53862
  19822005.055   -17205930.179 7 -13261724.26622
  19201983.9614  -18140590.93347 -13986444.96362
 92  5 10  4 39 59.9920000  0  5G23G17G 3G16G20
  21330653.1094   -3300021.79645    -55208.71961
  19287012.4304  -20739881.14147 -15904874.46462
  18869670.8994  -28224802.05347 -21792737.56462
  19825397.6564  -17188123.17147 -13247848.68662
  19205488.5944  -18122165.00447 -13972087.16262
 92  5 10  4 40 14.9920000  0  5G23G17G 3G16G20
  21317179.8524   -3370833.13845   -110386.30261
  19278570.4064  -20784214.10647 -15939419.63162
  18861080.102   -28269946.227 7 -21827914.83622
  19828799.5084  -17170227.54047 -13233904.04962
  19209013.2584  -18103638.60547 -13957651.07062
 92  5 10  4 40 29.9920000  0  5G23G17G 3G16G20
  21303715.344    -3441599.025 6   -165528.60121
  19270152.3284  -20828481.93346 -15973914.03761
  18852500.078   -28315049.667 7 -21863060.35422
  19832221.5634  -17152237.65747 -13219885.97162
  19212560.8674  -18085006.98547 -13943132.99562
 92  5 10  4 40 44.9920000  0  5G23G17G 3G16G20
  21290255.422    -3512322.286 5   -220637.68721
  19261734.6334  -20872691.86547 -16008363.32662
  18843923.039   -28360117.543 7 -21898178.15122
  19835664.789   -17134159.917 7 -13205799.43722
  19216122.7424  -18066275.97747 -13928537.46762
 92  5 10  4 40 59.9920000  0  5G23G17G 3G16G20
  21276806.711    -3582995.717 5   -275707.96621
  19253337.4304  -20916835.17147 -16042760.70162
  18835354.609   -28405140.706 7 -21933261.11522
  19839120.774   -17115987.230 7 -13191638.91622
  19219711.9064  -18047436.98947 -13913857.79762
 92  5 10  4 41 14.9920000  0  5G23G17G 3G16G20
  21263363.984    -3653622.298 5   -330741.58721
  19244944.4534  -20960914.81647 -16077108.46862
  18826797.2504  -28450121.84347 -21968311.35162
  19842600.945   -17097721.721 7 -13177406.06822
  19223314.8204  -18028493.26547 -13899096.52262
 92  5 10  4 41 29.9920000  0  5G23G17G 3G16G20
  21249939.094    -3724197.565 5   -385735.51721
  19236573.594   -21004930.454 7 -16111406.35421
  18818244.9844  -28495058.16247 -22003326.65462
  19846090.430   -17079356.317 7 -13163095.37922
  19226942.4774  -18009442.70947 -13884251.99462
 92  5 10  4 41 44.9920000  0  5G23G17G 3G16G20
  21236517.477    -3794727.838 5   -440693.96221
  19228207.7194  -21048889.90947 -16145660.45962
  18809701.359   -28539956.527 7 -22038312.37122
  19849605.953   -17060896.754 7 -13148711.31822
  19230584.492   -17990292.990 7 -13869330.20322
 92  5 10  4 41 59.9910000  0  5G23G17G 3G16G20
  21223102.495    -3865210.841 5   -495615.81921
  19219851.1284  -21092787.16347 -16179866.10262
  18801169.0504  -28584812.72247 -22073265.24962
  19853132.245   -17042344.645 7 -13134255.14822
  19234247.917   -17971044.363 7 -13854331.32222
 92  5 10  4 42 14.9910000  0  5G23G17G 3G16G20
  21209696.636    -3935654.785 5   -550507.28321
  19211514.433   -21136626.401 7 -16214026.53722
  18792635.769   -28629632.316 7 -22108189.59522
  19856685.1444  -17023699.52847 -13119726.49362
  19237928.4954  -17951694.58347 -13839253.63562
 92  5 10  4 42 29.9910000  0  5G23G17G 3G16G20
  21196300.667    -4006049.155 3
  19203178.0894  -21180396.50947 -16248133.10862
  18784116.6444  -28674404.97147 -22143077.37062
  19860251.784   -17004956.320 7 -13105121.41222
  19241631.4874  -17932238.07847 -13824092.78762
 92  5 10  4 42 44.9910000  0  5G23G17G 3G16G20
  21182913.6674   -4076403.84945
  19194861.1984  -21224105.55847 -16282192.09562
  18775605.4014  -28719139.13747 -22177935.14563
  19863834.370   -16986123.616 7 -13090446.59322
  19245352.5424  -17912683.96047 -13808855.87562
 92  5 10  4 42 59.9910000  0  5G23G17G 3G16G20
  21169532.5114   -4146720.96445
  19186559.7534  -21267756.54147 -16316205.83762
  18767096.2924  -28763835.23147 -22212763.25862
  19867434.519   -16967204.697 7 -13075704.59122
  19249092.378   -17893033.142 7 -13793543.61022
 92  5 10  4 43 14.9910000  0  5G23G17G 3G16G20
  21156162.6834   -4216996.81645
  19178258.8004  -21311344.68746 -16350170.61462
  18758599.9564  -28808489.67847 -22247558.92662
  19871053.620   -16948195.850 7 -13060892.51922
  19252849.816   -17873282.622 7 -13778153.64122
 92  5 10  4 43 29.9910000  0  5G23G17G 3G16G20
  21142799.612    -4287228.346 5        -0.08831
  19169979.0194  -21354868.71347 -16384085.43262
  18750112.6514  -28853101.60847 -22282321.46362
  19874684.8474  -16929096.63647 -13046010.02562
  19256627.355   -17853432.160 7 -13762685.79822
 92  5 10  4 43 44.9910000  0  5G23G17G 3G16G20
  21129438.714    -4357411.456 5
  19161715.511   -21398322.570 7 -16417945.56922
  18741629.214   -28897667.059 7 -22317047.77723
  19878337.6204  -16909904.08047 -13031054.79862
  19260425.620   -17833478.413 7 -13747137.47422
 92  5 10  4 43 59.9910000  0  5G23G17G 3G16G20
  21116095.050    -4427546.777 5
  19153457.1834  -21441708.97047 -16451753.14962
  18733155.7534  -28942188.60147 -22351739.87662
  19882007.3554  -16890624.11447 -13016031.45662
  19264241.308   -17813424.471 7 -13731511.08222
 92  5 10  4 44 14.9910000  0  5G23G17G 3G16G20
  21102758.894    -4497632.124 5
  19145211.8394  -21485031.24347 -16485510.75862
  18724696.7844  -28986667.04247 -22386398.39862
  19885693.5194  -16871255.31147 -13000938.88962
  19268076.214   -17793271.610 7 -13715807.60522
 92  5 10  4 44 29.9910000  0  5G23G17G 3G16G20
  21089431.2454   -4567671.81846
  19136977.112   -21528299.220 7 -16519226.05322
  18716239.4014  -29031108.67947 -22421028.23762
  19889395.8314  -16851802.09947 -12985780.54862
  19271928.386   -17773026.699 7 -13700032.40422
 92  5 10  4 44 44.9910000  0  5G23G17G 3G16G20
  21076113.1284   -4637659.52545        -0.21571
  19128752.4484  -21571503.01647 -16552891.34862
  18707790.4334  -29075505.51847 -22455623.16562
  19893112.1984  -16832255.88747 -12970549.74362
  19275798.909   -17752682.537 7 -13684179.86922
 92  5 10  4 44 59.9910000  0  5G23G17G 3G16G20
  21062804.0974   -4707595.04545    -54495.69761
  19120548.0424  -21614646.24647 -16586509.44362
  18699349.089   -29119858.062 7 -22490183.58222
  19896850.3234  -16812618.53647 -12955247.91562
  19279689.597   -17732240.240 7 -13668250.85822
 92  5 10  4 45 14.9910000  0  5G23G17G 3G16G20
  21049505.4564   -4777478.01646   -108950.12661
  19112349.2844  -21657732.44847 -16620083.10062
  18690920.776   -29164168.576 7 -22524711.24122
  19900607.3624  -16792889.76147 -12939874.85062
  19283598.933   -17711702.602 7 -13652247.55522
 92  5 10  4 45 29.9910000  0  5G23G17G 3G16G20
  21036219.487    -4847297.599 5   -163355.16221
  19104160.4804  -21700749.47447 -16653602.85362
  18682496.4644  -29208426.50847 -22559197.92963
  19904376.1124  -16773058.64547 -12924422.03662
  19287527.253   -17691059.529 7 -13636162.09222
 92  5 10  4 45 44.9910000  0  5G23G17G 3G16G20
  21022943.792    -4917064.570 6
  19095983.7224  -21743705.84047 -16687075.34162
  18674081.0814  -29252640.54347 -22593650.41862
  19908169.3554  -16753135.96547 -12908897.87362
  19291473.761   -17670320.283 7 -13620001.69022
 92  5 10  4 45 59.9910000  0  5G23G17G 3G16G20
  21009679.409    -4986778.035 6
  19087823.4804  -21786602.15347 -16720501.03062
  18665676.1444  -29296808.36047 -22628066.89362
  19911978.8084  -16733120.97447 -12893301.78262
  19295438.464   -17649483.391 7 -13603765.19722
 92  5 10  4 46 14.9910000  0  5G23G17G 3G16G20
  20996422.1284   -5056436.07445
  19079673.2224  -21829439.03447 -16753880.41562
  18657280.8944  -29340928.61847 -22662446.30262
  19915807.3554  -16713012.84347 -12877633.11262
  19299421.4644  -17628547.84047 -13587451.81862
 92  5 10  4 46 29.9910000  0  5G23G17G 3G16G20
  20983175.7534   -5126046.40045
  19071537.362   -21872219.279 7 -16787215.66222
  18648893.0974  -29385006.10247 -22696792.39162
  19919647.5814  -16692818.38747 -12861897.17862
  19303425.5114  -17607519.13347 -13571065.85162
 92  5 10  4 46 44.9910000  0  5G23G17G 3G16G20
  20969939.2304   -5195606.11745
  19063402.3624  -21914933.47847 -16820499.44862
  18640512.7224  -29429034.29447 -22731100.06262
  19923508.4014  -16672535.55447 -12846092.37961
  19307443.0584  -17586391.50047 -13554602.80862
 92  5 10  4 46 59.9910000  0  5G23G17G 3G16G20
  20956712.5424   -5265119.50345
  19055284.0814  -21957588.12547 -16853736.82462
  18632147.2534  -29473017.66847 -22765372.81462
  19927382.3084  -16652172.37147 -12830224.96961
  19311483.6754  -17565169.84047 -13538066.49062
 92  5 10  4 47 14.9910000  0  5G23G17G 3G16G20
  20943495.9334   -5334586.15245
  19047180.7374  -22000189.41747 -16886932.62862
  18623785.8234  -29516957.68647 -22799611.78563
  19931273.3004  -16631731.90947 -12814297.34162
  19315536.7844  -17543856.35047 -13521458.61562
 92  5 10  4 47 29.9910000  0  5G23G17G 3G16G20
  20930290.1834   -5404005.26643
  19039083.175   -22042734.765 7 -16920084.84122
  18615433.847   -29560853.912 7 -22833816.62622
  19935177.1984  -16611215.30947 -12798310.38361
  19319612.941   -17522450.912 7 -13504779.10422
 92  5 10  4 47 44.9910000  0  5G23G17G 3G16G20
  20917082.4414   -5473379.82246
  19030999.7144  -22085224.93347 -16953194.05262
  18607089.2764  -29604705.69147 -22867986.83262
  19939092.6364  -16590625.25646 -12782266.19462
  19323703.066   -17500953.701 7 -13488028.08022
 92  5 10  4 47 59.9910000  0  5G23G17G 3G16G20
  20903887.0584   -5542707.96045
  19022925.550   -22127657.372 7 -16986258.28122
  18598750.3234  -29648510.19947 -22902120.21962
  19943028.4014  -16569958.23247 -12766162.02462
  19327811.6674  -17479362.45047 -13471203.76862
 92  5 10  4 48 14.9910000  0  5G23G17G 3G16G20
  20890704.401    -5611983.680 5
  19014862.136   -22170028.806 7 -17019274.96422
  18590420.7694  -29692264.40847 -22936214.39762
  19946976.1054  -16549209.55147 -12749994.23061
  19331941.0584  -17457674.89147 -13454304.41262
 92  5 10  4 48 29.9910000  0  5G23G17G 3G16G20
  20877532.1834   -5681210.91745
  19006811.3474  -22212341.20247 -17052245.65262
  18582103.6914  -29735972.79447 -22970272.87263
  19950940.8864  -16528381.29047 -12733764.42461
  19336082.5974  -17435895.79147 -13437333.72662
 92  5 10  4 48 44.9910000  0  5G23G17G 3G16G20
  20864365.8624   -5750394.04943
  18998766.8004  -22254601.31747 -17085175.60562
  18573795.487   -29779640.469 7 -23004299.62222
  19954919.5894  -16507479.11347 -12717477.02462
  19340243.4094  -17414031.05947 -13420296.31662
 92  5 10  4 48 59.9910000  0  5G23G17G 3G16G20
  20851212.8944   -5819526.68846
  18990734.691   -22296805.297 7 -17118061.80422
  18565497.941   -29823263.361 7 -23038291.46322
  19958910.6754  -16486497.37747 -12701127.62961
  19344421.3554  -17392077.16547 -13403189.42062
 92  5 10  4 49 14.9910000  0  5G23G17G 3G16G20
  20838068.839    -5888605.635 5
  18982711.7844  -22338951.92047 -17150903.32362
  18557205.1054  -29866838.95347 -23072246.47162
  19962918.9804  -16465431.87347 -12684712.95762
  19348616.9014  -17370032.11247 -13386011.49562
 92  5 10  4 49 29.9910000  0  5G23G17G 3G16G20
  20824934.097    -5957626.596 5
  18974704.3624  -22381032.97747 -17183693.74762
  18548918.3084  -29910362.99447 -23106161.30262
  19966944.5734  -16444275.84847 -12668227.75261
  19352830.5344  -17347892.47847 -13368759.87162
 92  5 10  4 49 44.9910000  0  5G23G17G 3G16G20
  20811807.2304   -6026590.84945
  18966712.2454  -22423045.31047 -17216430.61762
  18540647.597   -29953835.729 7 -23140036.14222
  19970987.4334  -16423029.71847 -12651672.34061
  19357062.5814  -17325658.99947 -13351435.11662
 92  5 10  4 49 59.9910000  0  5G23G17G 3G16G20
  20798697.503    -6095499.395 5
  18958728.644   -22464990.389 7 -17249115.08522
  18532383.7064  -29997259.24147 -23173872.64062
  19975048.4484  -16401695.37047 -12635048.18361
  19361307.9644  -17303334.17447 -13334039.18062
 92  5 10  4 50 14.9910000  0  5G23G17G 3G16G20
  20785595.730    -6164352.702 5
  18950756.628   -22506870.425 7 -17281748.86322
  18524133.1444  -30040634.03847 -23207671.17262
  19979120.9484  -16380272.17347 -12618354.79261
  19365574.7764  -17280919.43547 -13316573.18662
 92  5 10  4 50 29.9910000  0  5G23G17G 3G16G20
  20772499.2764   -6233151.83645        -0.30471
  18942799.3084  -22548687.68347 -17314333.73062
  18515884.1984  -30083961.01147 -23241432.43863
  19983215.3394  -16358761.74046 -12601593.42761
  19369857.3474  -17258416.30347 -13299038.31362
 92  5 10  4 50 44.9910000  0  5G23G17G 3G16G20
  20759422.2924   -6301896.17446    -53567.12461
  18934857.3004  -22590442.83047 -17346870.18462
  18507651.800   -30127238.507 7 -23275155.14222
  19987328.175   -16337165.970 6 -12584765.57121
  19374155.2614  -17235823.43847 -13281433.52062
 92  5 10  4 50 59.9910000  0  5G23G17G 3G16G20
  20746350.3704   -6370585.65645
  18926922.589   -22632132.763 7 -17379355.82822
  18499427.995   -30170463.970 7 -23308837.30622
  19991454.1834  -16315483.20446 -12567869.92261
  19378473.6364  -17213139.05147 -13263757.40761
 92  5 10  4 51 14.9910000  0  5G23G17G 3G16G20
  20733288.6984   -6439220.54546
  18919002.526   -22673756.471 7 -17411789.86722
  18491210.3944  -30213635.43247 -23342477.40062
  19995597.698   -16293712.194 6 -12550905.51521
  19382806.1674  -17190361.83647 -13246008.96761
 92  5 10  4 51 29.9910000  0  5G23G17G 3G16G20
  20720237.9484   -6507807.21745
  18911092.245   -22715320.304 7 -17444177.25322
  18483007.651   -30256757.934 7 -23376079.33322
  19999755.245   -16271856.272 6 -12533874.93621
  19387158.3554  -17167497.43547 -13228192.58461
 92  5 10  4 51 44.9910000  0  5G23G17G 3G16G20
  20707193.112    -6576343.618 5        -0.32131
  18903194.909   -22756824.500 7 -17476518.16522
  18474811.3624  -30299830.43647 -23409642.31662
  20003929.214   -16249916.267 6 -12516778.84721
  19391526.6284  -17144545.33347 -13210307.86962
 92  5 10  4 51 59.9910000  0  5G23G17G 3G16G20
  20694163.6984   -6644825.78145    -53362.85261
  18895308.605   -22798268.436 7 -17508812.12422
  18466621.1914  -30342848.74247 -23443163.06362
  20008122.644   -16227889.743 6 -12499615.34021
  19395909.136   -17121501.940 7 -13192352.02021
 92  5 10  4 52 14.9910000  0  5G23G17G 3G16G20
  20681142.245    -6713258.532 5   -106686.96021
  18887429.792   -22839658.681 7 -17541064.24922
  18458445.6054  -30385818.12547 -23476645.68762
  20012328.917   -16205781.083 6 -12482387.82621
  19400311.6984  -17098373.41247 -13174329.82961
 92  5 10  4 52 29.9910000  0  5G23G17G 3G16G20
  20668127.1364   -6781644.44946   -159974.37361
  18879566.948   -22881000.961 7 -17573278.98922
  18450276.753   -30428743.692 7 -23510094.15922
  20016549.308   -16183597.552 6 -12465101.97921
  19404730.292   -17075165.297 7 -13156245.63321
 92  5 10  4 52 44.9910000  0  5G23G17G 3G16G20
  20655125.1514   -6849972.49045   -213216.88661
  18871705.605   -22922285.413 7 -17605448.67122
  18442119.331   -30471615.932 7 -23543501.07923
  20020789.667   -16161334.405 6 -12447754.09121
  19409160.230   -17051868.651 6 -13138092.44121
 92  5 10  4 52 59.9910000  0  5G23G17G 3G16G20
  20642133.1364   -6918242.54645   -266414.30761
  18863864.683   -22963513.166 7 -17637574.17722
  18433970.753   -30514435.919 7 -23576867.29223
  20025040.683   -16138991.346 6 -12430343.93321
  19413611.347   -17028485.299 7 -13119871.69621
 92  5 10  4 53 14.9910000  0  5G23G17G 3G16G20
  20629152.2694   -6986451.11345   -319563.78361
  18856032.714   -23004683.331 7 -17669654.79722
  18425828.7144  -30557202.30747 -23610191.74562
  20029306.761   -16116567.558 6 -12412870.87321
  19418078.526   -17005014.310 6 -13101582.65821
 92  5 10  4 53 29.9910000  0  5G23G17G 3G16G20
  20616183.542    -7054599.434 3
  18848207.909   -23045802.154 7 -17701695.42122
  18417702.1914  -30599920.02847 -23643478.27462
  20033584.558   -16094072.016 6 -12395341.89521
  19422560.011   -16981461.259 7 -13083229.68321
 92  5 10  4 53 44.9910000  0  5G23G17G 3G16G20
  20603226.1514   -7122685.86845
  18840388.5344  -23086868.16747 -17733694.88562
  18409580.448   -30642589.114 7 -23676726.89923
  20037881.558   -16071507.842 6 -12377759.43421
  19427057.175   -16957826.997 7 -13064813.42121
 92  5 10  4 53 59.9910000  0  5G23G17G 3G16G20
  20590285.128    -7190707.242 5
  18832587.042   -23127876.398 7 -17765649.32822
  18401470.9254  -30685205.01147 -23709934.08362
  20042185.120   -16048872.509 6 -12360121.53521
  19431572.292   -16934107.467 6 -13046330.72321
 92  5 10  4 54 14.9910000  0  5G23G17G 3G16G20
  20577351.3704   -7258661.85345        -0.23371
  18824797.6754  -23168824.54747 -17797556.94662
  18393373.6754  -30727766.43247 -23743098.81963
  20046506.698   -16026164.547 6 -12342427.04521
  19436102.386   -16910302.011 6 -13027781.06721
 92  5 10  4 54 29.9910000  0  5G23G17G 3G16G20
  20564436.0034   -7326548.33146    -52898.68761
  18817015.3004  -23209712.46347 -17829417.63362
  18385286.480   -30770272.517 7 -23776220.42623
  20050844.589   -16003385.317 6 -12324677.01321
  19440645.855   -16886410.589 6 -13009164.42721
 92  5 10  4 54 44.9910000  0  5G23G17G 3G16G20
  20551526.9804   -7394375.63946   -105751.06361
  18809243.9484  -23250546.57347 -17861236.38762
  18377203.9804  -30812729.51547 -23809303.79662
  20055188.0344  -15980540.89346 -12306876.19161
  19445210.456   -16862439.928 6 -12990486.04821
 92  5 10  4 54 59.9910000  0  5G23G17G 3G16G20
  20538632.573    -7462140.871 5   -158555.33321
  18801487.8704  -23291321.53147 -17893009.04562
  18369135.4174  -30855132.15947 -23842344.81163
  20059549.339   -15957623.872 6 -12289018.79721
  19449787.448   -16838385.368 6 -12971742.28121
 92  5 10  4 55 14.9910000  0  5G23G17G 3G16G20
  20525748.761    -7529847.446 5   -211313.79721
  18793740.4644  -23332037.55547 -17924735.79562
  18361077.550   -30897482.438 7 -23875345.01723
  20063924.847   -15934636.886 6 -12271106.88321
  19454379.167   -16814249.472 6 -12952935.13321
 92  5 10  4 55 29.9910000  0  5G23G17G 3G16G20
  20512876.2374   -7597497.81545   -264028.22561
  18786000.6364  -23372693.74547 -17956415.91162
  18353030.761   -30939780.651 7 -23908304.65023
  20068312.316   -15911582.152 6 -12253142.17321
  19458985.3084  -16790033.21146 -12934065.37961
 92  5 10  4 55 44.9910000  0  5G23G17G 3G16G20
  20500010.542    -7665095.452 5   -316701.44621
  18778275.6834  -23413288.41347 -17988048.09262
  18344989.034   -30982027.635 7 -23941224.36223
  20072714.0344  -15888454.97246 -12235121.02761
  19463611.3164  -16765738.22746 -12915134.28161
 92  5 10  4 55 59.9910000  0  5G23G17G 3G16G20
  20487159.8004   -7732637.73746
  18770559.2614  -23453817.32347 -18019629.03562
  18336962.698   -31024219.865 7 -23974101.41223
  20077127.917   -15865248.586 6 -12217038.15921
  19468250.3234  -16741361.55646 -12896139.53061
 92  5 10  4 56 14.9910000  0  5G23G17G 3G16G20
  20474316.417    -7800125.236 5
  18762859.7064  -23494284.64747 -18051161.97662
  18328942.894   -31066358.597 7 -24006936.77922
  20081562.2694  -15841964.55646 -12198894.78961
  19472904.0894  -16716905.01246 -12877082.54061
 92  5 10  4 56 29.9910000  0  5G23G17G 3G16G20
  20461482.425    -7867554.213 6
  18755170.7764  -23534686.86647 -18082644.19162
  18320936.362   -31108440.941 7 -24039728.20222
  20086012.0264  -15818602.89846 -12180690.93761
  19477572.4644  -16692366.11046 -12857961.37361
 92  5 10  4 56 44.9910000  0  5G23G17G 3G16G20
  20448663.7694   -7934928.85045        -0.49371
  18747497.4334  -23575025.84847 -18114077.12762
  18312937.4014  -31150470.94847 -24072478.84063
  20090465.1364  -15795167.58046 -12162429.67561
  19482257.2064  -16667749.63746 -12838779.77161
 92  5 10  4 56 59.9910000  0  5G23G17G 3G16G20
  20435852.3474   -8002243.27746    -52453.07061
  18739833.3944  -23615299.18547 -18145458.91262
  18304947.6204  -31192445.32047 -24105186.14062
  20094938.3234  -15771655.91046 -12144108.92761
  19486958.5974  -16643053.18946 -12819535.84961
 92  5 10  4 57 14.9910000  0  5G23G17G 3G16G20
  20423056.3084   -8069498.01745   -104859.30361
  18732179.862   -23655507.436 7 -18176789.97922
  18296969.6054  -31234364.98447 -24137850.80862
  20099424.1054  -15748071.65746 -12125731.62061
  19491673.6444  -16618278.23446 -12800230.75461
 92  5 10  4 57 29.9910000  0  5G23G17G 3G16G20
  20410266.6284   -8136691.88045   -157218.20761
  18724545.6284  -23695651.11847 -18208070.73062
  18289002.0034  -31276229.21147 -24170472.27763
  20103931.7304  -15724414.23146 -12107297.29961
  19496402.5584  -16593424.67446 -12780864.41461
 92  5 10  4 57 44.9910000  0  5G23G17G 3G16G20
  20397494.253    -8203820.491 6   -209526.07521
  18716920.097   -23735727.605 7 -18239299.11722
  18281047.9484  -31318034.72347 -24203047.99363
  20108446.1444  -15700676.85246 -12088800.67361
  19501145.7064  -16568489.69646 -12761434.62761
 92  5 10  4 57 59.9910000  0  5G23G17G 3G16G20
  20384733.761    -8270886.230 5   -261785.16321
  18709306.581   -23775743.357 7 -18270480.18222
  18273102.6204  -31359785.01447 -24235580.67862
  20112977.5264  -15676867.04646 -12070247.61061
  19505908.042   -16543477.614 6 -12741944.77221
 92  5 10  4 58 14.9910000  0  5G23G17G 3G16G20
  20371982.112    -8337886.745 5   -313993.25421
  18701696.0894  -23815700.18847 -18301615.33362
  18265171.2374  -31401478.10547 -24268068.79662
  20117520.8234  -15652989.10946 -12051641.45961
  19510683.6204  -16518387.13246 -12722393.81361
 92  5 10  4 58 29.9910000  0  5G23G17G 3G16G20
  20359243.8084   -8404824.22246   -366152.30261
  18694105.292   -23855597.320 7 -18332703.96922
  18257248.6124  -31443113.91047 -24300512.27563
  20122078.8394  -15629044.02946 -12032982.98761
  19515471.534   -16493218.742 6 -12702782.15221
 92  5 10  4 58 44.9910000  0  5G23G17G 3G16G20
  20346520.4804   -8471699.42746   -418262.93161
  18686522.8864  -23895435.73047 -18363746.84962
  18249336.0584  -31484694.08247 -24332912.39763
  20126648.6444  -15605030.53146 -12014271.20461
  19520273.8474  -16467974.65146 -12683111.51761
 92  5 10  4 58 59.9910000  0  5G23G17G 3G16G20
  20333806.230    -8538510.432 6   -470323.39821
  18678954.1674  -23935216.59047 -18394744.88062
  18241435.2614  -31526215.58047 -24365266.80462
  20131230.6364  -15580945.41046 -11995503.60961
  19525092.401   -16442652.447 6 -12663379.99621
 92  5 10  4 59 14.9910000  0  5G23G17G 3G16G20
  20321100.8234   -8605265.93846   -522340.69461
  18671399.8864  -23974946.22447 -18425703.00162
  18233540.5424  -31567682.64547 -24397578.79962
  20135825.995   -15556794.328 6 -11976684.61721
  19529926.6204  -16417257.33846 -12643591.67461
 92  5 10  4 59 29.9910000  0  5G23G17G 3G16G20
  20308410.472    -8671958.306 5   -574308.75021
  18663850.4094  -24014615.63347 -18456614.18962
  18225664.0584  -31609086.77548 -24429841.75363
  20140437.5424  -15532566.84146 -11957806.08761
  19534773.3474  -16391780.89446 -12623739.95961
 92  5 10  4 59 44.9910000  0  5G23G17G 3G16G20
  20295733.4644   -8738587.37946   -626227.45361
  18656307.1284  -24054226.79447 -18487479.99762
  18217796.4094  -31650428.58747 -24462056.15063
  20145063.1984  -15508261.67046 -11938867.03061
  19539636.9334  -16366224.87546 -12603826.24261
 92  5 10  4 59 59.9910000  0  5G23G17G 3G16G20
  20283062.4014   -8805154.45845   -678097.94861
  18648782.8474  -24093784.05547 -18518303.80362
  18209940.1124  -31691711.54647 -24494224.68463
  20149703.4174  -15483884.80546 -11919872.10161
  19544515.495   -16340593.188 6 -12583853.58021
 92  5 10  5  0 14.9910000  0  5G23G17G 3G16G20
  20270408.2144   -8871663.08546   -729922.81061
  18641260.9724  -24133293.01647 -18549089.97362
  18202097.3084  -31732940.14047 -24526350.85363
  20154354.6204  -15459443.09046 -11900826.64761
  19549403.8624  -16314890.90846 -12563825.89461
 92  5 10  5  0 29.9910000  0  5G23G17G 3G16G20
  20257766.3394   -8938107.53945   -781697.56261
  18633750.8234  -24172745.84347 -18579832.39962
  18194264.7764  -31774108.10047 -24558429.77563
  20159017.487   -15434928.521 6 -11881724.40821
  19554311.2924  -16289112.57946 -12543738.95361
 92  5 10  5  0 44.9910000  0  5G23G17G 3G16G20
  20245134.612    -9004485.691 5   -833420.75821
  18626256.7844  -24212139.76647 -18610528.92962
  18186442.3474  -31815214.36147 -24590460.62862
  20163694.8164  -15410339.83046 -11862564.41461
  19559232.0974  -16263257.67546 -12523592.34461
 92  5 10  5  0 59.9910000  0  5G23G17G 3G16G20
  20232512.245    -9070805.160 6   -885098.26321
  18618768.3234  -24251484.44647 -18641187.08862
  18178628.5894  -31856268.12047 -24622450.56663
  20168388.8624  -15385689.34446 -11843356.27561
  19564163.7374  -16237336.26846 -12503393.93761
 92  5 10  5  1 14.9910000  0  5G23G17G 3G16G20
  20219905.5424   -9137058.54446   -936724.28761
  18611296.7694  -24290769.13847 -18671798.49762
  18170827.5894  -31897260.29647 -24654392.51963
  20173094.589   -15360967.666 6 -11824092.64921
  19569108.8474  -16211339.49846 -12483136.80161
 92  5 10  5  1 29.9910000  0  5G23G17G 3G16G20
  20207312.5194   -9203242.52545   -988296.34261
  18603832.2454  -24329991.92147 -18702361.67462
  18163036.2064  -31938191.69647 -24686287.11762
  20177808.5264  -15336174.44946 -11804773.30061
  19574070.5424  -16185268.89846 -12462822.13061
 92  5 10  5  1 44.9910000  0  5G23G17G 3G16G20
  20194732.300    -9269347.275 6  -1039806.52421
  18596385.2694  -24369144.49547 -18732870.14762
  18155258.8864  -31979053.73447 -24718127.66562
  20182542.237   -15311303.220 6 -11785393.14921
  19579047.948   -16159116.844 6 -12442443.96121
 92  5 10  5  1 59.9910000  0  5G23G17G 3G16G20
  20182164.6984   -9335388.12546  -1091267.12661
  18588944.0424  -24408239.36747 -18763333.65962
  18147496.8394  -32019859.60847 -24749924.45062
  20187288.6284  -15286370.24246 -11765964.88161
  19584037.8164  -16132896.92846 -12422012.89061
 92  5 10  5  2 14.9910000  0  5G23G17G 3G16G20
  20169610.4014   -9401362.28346
  18581512.4954  -24447273.15047 -18793749.55462
  18139743.1984  -32060605.07047 -24781674.15663
  20192038.6124  -15261373.92746 -11746487.26461
  19589042.058   -16106605.739 6 -12401526.32321
 92  5 10  5  2 29.9900000  0  5G23G17G 3G16G20
  20157068.631    -9467269.070 6
  18574095.318   -24486243.781 7 -18824116.25722
  18132000.7794  -32101289.55147 -24813376.34763
  20196810.881   -15236317.533 6 -11726962.82821
  19594059.537   -16080247.694 6 -12380987.61321
 92  5 10  5  2 44.9900000  0  5G23G17G 3G16G20
  20144536.8114   -9533123.49346        -0.43871
  18566683.717   -24525162.244 7 -18854442.30822
  18124272.3184  -32141923.01047 -24845038.78663
  20201590.303   -15211201.587 6 -11707391.99221
  19599084.732   -16053824.579 6 -12360398.28821
 92  5 10  5  2 59.9900000  0  5G23G17G 3G16G20
  20132017.037    -9598914.525 5    -51266.34421
  18559295.068   -24564020.175 7 -18884721.18722
  18116549.6704  -32182496.85348 -24876654.76763
  20206382.7174  -15186022.44346 -11687771.90961
  19604124.4284  -16027332.47346 -12339755.09361
 92  5 10  5  3 14.9900000  0  5G23G17G 3G16G20
  20119513.068    -9664634.040 6
  18551914.506   -24602812.118 7 -18914948.66122
  18108839.5294  -32223002.28547 -24908217.43863
  20211186.4754  -15160769.96246 -11668094.68761
  19609181.709   -16000763.803 6 -12319052.30721
 92  5 10  5  3 29.9900000  0  5G23G17G 3G16G20
  20107019.7254   -9730281.60746
  18544543.0064  -24641542.59047 -18945128.21862
  18101143.3894  -32263440.10847 -24939727.42663
  20216008.4284  -15135446.19946 -11648361.91561
  19614252.9124  -15974119.79146 -12298290.84461
 92  5 10  5  3 44.9900000  0  5G23G17G 3G16G20
  20094539.8424   -9795867.88846        -0.10971
  18537184.1234  -24680222.20047 -18975268.14362
  18093461.2484  -32303819.82547 -24971192.13463
  20220835.4044  -15110065.20946 -11628584.54661
  19619335.0614  -15947410.60946 -12277478.53561
 92  5 10  5  3 59.9900000  0  5G23G17G 3G16G20
  20082069.443    -9861390.989 6    -51057.11221
  18529837.2954  -24718848.02347 -19005366.15262
  18085787.9674  -32344138.35147 -25002609.16263
  20225681.2404  -15084624.08846 -11608760.32561
  19624432.0534  -15920633.84646 -12256613.56661
 92  5 10  5  4 14.9900000  0  5G23G17G 3G16G20
  20069615.498    -9926845.880 6   -102060.88022
  18522498.9124  -24757418.38047 -19035420.93862
  18078125.0454  -32384392.86747 -25033976.31563
  20230530.8504  -15059120.12546 -11588887.13461
  19629540.8424  -15893787.45046 -12235694.42061
 92  5 10  5  4 29.9900000  0  5G23G17G 3G16G20
  20057171.4824   -9992230.90045   -153010.25261
  18515165.3264  -24795933.48847 -19065432.68262
  18070480.1704  -32424583.06648 -25065293.34863
  20235400.1474  -15033552.05146 -11568963.99061
  19634662.8654  -15866871.57846 -12214721.05361
 92  5 10  5  4 44.9900000  0  5G23G17G 3G16G20
  20044741.725   -10057551.029 6   -203908.95621
  18507844.6154  -24834398.61747 -19095405.47662
  18062845.8184  -32464713.17848 -25096563.55762
  20240272.0764  -15007923.82946 -11548993.98261
  19639795.4594  -15839891.27246 -12193697.49961
 92  5 10  5  4 59.9900000  0  5G23G17G 3G16G20
  20032325.053   -10122801.808 6   -254753.63421
  18500538.842   -24872808.759 7 -19125335.42722
  18055221.5684  -32504778.36348 -25127783.18163
  20245163.8894  -14982231.84146 -11528974.28461
  19644941.881   -15812841.887 6 -12172620.01121
 92  5 10  5  5 14.9900000  0  5G23G17G 3G16G20
  20019922.0684  -10187978.20446   -305540.33961
  18493238.1474  -24911160.20547 -19155219.64262
  18047611.5534  -32544773.41047 -25158948.14662
  20250067.2174  -14956473.08546 -11508902.56661
  19650104.7014  -15785719.33646 -12151485.47961
 92  5 10  5  5 29.9900000  0  5G23G17G 3G16G20
  20007533.014   -10253086.328 6   -356273.83621
  18485947.897   -24949457.607 7 -19185061.74822
  18040012.3574  -32584703.05047 -25190062.14763
  20254978.1864  -14930652.46046 -11488782.63061
  19655279.990   -15758529.042 6 -12130298.26021
 92  5 10  5  5 44.9900000  0  5G23G17G 3G16G20
  19995157.0374  -10318129.64746   -406956.92361
  18478668.779   -24987697.815 7 -19214859.29022
  18032426.4204  -32624569.07847 -25221126.57863
  20259904.9044  -14904771.65946 -11468615.79861
  19660465.2014  -15731273.27546 -12109060.07561
 92  5 10  5  5 59.9900000  0  5G23G17G 3G16G20
  19982791.615   -10383107.117 6   -457588.63021
  18471408.428   -25025876.262 7 -19244608.70422
  18024852.8894  -32664369.40647 -25252139.81662
  20264842.201   -14878825.072 6 -11448397.70521
  19665664.1234  -15703950.93346 -12087770.08661
 92  5 10  5  6 14.9900000  0  5G23G17G 3G16G20
  19970437.826   -10448013.300 6   -508164.75921
  18464153.615   -25063990.653 7 -19274308.20422
  18017290.5224  -32704100.00447 -25283098.71763
  20269791.7324  -14852808.70546 -11428125.23761
  19670877.8264  -15676558.07346 -12066425.14461
 92  5 10  5  6 29.9900000  0  5G23G17G 3G16G20
  19958098.8974  -10512854.75046   -558690.49961
  18456916.209   -25102046.137 7 -19303961.80722
  18009744.6154  -32743765.03547 -25314006.53062
  20274749.584   -14826728.366 6 -11407802.91221
  19676102.772   -15649099.643 6 -12045028.89521
 92  5 10  5  6 44.9900000  0  5G23G17G 3G16G20
  19945772.6314  -10577634.17245   -609167.97661
  18449683.279   -25140046.904 7 -19333572.77522
  18002206.7094  -32783367.37747 -25344865.49963
  20279729.4984  -14800587.83246 -11387433.68461
  19681339.2324  -15621579.06746 -12023584.10061
 92  5 10  5  6 59.9900000  0  5G23G17G 3G16G20
  19933458.6394  -10642344.75246   -659591.77061
  18442458.287   -25177986.662 7 -19363136.20022
  17994681.7644  -32822901.52847 -25375671.32563
  20284717.467   -14774382.919 6 -11367014.29121
  19686589.334   -15593992.014 6 -12002087.59421
 92  5 10  5  7 14.9900000  0  5G23G17G 3G16G20
  19921158.8424  -10706984.06546   -709960.01361
  18435251.389   -25215865.169 7 -19392651.89622
  17987173.0294  -32862368.02747 -25406424.43863
  20289711.9754  -14748116.55646 -11346546.99761
  19691850.904   -15566339.778 6 -11980540.48221
 92  5 10  5  7 29.9900000  0  5G23G17G 3G16G20
  19908872.803   -10771553.916 6   -760274.12821
  18428057.373   -25253685.091 7 -19422121.94322
  17979674.1624  -32901769.34947 -25437126.76663
  20294724.514   -14721791.202 6 -11326033.74621
  19697124.850   -15538625.262 6 -11958944.82121
 92  5 10  5  7 44.9900000  0  5G23G17G 3G16G20
  19896596.9204  -10836056.64946   -810536.00661
  18420876.193   -25291447.437 7 -19451547.13122
  17972186.6704  -32941109.19847 -25467781.18363
  20299743.811   -14695410.333 6 -11305477.24321
  19702410.272   -15510852.741 6 -11937304.00721
 92  5 10  5  7 59.9900000  0  5G23G17G 3G16G20
  19884336.436   -10900482.486 6   -860737.92621
  18413699.154   -25329147.241 7 -19480923.57922
  17964714.4284  -32980379.64347 -25498381.53863
  20304775.7794  -14668967.40946 -11284872.38061
  19707707.5064  -15483015.20246 -11915612.48161
 92  5 10  5  8 14.9900000  0  5G23G17G 3G16G20
  19872092.7254  -10964833.21046   -910881.32661
  18406536.857   -25366792.851 7 -19510257.78922
  17957254.1234  -33019584.49047 -25528930.77263
  20309819.576   -14642468.762 6 -11264224.10321
  19713015.826   -15455116.468 6 -11893873.13021
 92  5 10  5  8 29.9900000  0  5G23G17G 3G16G20
  19859861.701   -11029111.275 6   -960968.13321
  18399382.772   -25404385.850 7 -19539551.02422
  17949805.7014  -33058724.93747 -25559429.82663
  20314870.5534  -14615918.03946 -11243535.23561
  19718337.029   -15427158.888 6 -11872087.97121
 92  5 10  5  8 44.9900000  0  5G23G17G 3G16G20
  19847643.0764  -11093311.26546  -1010994.10861
  18392239.897   -25441919.950 7 -19568798.35922
  17942371.0844  -33097795.25647 -25589874.22863
  20319934.1234  -14589306.88446 -11222799.27561
  19723668.9284  -15399137.21346 -11850252.85761
 92  5 10  5  8 59.9900000  0  5G23G17G 3G16G20
  19835440.889   -11157438.913 6  -1060963.66921
  18385106.967   -25479399.183 7 -19598002.93422
  17934948.1544  -33136799.79347 -25620267.36763
  20325006.193   -14562639.548 6 -11202019.55221
  19729011.318   -15371056.764 6 -11828372.11021
 92  5 10  5  9 14.9900000  0  5G23G17G 3G16G20
  19823250.170   -11221497.102 6  -1110879.08821
  18377985.326   -25516824.074 7 -19627165.16422
  17927537.5224  -33175740.70447 -25650610.94063
  20330096.647   -14535918.706 6 -11181198.12121
  19734366.475   -15342919.980 6 -11806447.43421
 92  5 10  5  9 29.9900000  0  5G23G17G 3G16G20
  19811073.4674  -11285481.85446  -1160737.27161
  18370872.881   -25554192.201 7 -19656283.16522
  17920140.9594  -33214612.49347 -25680900.65163
  20335189.0374  -14509139.55046 -11160331.26061
  19739731.092   -15314722.031 6 -11784474.87921
 92  5 10  5  9 44.9900000  0  5G23G17G 3G16G20
  19798911.186   -11349390.171 6  -1210535.92921
  18363770.9284  -25591501.48747 -19685355.32762
  17912757.4514  -33253412.12347 -25711134.13063
  20340296.8974  -14482295.86346 -11139414.11061
  19745109.4904  -15286460.73846 -11762453.02461
 92  5 10  5  9 59.9900000  0  5G23G17G 3G16G20
  19786764.553   -11413228.957 6  -1260280.40121
  18356682.8574  -25628760.19547 -19714388.07862
  17905386.9284  -33292146.47847 -25741316.75463
  20345419.4284  -14455395.87946 -11118453.08961
  19750495.162   -15258143.495 6 -11740387.57021
 92  5 10  5 10 14.9900000  0  5G23G17G 3G16G20
  19774629.9594  -11476999.13546  -1309971.42161
  18349602.4204  -25665967.67947 -19743380.91562
  17898030.2404  -33330814.85447 -25771447.95563
  20350545.6934  -14428440.02846 -11097448.52661
  19755897.631   -15229770.476 6 -11718278.68421
 92  5 10  5 10 29.9900000  0  5G23G17G 3G16G20
  19762508.217   -11540694.723 6  -1359604.26021
  18342530.600   -25703113.688 7 -19772325.84622
  17890687.6314  -33369410.11948 -25801522.18963
  20355689.4754  -14401421.96446 -11076395.48261
  19761307.959   -15201335.135 6 -11696121.31021
 92  5 10  5 10 44.9900000  0  5G23G17G 3G16G20
  19750400.6474  -11604319.81846  -1409182.17661
  18335475.225   -25740201.415 7 -19801225.35222
  17883356.3424  -33407935.40347 -25831541.89663
  20360837.2874  -14374347.74646 -11055298.68961
  19766730.2484  -15172841.43346 -11673918.50761
 92  5 10  5 10 59.9900000  0  5G23G17G 3G16G20
  19738307.9044  -11667873.46146  -1458704.49361
  18328427.865   -25777232.228 7 -19830080.51522
  17876040.9434  -33446391.26048 -25861507.50863
  20366003.1864  -14347220.08746 -11034160.25761
  19772164.037   -15144290.150 6 -11651670.76621
 92  5 10  5 11 14.9900000  0  5G23G17G 3G16G20
  19726228.615   -11731354.440 6  -1508170.11021
  18321389.904   -25814203.914 7 -19858889.60123
  17868734.076   -33484777.095 8 -25891418.56023
  20371172.0224  -14320040.99846 -11012981.73761
  19777609.381   -15115681.733 6 -11629378.56421
 92  5 10  5 11 29.9900000  0  5G23G17G 3G16G20
  19714159.959   -11794759.735 6  -1557576.77321
  18314368.3114  -25851117.03147 -19887653.06162
  17861441.4204  -33523091.74548 -25921274.13763
  20376355.4984  -14292809.38046 -10991762.29061
  19783062.662   -15087015.779 6 -11607041.56621
 92  5 10  5 11 44.9900000  0  5G23G17G 3G16G20
  19702109.232   -11858091.301 6  -1606925.96021
  18307357.475   -25887974.641 7 -19916373.25322
  17854162.1704  -33561336.78547 -25951075.47263
  20381546.428   -14265526.879 6 -10970503.18821
  19788532.420   -15058294.354 6 -11584661.29421
 92  5 10  5 11 59.9900000  0  5G23G17G 3G16G20
  19690071.5764  -11921350.58546  -1656218.87761
  18300351.3974  -25924773.58047 -19945047.73762
  17846896.9674  -33599511.34547 -25980821.88463
  20386750.3734  -14238193.93446 -10949204.77661
  19794004.5844  -15029517.17046 -11562237.72161
 92  5 10  5 12 14.9900000  0  5G23G17G 3G16G20
  19678049.0924  -11984538.42646  -1705456.08761
  18293366.8894  -25961512.02447 -19973675.09262
  17839647.0844  -33637613.43048 -26010511.82763
  20391960.420   -14210811.432 6 -10927867.75321
  19799492.8344  -15000682.78646 -11539769.43161
 92  5 10  5 12 29.9900000  0  5G23G17G 3G16G20
  19666037.803   -12047657.057 6  -1754639.40821
  18286384.5144  -25998191.09347 -20002256.17962
  17832411.4754  -33675644.01648 -26040146.06263
  20397180.147   -14183380.653 6 -10906493.09821
  19804991.1074  -14971793.14746 -11517258.02361
 92  5 10  5 12 44.9900000  0  5G23G17G 3G16G20
  19654039.9124  -12110704.57646  -1803767.33261
  18279413.5144  -26034813.09747 -20030792.79762
  17825189.1394  -33713600.61447 -26069722.63963
  20402411.381   -14155899.268 6 -10885079.01721
  19810500.178   -14942846.316 6 -11494702.20621
 92  5 10  5 12 59.9900000  0  5G23G17G 3G16G20
  19642055.7404  -12173679.80746  -1852838.76962
  18272452.811   -26071379.294 7 -20059285.92022
  17817980.7484  -33751483.27547 -26099241.60362
  20407646.475   -14128363.332 6 -10863622.42121
  19816017.209   -14913842.637 6 -11472101.96121
 92  5 10  5 13 14.9900000  0  5G23G17G 3G16G20
  19630083.732   -12236589.048 6  -1901858.88922
  18265505.4904  -26107894.51347 -20087739.33362
  17810786.0294  -33789297.45047 -26128707.19663
  20412904.4984  -14100775.18546 -10842125.14161
  19821546.4824  -14884788.78546 -11449462.66161
 92  5 10  5 13 29.9900000  0  5G23G17G 3G16G20
  19618127.0764  -12299425.84846  -1950822.58562
  18258571.537   -26144357.346 7 -20116151.91622
  17803602.2484  -33827039.87647 -26158116.88463
  20418161.006   -14073130.671 6 -10820583.93621
  19827086.1784  -14855682.17346 -11426782.41061
 92  5 10  5 13 44.9900000  0  5G23G17G 3G16G20
  19606181.6864  -12362188.67846  -1999728.62062
  18251639.8114  -26180766.97447 -20144523.04962
  17796432.0144  -33864708.32448 -26187468.92863
  20423431.068   -14045430.920 6 -10798999.69221
  19832634.709   -14826520.897 6 -11404059.50321
 92  5 10  5 13 59.9900000  0  5G23G17G 3G16G20
  19594254.490   -12424875.733 6  -2048575.71022
  18244723.225   -26217115.072 7 -20172846.22322
  17789277.5764  -33902298.50347 -26216759.98563
  20428715.904   -14017674.276 6 -10777371.13021
  19838196.9204  -14797301.33346 -11381291.08961
 92  5 10  5 14 14.9900000  0  5G23G17G 3G16G20
  19582339.3814  -12487493.79346  -2097369.00461
  18237816.2724  -26253407.02547 -20201125.65963
  17782140.6314  -33939817.70847 -26245995.73763
  20434006.381   -13989868.365 6 -10755704.16721
  19843765.7484  -14768031.40846 -11358483.35261
 92  5 10  5 14 29.9900000  0  5G23G17G 3G16G20
  19570436.2014  -12550038.39846  -2146104.84461
  18230913.9984  -26289643.38447 -20229361.77562
  17775015.8034  -33977264.81947 -26275175.30763
  20439305.2874  -13962013.24746 -10733998.87661
  19849344.2324  -14738710.73446 -11335636.07461
 92  5 10  5 14 44.9900000  0  5G23G17G 3G16G20
  19558548.2254  -12612505.73146  -2194780.71761
  18224036.209   -26325824.379 7 -20257554.73623
  17767902.8344  -34014639.81847 -26304298.68663
  20444617.514   -13934108.952 6 -10712255.25721
  19854934.4754  -14709340.21546 -11312749.92861
 92  5 10  5 14 59.9900000  0  5G23G17G 3G16G20
  19546677.154   -12674888.814 6  -2243390.88421
  18217167.412   -26361943.356 7 -20285699.37123
  17760803.8264  -34051937.53747 -26333361.85263
  20449934.279   -13906149.989 6 -10690469.03621
  19860531.3974  -14679914.93346 -11289821.13061
 92  5 10  5 15 14.9900000  0  5G23G17G 3G16G20
  19534821.3574  -12737189.05446  -2291936.45161
  18210300.6934  -26397998.02447 -20313793.89263
  17753721.2254  -34089159.02847 -26362365.61263
  20455267.436   -13878139.745 6 -10668642.86521
  19866143.6154  -14650436.93946 -11266851.22261
 92  5 10  5 15 29.9900000  0  5G23G17G 3G16G20
  19522980.787   -12799413.338 6  -2340422.80821
  18203449.311   -26433995.768 7 -20341844.05623
  17746654.4284  -34126309.94547 -26391314.38463
  20460605.365   -13850088.430 6 -10646784.68821
  19871759.7874  -14620912.62446 -11243845.28861
 92  5 10  5 15 44.9900000  0  5G23G17G 3G16G20
  19511155.115   -12861560.891 6  -2388849.39021
  18196613.0534  -26469932.77847 -20369846.92463
  17739598.0684  -34163387.27648 -26420205.81563
  20465949.0294  -13821994.17246 -10624893.04261
  19877388.2874  -14591339.47246 -11220801.36561
 92  5 10  5 15 59.9900000  0  5G23G17G 3G16G20
  19499341.8424  -12923635.11846  -2437218.92262
  18189787.482   -26505807.109 7 -20397800.93523
  17732554.1934  -34200388.43747 -26449037.89063
  20471305.389   -13793854.386 6 -10602965.91921
  19883023.2094  -14561715.54946 -11197717.80761
 92  5 10  5 16 14.9900000  0  5G23G17G 3G16G20
  19487546.6314  -12985629.18346  -2485526.04961
  18182972.037   -26541615.902 7 -20425703.86123
  17725531.6154  -34237307.28747 -26477805.82863
  20476672.904   -13765659.090 6 -10580995.54121
  19888673.2324  -14532035.37746 -11174590.30061
 92  5 10  5 16 29.9900000  0  5G23G17G 3G16G20
  19475762.279   -13047547.744 6  -2533774.27321
  18176163.959   -26577374.084 7 -20453567.35723
  17718520.7404  -34274152.58047 -26506516.44763
  20482044.240   -13737417.286 6 -10558988.93021
  19894329.490   -14502308.333 6 -11151426.23621
 92  5 10  5 16 44.9900000  0  5G23G17G 3G16G20
  19463995.412   -13109385.837 6  -2581959.76621
  18169373.397   -26613079.224 7 -20481389.51523
  17711521.3344  -34310920.25847 -26535166.58863
  20487428.756   -13709123.993 6 -10536942.19421
  19899996.522   -14472531.121 6 -11128223.17221
 92  5 10  5 16 59.9900000  0  5G23G17G 3G16G20
  19452243.350   -13171150.738 6  -2630088.21421
  18162587.4754  -26648734.90947 -20509173.16163
  17704539.5144  -34347613.07347 -26563758.39763
  20492821.7254  -13680781.17246 -10514856.87061
  19905672.0294  -14442707.27446 -11104983.78861
 92  5 10  5 17 14.9900000  0  5G23G17G 3G16G20
  19440501.795   -13232840.156 6  -2678157.85921
  18155812.772   -26684337.271 7 -20536915.25523
  17697576.4754  -34384225.51348 -26592287.57163
  20498223.2484  -13652386.66846 -10492731.28261
  19911357.209   -14412832.189 6 -11081704.44921
 92  5 10  5 17 29.9900000  0  5G23G17G 3G16G20
  19428779.600   -13294452.456 6  -2726167.44222
  18149051.725   -26719888.046 7 -20564617.13523
  17690618.8184  -34420758.08547 -26620754.50663
  20503635.451   -13623941.767 6 -10470566.40021
  19917052.545   -14382906.801 6 -11058385.95321
 92  5 10  5 17 44.9900000  0  5G23G17G 3G16G20
  19417067.537   -13355992.997 6  -2774121.07321
  18142287.865   -26755394.688 7 -20592284.62423
  17683682.5684  -34457217.37047 -26649164.33463
  20509057.2254  -13595454.34646 -10448368.39461
  19922755.264   -14352938.464 6 -11035034.09921
 92  5 10  5 17 59.9900000  0  5G23G17G 3G16G20
  19405368.7954  -13417456.29146  -2822014.53561
  18135545.0614  -26790851.35447 -20619913.19663
  17676761.8814  -34493598.25147 -26677513.07663
  20514493.4824  -13566920.40646 -10426134.14261
  19928469.7564  -14322922.56346 -11011645.17661
 92  5 10  5 18 14.9900000  0  5G23G17G 3G16G20
  19393689.9514  -13478840.20246  -2869846.13462
  18128806.3654  -26826259.16547 -20647503.68963
  17669850.6544  -34529902.62047 -26705802.19463
  20519932.4514  -13538341.78446 -10403865.08361
  19934186.264   -14292861.515 6 -10988221.11621
 92  5 10  5 18 29.9900000  0  5G23G17G 3G16G20
  19382024.9434  -13540143.62246  -2917615.00961
  18122078.811   -26861617.399 7 -20675055.53523
  17662959.4124  -34566131.32347 -26734032.35263
  20525374.982   -13509719.009 6 -10381561.59821
  19939914.1544  -14262757.12746 -10964763.30161
 92  5 10  5 18 44.9900000  0  5G23G17G 3G16G20
  19370376.131   -13601362.474 6  -2965317.95421
  18115364.8574  -26896916.67947 -20702561.47263
  17656076.6234  -34602278.29747 -26762198.82363
  20530828.943   -13481047.462 6 -10359220.11121
  19945653.490   -14232603.433 6 -10941266.89921
 92  5 10  5 18 59.9900000  0  5G23G17G 3G16G20
  19358742.8504  -13662503.30146  -3012960.03461
  18108652.272   -26932155.700 7 -20730020.43323
  17649218.3574  -34638346.34447 -26790303.79662
  20536293.873   -13452328.849 6 -10336841.95521
  19951402.1314  -14202404.45546 -10917735.30361
 92  5 10  5 19 14.9900000  0  5G23G17G 3G16G20
  19347122.2014  -13723563.84046  -3060539.57361
  18101963.5294  -26967332.03947 -20757430.56363
  17642366.2014  -34674333.28148 -26818345.55763
  20541766.568   -13423563.345 6 -10314427.26221
  19957157.686   -14172158.620 6 -10894167.15421
 92  5 10  5 19 29.9900000  0  5G23G17G 3G16G20
  19335516.842   -13784544.718 6  -3108057.06521
  18095276.170   -27002447.801 7 -20784793.47723
  17635535.8894  -34710242.87848 -26846327.06263
  20547248.912   -13394754.821 6 -10291979.04421
  19962919.029   -14141870.705 6 -10870566.53821
 92  5 10  5 19 44.9900000  0  5G23G17G 3G16G20
  19323928.107   -13845436.792 6  -3155505.38222
  18088611.9674  -27037493.46347 -20812101.77963
  17628714.9514  -34746065.11447 -26874240.49163
  20552746.1394  -13365891.09246 -10269487.81061
  19968692.0294  -14111530.70346 -10846925.13361
 92  5 10  5 19 59.9900000  0  5G23G17G 3G16G20
  19312357.1314  -13906250.04146  -3202892.27262
  18081951.436   -27072476.036 7 -20839360.91923
  17621917.5614  -34781807.05648 -26902091.35763
  20558241.967   -13336979.415 6 -10246959.22521
  19974474.178   -14081146.601 6 -10823249.31621
 92  5 10  5 20 14.9900000  0  5G23G17G 3G16G20
  19300799.4824  -13966981.33346  -3250215.33961
  18075307.600   -27107393.622 7 -20866569.40923
  17615128.0614  -34817466.02648 -26929877.56363
  20563759.053   -13308015.734 6 -10224390.10521
  19980265.2564  -14050716.57046 -10799537.73961
 92  5 10  5 20 29.9900000  0  5G23G17G 3G16G20
  19289258.201   -14027633.444 6  -3297476.64922
  18068672.803   -27142250.423 7 -20893730.54223
  17608361.9984  -34853044.64048 -26957601.15662
  20569277.3114  -13279002.17246 -10201782.12561
  19986063.467   -14020243.619 6 -10775792.84321
 92  5 10  5 20 44.9900000  0  5G23G17G 3G16G20
  19277732.178   -14088209.063 6  -3344678.39421
  18062055.076   -27177047.279 7 -20920844.96623
  17601602.6784  -34888543.59547 -26985262.67363
  20574804.607   -13249944.641 6 -10179139.86621
  19991870.0064  -13989729.12946 -10752015.55661
 92  5 10  5 20 59.9900000  0  5G23G17G 3G16G20
  19266217.178   -14148711.266 6  -3391822.96222
  18055441.0844  -27211791.76047 -20947918.57763
  17594865.7094  -34923967.66147 -27012865.83663
  20580344.1864  -13220850.85946 -10156469.39361
  19997684.8184  -13959178.84446 -10728210.40361
 92  5 10  5 21 14.9900000  0  5G23G17G 3G16G20
  19254719.6314  -14209126.97846  -3438900.10261
  18048842.568   -27246474.515 7 -20974944.08123
  17588137.2094  -34959306.20347 -27040402.35863
  20585888.5684  -13191712.17946 -10133763.91961
  20003507.061   -13928582.487 6 -10704369.33321
 92  5 10  5 21 29.9900000  0  5G23G17G 3G16G20
  19243240.787   -14269454.742 6  -3485908.74721
  18042251.248   -27281098.206 7 -21001923.55823
  17581430.7404  -34994560.85447 -27067873.51463
  20591442.936   -13162533.398 6 -10111027.18721
  20009337.4824  -13897942.26846 -10680493.97861
 92  5 10  5 21 44.9900000  0  5G23G17G 3G16G20
  19231777.3504  -14329698.61146  -3532852.04762
  18035672.022   -27315666.543 7 -21028859.90323
  17574737.0454  -35029735.48947 -27095282.31562
  20596999.553   -13133318.181 6 -10088262.06421
  20015176.584   -13867262.919 6 -10656588.14721
 92  5 10  5 21 59.9900000  0  5G23G17G 3G16G20
  19220330.717   -14389850.774 6  -3579723.84722
  18029111.936   -27350172.906 7 -21055747.97223
  17568058.5844  -35064822.11347 -27122622.53362
  20602572.0224  -13104060.68646 -10065464.01361
  20021021.967   -13836537.175 6 -10632646.21321
 92  5 10  5 22 14.9900000  0  5G23G17G 3G16G20
  19208901.928   -14449911.279 6  -3626524.16322
  18022550.326   -27384619.543 7 -21082589.48622
  17561400.2094  -35099823.12747 -27149896.04363
  20608140.3974  -13074765.71046 -10042636.76561
  20026877.576   -13805767.905 6 -10608670.36021
 92  5 10  5 22 29.9900000  0  5G23G17G 3G16G20
  19197490.2484  -14509880.28446  -3673253.25061
  18016007.529   -27419008.334 7 -21109385.93223
  17554754.5614  -35134739.96347 -27177103.96563
  20613720.3974  -13045434.79046 -10019781.49561
  20032743.506   -13774957.188 6 -10584662.10621
 92  5 10  5 22 44.9900000  0  5G23G17G 3G16G20
  19186094.4284  -14569763.72546  -3719915.65961
  18009480.162   -27453344.213 7 -21136141.14223
  17548123.6704  -35169577.91047 -27204250.41663
  20619314.0534  -13016075.79846  -9996904.34761
  20038610.357   -13744111.123 6 -10560626.30521
 92  5 10  5 22 59.9890000  0  5G23G17G 3G16G20
  19174718.087   -14629551.840 6  -3766503.78922
  18002951.915   -27487620.581 7 -21162849.98723
  17541514.4464  -35204328.36947 -27231328.68863
  20624904.0174  -12986682.03446  -9974000.11061
  20044489.9624  -13713226.15646 -10536560.08761
 92  5 10  5 23 14.9890000  0  5G23G17G 3G16G20
  19163355.4854  -14689249.88846  -3813021.69162
  17996439.173   -27521841.772 7 -21189515.83523
  17534917.0014  -35238993.49947 -27258340.47662
  20630506.5874  -12957244.60646  -9951061.86261
  20050375.431   -13682296.438 6 -10512459.10121
 92  5 10  5 23 29.9890000  0  5G23G17G 3G16G20
  19152014.017   -14748858.991 6  -3859470.29721
  17989941.985   -27556008.409 7 -21216139.17123
  17528335.1494  -35273574.48647 -27285286.69263
  20636116.4234  -12927767.93146  -9928093.01961
  20056268.6264  -13651327.96546 -10488327.82861
 92  5 10  5 23 44.9890000  0  5G23G17G 3G16G20
  19140687.251   -14808380.416 6  -3905850.60422
  17983450.517   -27590121.875 7 -21242721.07323
  17521770.1184  -35308070.03347 -27312166.33562
  20641732.1264  -12898249.64246  -9905091.75061
  20062172.626   -13620320.371 6 -10464166.09121
 92  5 10  5 23 59.9890000  0  5G23G17G 3G16G20
  19129374.939   -14867817.046 6  -3952164.81922
  17976962.806   -27624184.939 7 -21269263.70723
  17515226.1424  -35342479.23947 -27338978.70362
  20647353.7434  -12868687.46346  -9882056.28561
  20068078.181   -13589273.384 6 -10439973.70121
 92  5 10  5 24 14.9890000  0  5G23G17G 3G16G20
  19118082.2124  -14927170.96846  -3998414.58662
  17970492.493   -27658199.668 7 -21295768.67023
  17508692.3374  -35376802.43347 -27365724.05063
  20652989.4704  -12839082.66946  -9858987.60761
  20073994.1494  -13558188.02046 -10415751.38961
 92  5 10  5 24 29.9890000  0  5G23G17G 3G16G20
  19106802.2904  -14986444.93846  -4044602.01262
  17964025.509   -27692167.229 7 -21322236.87723
  17502176.6734  -35411040.42647 -27392403.00662
  20658630.509   -12809435.997 6  -9835886.29421
  20079914.243   -13527065.939 6 -10391500.65421
 92  5 10  5 24 44.9890000  0  5G23G17G 3G16G20
  19095537.6494  -15045642.88546  -4090730.21161
  17957575.618   -27726089.874 7 -21348670.09623
  17495676.3294  -35445194.61747 -27419016.65262
  20664282.4934  -12779749.15246  -9812753.69761
  20085844.5094  -13495908.54946 -10367222.22061
 92  5 10  5 24 59.9890000  0  5G23G17G 3G16G20
  19084286.407   -15104763.882 6  -4136798.46622
  17951131.493   -27759964.666 7 -21375066.01623
  17489192.3844  -35479262.29247 -27445562.89462
  20669936.9784  -12750018.21446  -9789586.70961
  20091779.439   -13464714.310 6 -10342914.99421
 92  5 10  5 25 14.9890000  0  5G23G17G 3G16G20
  19073052.2044  -15163807.96746  -4182806.78962
  17944691.595   -27793791.334 7 -21401424.43923
  17482726.2434  -35513243.94847 -27472042.09863
  20675601.837   -12720245.171 6  -9766386.92521
  20097721.9544  -13433484.29246 -10318579.90161
 92  5 10  5 25 29.9890000  0  5G23G17G 3G16G20
  19061830.3764  -15222771.44946  -4228752.29662
  17938265.954   -27827563.279 7 -21427740.22423
  17476277.8764  -35547136.53247 -27498451.89562
  20681280.493   -12690429.428 6  -9743153.86221
  20103670.9854  -13402216.23746 -10294215.26361
 92  5 10  5 25 44.9890000  0  5G23G17G 3G16G20
  19050624.8604  -15281656.66646  -4274636.82162
  17931848.1344  -27861282.05947
  17469846.4074  -35580942.21547
  20686957.032   -12660575.074 6  -9719890.71321
  20109631.181   -13370912.843 6 -10269823.13821
 92  5 10  5 25 59.9890000  0  5G23G17G 3G16G20
  19039432.8214  -15340465.87046  -4320462.10761
  17925441.5484  -27894950.42847
  17463429.7514  -35614663.05247
  20692646.0954  -12630684.22846  -9696599.12061
  20115595.915   -13339576.967 6 -10245405.77221
 92  5 10  5 26 14.9890000  0  5G23G17G 3G16G20
  19028259.4934  -15399195.95246  -4366225.74862
  17919044.3374  -27928564.59347
  17457028.4854  -35648297.58647
  20698345.134   -12600758.731 6  -9673280.54321
  20121561.1964  -13308207.73846 -10220962.36461
 92  5 10  5 26 29.9890000  0  5G23G17G 3G16G20
  19017097.6264  -15457841.57746  -4411923.59062
  17912659.298   -27962118.422 7
  17450645.9154  -35681842.77147
  20704042.6814  -12570795.60146  -9649932.63661
  20127538.9544  -13276802.42746 -10196490.70461
 92  5 10  5 26 44.9890000  0  5G23G17G 3G16G20
  19005954.892   -15516402.391 6  -4457555.35022
  17906285.4314  -27995612.54447
  17444278.8534  -35715299.71548
  20709753.7594  -12540795.84446  -9626556.20061
  20133519.6574  -13245363.17546 -10171992.65661
 92  5 10  5 26 59.9890000  0  5G23G17G 3G16G20
  18994826.3144  -15574876.70446  -4503119.71762
  17899922.0794  -28029046.25647
  17437928.3844  -35748668.32348
  20715470.5244  -12510760.86046  -9603152.31361
  20139507.798   -13213890.609 5 -10147468.69821
 92  5 10  5 27 14.9890000  0  5G23G17G 3G16G20
  18983715.8534  -15633266.46646  -4548618.17762
  17893573.2744  -28062422.26547 -21610747.11263
  17431593.0564  -35781951.98748 -27681424.96363
  20721189.7904  -12480696.34746  -9579725.41461
  20145504.509   -13182388.582 6 -10122921.72721
 92  5 10  5 27 29.9890000  0  5G23G17G 3G16G20
  18972621.7434  -15691567.93846  -4594047.85462
  17887233.564   -28095741.788 7 -21636710.35323
  17425274.6264  -35815148.57948 -27707292.43163
  20726916.657   -12450602.052 6  -9556275.28521
  20151505.5324  -13150855.82246 -10098350.83761
 92  5 10  5 27 44.9890000  0  5G23G17G 3G16G20
  18961543.7594  -15749780.92346  -4639408.59262
  17880899.649   -28129005.361 7 -21662630.00223
  17418975.5794  -35848255.94447 -27733090.37763
  20732649.5714  -12420475.47646  -9532800.02361
  20157514.4704  -13119290.85346 -10073754.86461
 92  5 10  5 27 59.9890000  0  5G23G17G 3G16G20
  18950483.774   -15807907.747 6  -4684702.18122
  17874582.1424  -28162216.20947 -21688508.57663
  17412691.8764  -35881274.29247 -27758818.95663
  20738384.0714  -12390318.22145  -9509300.84661
  20163526.6734  -13087694.64146 -10049134.62761
 92  5 10  5 28 14.9890000  0  5G23G17G 3G16G20
  18939436.4624  -15865943.97646  -4729925.21862
  17868272.7434  -28195366.71647 -21714340.13163
  17406428.3534  -35914198.68147 -27784474.32062
  20744126.2674  -12360126.77245  -9485775.03361
  20169548.181   -13056062.556 6 -10024486.28421
 92  5 10  5 28 29.9890000  0  5G23G17G 3G16G20
  18928411.337   -15923892.690 6  -4775080.03222
  17861971.517   -28228457.874 7 -21740125.43723
  17400182.8144  -35947032.25948 -27810058.92363
  20749880.774   -12329904.695 5  -9462225.34221
  20175568.2434  -13024398.65446  -9999813.16861
 92  5 10  5 28 44.9890000  0  5G23G17G 3G16G20
  18917400.9624  -15981752.86846  -4820165.88362
  17855689.337   -28261491.407 7 -21765865.83123
  17393952.5644  -35979774.38847 -27835572.26363
  20755642.2904  -12299650.86546  -9438650.89861
  20181603.0644  -12992702.92146  -9975115.29061
 92  5 10  5 28 59.9890000  0  5G23G17G 3G16G20
  18906406.595   -16039526.456 6  -4865184.24722
  17849417.4314  -28294468.95547 -21791562.61463
  17387735.4314  -36012426.72347 -27861015.64263
  20761405.587   -12269368.577 6  -9415054.30621
  20187637.587   -12960977.378 6  -9950394.17821
 92  5 10  5 29 14.9890000  0  5G23G17G 3G16G20
  18895431.2284  -16097210.69746  -4910132.96262
  17843155.7904  -28327387.16247 -21817213.15463
  17381538.7744  -36044985.45047 -27886386.07163
  20767173.8454  -12239053.75045  -9391432.32861
  20193682.782   -12929219.316 5  -9925647.70621
 92  5 10  5 29 29.9890000  0  5G23G17G 3G16G20
  18884470.173   -16154806.307 6  -4955012.66322
  17836895.9704  -28360247.75147 -21842818.79563
  17375364.3374  -36077450.35247 -27911683.39263
  20772947.540   -12208704.174 5  -9367783.28021
  20199733.5174  -12897428.82846  -9900875.99361
 92  5 10  5 29 44.9890000  0  5G23G17G 3G16G20
  18873527.8764  -16212315.27146  -4999824.81362
  17830654.1964  -28393050.68247 -21868379.51763
  17369204.4234  -36109822.09647 -27936908.12162
  20778726.8844  -12178318.10445  -9344105.81261
  20205790.485   -12865607.322 6  -9876080.08221
 92  5 10  5 29 59.9890000  0  5G23G17G 3G16G20
  18862598.743   -16269741.963 6  -5044572.82622
  17824427.899   -28425798.803 7 -21893897.51323
  17363057.4704  -36142105.63847 -27962064.12063
  20784519.0244  -12147901.50346  -9320404.54261
  20211848.071   -12833760.699 6  -9851264.71121
 92  5 10  5 30 14.9890000  0  5G23G17G 3G16G20
  18851687.0794  -16327084.29946  -5089255.14962
  17818201.7674  -28458489.59747 -21919370.85863
  17356931.5644  -36174300.14947 -27987150.74463
  20790310.337   -12117452.524 5  -9296678.04721
  20217913.4234  -12801888.69446  -9826429.52061
 92  5 10  5 30 29.9890000  0  5G23G17G 3G16G20
  18840791.0794  -16384336.02046  -5133866.81962
  17811989.7984  -28491120.54047 -21944797.55463
  17350826.1104  -36206402.31547 -28012165.41363
  20796115.196   -12086966.778 5  -9272922.91121
  20223985.2514  -12769988.53545  -9801572.42561
 92  5 10  5 30 44.9890000  0  5G23G17G 3G16G20
  18829914.673   -16441498.603 6  -5178409.05422
  17805797.3294  -28523698.48647 -21970182.96363
  17344730.4624  -36238414.10547 -28037109.65863
  20801920.7284  -12056445.30345  -9249139.93161
  20230058.5874  -12738062.69846  -9776695.21661
 92  5 10  5 30 59.9890000  0  5G23G17G 3G16G20
  18819053.7594  -16498571.63546  -5222881.48662
  17799604.689   -28556224.115 7 -21995527.59623
  17338657.9074  -36270335.72447 -28061983.64263
  20807737.1424  -12025888.11745  -9225329.14561
  20236141.564   -12706112.352 6  -9751798.99921
 92  5 10  5 31 14.9890000  0  5G23G17G 3G16G20
  18808209.853   -16555551.192 6  -5267281.09522
  17793427.8994  -28588693.35947 -22020828.29463
  17332602.9854  -36302161.84147 -28086783.20563
  20813560.9854  -11995288.54046  -9201485.31161
  20242224.610   -12674132.470 6  -9726879.64421
 92  5 10  5 31 29.9890000  0  5G23G17G 3G16G20
  18797385.149   -16612438.734 6  -5311608.99322
  17787255.6814  -28621110.80347 -22046088.63063
  17326564.1264  -36333893.50147 -28111509.16862
  20819389.0404  -11964647.80446  -9177609.40861
  20248315.9784  -12642125.14746  -9701939.00361
 92  5 10  5 31 44.9890000  0  5G23G17G 3G16G20
  18786577.0174  -16669237.89946  -5355868.02562
  17781094.6184  -28653480.12547 -22071311.47463
  17320543.8604  -36365533.88847 -28136164.00762
  20825226.860   -11933971.445 6  -9153705.74721
  20254412.5244  -12610094.18346  -9676979.94861
 92  5 10  5 31 59.9890000  0  5G23G17G 3G16G20
  18775786.595   -16725944.075 6  -5400054.60022
  17774948.5874  -28685798.04847 -22096494.26263
  17314537.3534  -36397080.60047 -28160745.85663
  20831069.4154  -11903259.29645  -9129774.19161
  20260509.806   -12578037.492 5  -9652000.86421
 92  5 10  5 32 14.9890000  0  5G23G17G 3G16G20
  18765014.751   -16782552.458 6  -5444164.98522
  17768808.5794  -28718060.36547 -22121633.72763
  17308556.2284  -36428527.78948 -28185250.15362
  20836922.7674  -11872507.48245  -9105811.73561
  20266618.7284  -12545950.35346  -9626998.07161
 92  5 10  5 32 29.9890000  0  5G23G17G 3G16G20
  18754257.5244  -16839072.92446  -5488206.87862
  17762673.4934  -28750276.02647 -22146736.82363
  17302589.1734  -36459884.33647 -28209683.82063
  20842782.1654  -11841725.86045  -9081826.05661
  20272731.9624  -12513842.06546  -9601978.94061
 92  5 10  5 32 44.9890000  0  5G23G17G 3G16G20
  18743521.048   -16895498.240 6  -5532174.61022
  17756559.0484  -28782440.76347 -22171800.25263
  17296638.9314  -36491144.46148 -28234042.35463
  20848642.1494  -11810910.11745  -9057813.78261
  20278838.735   -12481707.274 5  -9576938.84421
 92  5 10  5 32 59.9890000  0  5G23G17G 3G16G20
  18732800.3064  -16951832.53246  -5576071.43762
  17750442.1034  -28814554.28247 -22196823.77363
  17290711.7434  -36522310.29448 -28258327.41263
  20854514.7354  -11780066.14545  -9033779.49861
  20284961.6184  -12449549.16245  -9551880.73661
 92  5 10  5 33 14.9890000  0  5G23G17G 3G16G20
  18722098.024   -17008077.296 6  -5619898.47722
  17744346.3924  -28846616.54847 -22221807.35963
  17284795.0324  -36553382.45248 -28282539.47862
  20860388.6734  -11749195.75845  -9009724.65161
  20291088.5954  -12417368.74246  -9526805.21361
 92  5 10  5 33 29.9890000  0  5G23G17G 3G16G20
  18711410.6574  -17064230.90046  -5663654.49762
  17738257.6344  -28878621.66947 -22246746.40363
  17278902.3144  -36584355.81648 -28306674.56362
  20866267.165   -11718296.218 5  -8985647.09821
  20297216.2824  -12385161.59546  -9501708.87361
 92  5 10  5 33 44.9890000  0  5G23G17G 3G16G20
  18700743.314   -17120294.616 6  -5707340.45622
  17732174.2044  -28910567.36847 -22271639.15963
  17273028.0564  -36615230.67348 -28330732.89062
  20872155.8994  -11687370.57045  -8961549.19561
  20303347.3604  -12352928.61945  -9476592.40861
 92  5 10  5 33 59.9890000  0  5G23G17G 3G16G20
  18690090.939   -17176269.649 6  -5750957.34622
  17726106.4934  -28942453.61847 -22296485.57563
  17267168.7204  -36646008.69548 -28354715.75863
  20878041.478   -11656422.869 5  -8937434.13321
  20309485.6734  -12320672.25645  -9451457.59561
 92  5 10  5 34 14.9890000  0  5G23G17G 3G16G20
  18679454.8214  -17232159.12346  -5794507.55262
  17720054.5874  -28974283.11947 -22321287.79663
  17261330.7354  -36676691.69848 -28378624.58862
  20883939.243   -11625456.302 5  -8913304.35121
  20315632.8144  -12288394.97345  -9426306.51961
 92  5 10  5 34 29.9890000  0  5G23G17G 3G16G20
  18668838.173   -17287961.440 7  -5837989.84922
  17714005.2674  -29006053.18547 -22346043.68263
  17255512.1964  -36707276.61848 -28402456.98362
  20889835.032   -11594468.661 5  -8889158.14521
  20321774.235   -12256094.190 5  -9401137.08221
 92  5 10  5 34 44.9890000  0  5G23G17G 3G16G20
  18658233.7124  -17343677.08346  -5881404.57862
  17707968.1734  -29037766.17447 -22370755.09863
  17249710.5244  -36737766.35848 -28426215.21763
  20895733.2594  -11563463.14545  -8864998.01461
  20327925.665   -12223773.681 6  -9375952.41521
 92  5 10  5 34 59.9890000  0  5G23G17G 3G16G20
  18647649.2904  -17399302.80246  -5924749.25562
  17701944.4074  -29069416.82647 -22395417.92963
  17243926.5174  -36768155.08047 -28449894.73162
  20901639.243   -11532434.103 5  -8840819.54521
  20334081.0564  -12191428.12945  -9350748.00861
 92  5 10  5 35 14.9890000  0  5G23G17G 3G16G20
  18637081.212   -17454843.322 7  -5968027.56922
  17695936.9154  -29101008.55647 -22420034.85963
  17238160.7904  -36798445.17547 -28473497.40462
  20907546.814   -11501383.052 5  -8816623.89921
  20340241.501   -12159060.762 5  -9325526.71821
 92  5 10  5 35 29.9890000  0  5G23G17G 3G16G20
  18626527.189   -17510304.887 7  -6011244.32422
  17689934.8684  -29132547.21547 -22444610.42463
  17232414.0244  -36828641.28348 -28497026.83462
  20913457.2124  -11470313.27545  -8792413.69061
  20346403.657   -12126676.682 5  -9300292.38021
 92  5 10  5 35 44.9890000  0  5G23G17G 3G16G20
  18615990.0954  -17565678.79247  -6054392.75762
  17683946.9314  -29164026.17647 -22469139.47263
  17226686.9314  -36858736.64247 -28520477.76162
  20919375.556   -11439218.010 5  -8768183.60221
  20352569.1494  -12094269.86645  -9275040.32161
 92  5 10  5 35 59.9890000  0  5G23G17G 3G16G20
  18605468.4854  -17620962.99147  -6097471.28462
  17677966.0174  -29195452.88547 -22493627.81063
  17220979.2904  -36888734.68447 -28543852.85063
  20925297.704   -11408100.410 5  -8743936.15121
  20358740.1964  -12061844.29945  -9249773.66861
 92  5 10  5 36 14.9890000  0  5G23G17G 3G16G20
  18594964.735   -17676156.641 7  -6140479.27022
  17671993.915   -29226826.920 7 -22518075.10123
  17215290.0404  -36918634.78347 -28567151.62262
  20931226.7434  -11376956.35145  -8719668.05861
  20364912.2984  -12029399.80345  -9224492.17961
 92  5 10  5 36 29.9890000  0  5G23G17G 3G16G20
  18584481.2284  -17731257.85847  -6183415.22262
  17666036.017   -29258146.864 7 -22542480.23423
  17209620.0244  -36948434.87547 -28590372.47162
  20937158.3764  -11345780.82945  -8695375.44361
  20371092.556   -11996935.155 5  -9199195.00621
 92  5 10  5 36 44.9890000  0  5G23G17G 3G16G20
  18574013.1734  -17786264.06047  -6226277.13862
  17660081.2204  -29289413.53847 -22566843.85963
  17203968.0564  -36978135.43848 -28613515.76462
  20943089.5404  -11314573.73345  -8671058.22261
  20377274.5174  -11964451.76745  -9173883.18761
 92  5 10  5 36 59.9890000  0  5G23G17G 3G16G20
  18563564.212   -17841172.698 7  -6269063.02222
  17654147.3764  -29320624.58147 -22591164.14463
  17198334.8294  -37007732.76347 -28636578.61262
  20949038.2284  -11283332.14245  -8646714.12761
  20383461.1494  -11931946.28145  -9148554.17361
 92  5 10  5 37 14.9890000  0  5G23G17G 3G16G20
  18553133.0644  -17895991.36847  -6311778.80262
  17648216.4394  -29351789.14847 -22615448.21563
  17192720.1734  -37037232.97747 -28659565.78862
  20954991.6964  -11252063.79245  -8622349.19761
  20389643.4854  -11899425.82245  -9123213.53961
 92  5 10  5 37 29.9890000  0  5G23G17G 3G16G20
  18542719.4854  -17950711.62347  -6354417.89662
  17642296.603   -29382901.730 7 -22639691.77123
  17187126.2674  -37066629.21247 -28682471.94562
  20960950.001   -11220762.814 5  -8597958.81521
  20395837.509   -11866884.336 5  -9097856.77921
 92  5 10  5 37 44.9890000  0  5G23G17G 3G16G20
  18532324.5644  -18005338.09647  -6396983.91662
  17636380.673   -29413968.910 7 -22663899.95323
  17181552.6184  -37095928.98947 -28705302.93662
  20966907.173   -11189438.187 5  -8573550.00321
  20402035.3214  -11834328.89845  -9072488.92361
 92  5 10  5 37 59.9890000  0  5G23G17G 3G16G20
  18521949.446   -18059856.993 7  -6439466.09722
  17630476.1104  -29444980.43247 -22688064.76363
  17175999.1344  -37125121.73347 -28728050.52263
  20972873.3604  -11158078.97445  -8549114.25361
  20408234.806   -11801750.410 5  -9047103.01321
 92  5 10  5 38 14.9890000  0  5G23G17G 3G16G20
  18511593.681   -18114276.658 7  -6481870.95122
  17624585.9154  -29475939.20547 -22712188.47563
  17170463.2984  -37154212.07647 -28750718.32662
  20978846.235   -11126690.056 5  -8524655.36921
  20414437.8144  -11769154.19745  -9021703.62361
 92  5 10  5 38 29.9890000  0  4G23G17G 3G20
  18501257.001   -18168603.576 7  -6524203.53022
  17618708.0174  -29506848.14647 -22736273.35663
  17164943.5014  -37183202.99047 -28773308.64462
  20420639.3604  -11736543.89645  -8996293.04261
 92  5 10  5 38 44.9890000  0  4G23G17G 3G20
  18490936.548   -18222832.660 7  -6566459.88622
  17612836.0644  -29537704.26147 -22760317.06963
  17159446.6494  -37212090.92547 -28795818.72162
  20426856.728   -11703916.001 5  -8970868.79221
 92  5 10  5 38 59.9890000  0  4G23G17G 3G20
  18480633.493   -18276966.669 7  -6608642.15422
  17606969.1184  -29568507.93047 -22784319.91763
  17153972.8924  -37240876.45947 -28818249.00462
  20433064.3294  -11671272.05545  -8945431.84461
 92  5 10  5 39 14.9890000  0  4G23G17G 3G20
  18470351.267   -18331008.069 7  -6650752.25422
  17601121.868   -29599257.560 7 -22808280.65823
  17148511.1184  -37269559.94447 -28840599.77662
  20439275.5404  -11638613.37345  -8919983.61761
 92  5 10  5 39 29.9890000  0  4G23G17G 3G20
  18460084.595   -18384958.925 7  -6692791.80422
  17595282.1104  -29629952.35847 -22832198.67563
  17143069.8994  -37298143.54547 -28862872.71062
  20445492.985   -11605942.254 5  -8894525.47721
 92  5 10  5 39 44.9890000  0  4G23G17G 3G20
  18449835.712   -18438816.767 7  -6734758.86722
  17589446.3374  -29660587.61847 -22856070.30063
  17137654.9704  -37326624.92647 -28885065.99362
  20451719.9544  -11573257.62045  -8869056.86461
 92  5 10  5 39 59.9890000  0  4G23G17G 3G20
  18439605.3924  -18492582.25647  -6776653.96762
  17583636.8454  -29691161.14047 -22879893.81063
  17132250.6264  -37355003.55647 -28907179.21162
  20457930.5954  -11540559.03045  -8843577.52861
 92  5 10  5 40 14.9890000  0  4G23G17G 3G20
  18429390.220   -18546256.960 7  -6818478.33322
  17577824.4544  -29721670.87547 -22903667.62463
  17126873.4544  -37383277.60947 -28929210.94362
  20464163.8144  -11507845.13945  -8818086.06461
 92  5 10  5 40 29.9890000  0  4G23G17G 3G20
  18419193.6494  -18599838.84347  -6860230.35962
  17572036.0954  -29752115.61847 -22927390.79663
  17121511.2124  -37411443.49647 -28951158.38962
  20470390.7124  -11475113.61945
 92  5 10  5 40 44.9890000  0  4G23G17G 3G20
  18409016.001   -18653324.958 7  -6901907.77022
  17566245.6814  -29782499.76647 -22951066.74463
  17116174.7824  -37439502.76447 -28973022.75662
  20476620.634   -11442365.889 5
 92  5 10  5 40 59.9890000  0  4G23G17G 3G20
  18398855.048   -18706714.940 7  -6943510.27422
  17560482.876   -29812823.153 7 -22974695.34723
  17110851.9704  -37467455.97547 -28994804.48162
  20482859.759   -11409604.068 5
 92  5 10  5 41 14.9890000  0  4G23G17G 3G20
  18388713.571   -18760012.479 7  -6985040.75022
  17554721.6424  -29843089.88047 -22998279.80163
  17105555.6424  -37495307.39947 -29016506.89362
  20489091.079   -11376832.593 5
 92  5 10  5 41 29.9890000  0  4G23G17G 3G20
  18378590.0564  -18813214.93047  -7026497.11362
  17548974.3844  -29873301.35547 -23021821.20363
  17100271.2594  -37523055.58747 -29038128.85662
  20495336.4544  -11344050.20246
 92  5 10  5 41 44.9890000  0  4G23G17G 3G20
  18368484.9074  -18866314.80947  -7067873.55662
  17543235.0644  -29903452.49047 -23045315.58663
  17095014.0094  -37550693.73747 -29059665.08262
  20501572.0174  -11311250.92045
 92  5 10  5 41 59.9890000  0  4G23G17G 3G20
  18358398.6494  -18919315.25647  -7109172.51762
  17537506.0174  -29933550.72147 -23068768.74563
  17089775.8374  -37578226.65347 -29081119.30762
  20507817.517   -11278440.545 5
 92  5 10  5 42 14.9890000  0  4G23G17G 3G20
  18348332.1034  -18972219.93347  -7150396.84962
  17531790.8064  -29963599.09247 -23092183.04863
  17084553.7904  -37605657.25247 -29102493.80162
  20514060.353   -11245622.648 5
 92  5 10  5 42 29.9890000  0  4G23G17G 3G20
  18338283.6034  -19025022.97947  -7191541.99362
  17526082.4934  -29993596.07747 -23115557.30963
  17079353.5404  -37632982.22947 -29123785.99162
  20520305.267   -11212794.600 5
 92  5 10  5 42 44.9890000  0  4G23G17G 3G20
  18328254.696   -19077724.163 7  -7232607.77122
  17520382.8844  -30023543.70447 -23138893.11463
  17074176.5954  -37660203.08947 -29144997.05362
  20526552.673   -11179958.257 5
 92  5 10  5 42 59.9890000  0  4G23G17G 3G20
  18318244.774   -19130322.902 7  -7273593.72322
  17514690.2124  -30053436.39147 -23162186.11263
  17069018.0014  -37687317.51947 -29166125.18062
  20532811.235   -11147111.828 6        -0.04231
 92  5 10  5 43 14.9890000  0  4G23G17G 3G20
  18308254.767   -19182822.000 7  -7314502.02622
  17509015.1034  -30083271.56547 -23185434.29563
  17063875.8924  -37714322.57547 -29187168.08262
  20539064.7044  -11114253.87045     25603.66261
 92  5 10  5 43 29.9890000  0  4G23G17G 3G20
  18298282.985   -19235225.511 7  -7355335.85222
  17503349.3374  -30113051.56147 -23208639.47863
  17058756.7434  -37741218.75747 -29208126.14862
  20545316.782   -11081384.604 5     51216.17121
 92  5 10  5 43 44.9890000  0  4G23G17G 3G20
  18288328.407   -19287539.749 7  -7396100.12522
  17497694.2674  -30142781.45147 -23231805.61663
  17053657.7744  -37768010.65447 -29229002.95162
  20551570.368   -11048509.382 5
 92  5 10  5 43 59.9880000  0  4G23G17G 3G20
  18278389.574   -19339760.858 7  -7436791.81822
  17492048.926   -30172457.042 7 -23254929.44023
  17048580.1924  -37794696.34947 -29249797.00262
  20557831.223   -11015631.006 5
 92  5 10  5 44 14.9880000  0  4G23G17G 3G20
  18268470.770   -19391894.638 7  -7477415.46622
  17486408.2774  -30202079.47147 -23278011.84263
  17043521.7384  -37821275.78547 -29270508.25262
  20564085.340   -10982742.710 5
 92  5 10  5 44 29.9880000  0  4G23G17G 3G20
  18258565.996   -19443941.358 7  -7517971.26222
  17480785.3634  -30231650.83947 -23301054.45863
  17038483.7544  -37847750.00447 -29291137.51262
  20570345.723   -10949849.257 5        -0.09731
 92  5 10  5 44 44.9880000  0  4G23G17G 3G20
  18248678.910   -19495897.341 7  -7558456.36822
  17475163.7314  -30261171.87647 -23324057.85663
  17033467.8094  -37874115.53647 -29311682.08362
  20576606.824   -10916947.858 5     25637.60521
 92  5 10  5 44 59.9880000  0  4G23G17G 3G20
  18238808.387   -19547764.067 7  -7598871.92422
  17469559.2704  -30290640.89047 -23347020.72263
  17028471.0594  -37900371.54047 -29332141.30962
  20582868.5984  -10884038.75144     51281.17361
 92  5 10  5 45 14.9880000  0  4G23G17G 3G20
  18228954.223   -19599540.492 7  -7639217.10722
  17463954.8954  -30320057.27447 -23369942.56363
  17023496.9184  -37926516.84847 -29352514.27262
  20589130.8564  -10851120.85645     76931.79361
 92  5 10  5 45 29.9880000  0  4G23G17G 3G20
  18219119.152   -19651229.416 7  -7679494.11522
  17458369.0674  -30349424.81847 -23392826.35363
  17018542.9814  -37952554.03347 -29372802.98762
  20595393.356   -10818197.714 5
 92  5 10  5 45 44.9880000  0  4G23G17G 3G20
  18209302.160   -19702825.207 7  -7719698.55422
  17452789.7464  -30378739.56447 -23415669.00763
  17013609.3094  -37978481.58947 -29393006.27662
  20601662.871   -10785268.360 5
 92  5 10  5 45 59.9880000  0  4G23G17G 3G20
  18199502.012   -19754324.998 7  -7759828.18422
  17447224.0354  -30408000.18847 -23438469.48263
  17008695.0124  -38004299.89947 -29413124.44262
  20607927.902   -10752334.080 5
 92  5 10  5 46 14.9880000  0  4G23G17G 3G20
  18189718.613   -19805730.120 7  -7799884.04722
  17441663.3094  -30437209.99047 -23461230.36163
  17003800.7234  -38030010.28347 -29433158.50262
  20614201.957   -10719396.351 5
 92  5 10  5 46 29.9880000  0  4G23G17G 3G20
  18179954.1374  -19857038.71147  -7839864.69662
  17436113.2464  -30466369.60047 -23483952.11963
  16998932.4344  -38055612.28347 -29453108.11462
  20620465.5124  -10686455.98545
 92  5 10  5 46 44.9880000  0  4G23G17G 3G20
  18170211.043   -19908245.368 7  -7879765.91522
  17430578.5904  -30495474.79547 -23506631.48663
  16994080.9424  -38081103.34647 -29472971.28062
  20626733.2154  -10653510.35145
 92  5 10  5 46 59.9880000  0  4G23G17G 3G20
  18160484.887   -19959350.559 7  -7919588.05822
  17425049.6524  -30524522.06547 -23529265.71363
  16989248.7464  -38106484.04247 -29492748.44462
  20633002.379   -10620560.879 5        -0.48931
 92  5 10  5 47 14.9880000  0  4G23G17G 3G20
  18150779.285   -20010355.852 7  -7959332.36222
  17419530.3244  -30553509.05847 -23551852.97063
  16984442.0044  -38131756.10947 -29512440.96562
  20639271.3794  -10587609.96143
 92  5 10  5 47 29.9880000  0  4G23G17G 3G20
  18141092.2544  -20061258.85947  -7998996.98062
  17414031.2544  -30582438.53747 -23574395.40963
  16979651.3634  -38156917.86747 -29532047.53062
  20645549.8484  -10554656.48545
 92  5 10  5 47 44.9880000  0  4G23G17G 3G20
  18131427.176   -20112054.000 7  -8038577.55422
  17408531.801   -30611308.158 7 -23596891.20723
  16974888.0354  -38181966.75947 -29551566.15062
  20651803.2464  -10521698.71443
 92  5 10  5 47 59.9880000  0  4G23G17G 3G20
  18121781.3564  -20162735.04147  -8078069.21162
  17403055.9424  -30640115.70647 -23619338.63963
  16970139.3794  -38206899.02547 -29570993.89462
  20658088.6134  -10488733.41145
 92  5 10  5 48 14.9880000  0  4G23G17G 3G20
  18112160.1214  -20213305.16147  -8117474.43562
  17397580.0274  -30668865.22547 -23641740.85263
  16965421.3484  -38231717.11547 -29590332.67162
  20664366.754   -10455763.993 5
 92  5 10  5 48 29.9880000  0  4G23G17G 3G20
  18102556.231   -20263768.778 7  -8156796.65822
  17392121.1374  -30697561.78447 -23664101.79263
  16960716.4264  -38256426.61447 -29609586.82562
  20670638.426   -10422796.201 5
 92  5 10  5 48 44.9880000  0  4G23G17G 3G20
  18092973.2774  -20314123.69847  -8196034.20262
  17386671.0744  -30726203.18447 -23686419.76163
  16956036.3484  -38281025.51347 -29628754.80362
  20676910.684   -10389828.490 5
 92  5 10  5 48 59.9880000  0  4G23G17G 3G20
  18083412.418   -20364369.857 7  -8235186.97422
  17381229.8404  -30754787.59647 -23708693.32563
  16951377.8954  -38305511.37747 -29647834.69862
  20683187.199   -10356859.269 5
 92  5 10  5 49 14.9880000  0  4G23G17G 3G20
  18073870.5594  -20414513.24147  -8274259.68362
  17375803.0354  -30783321.86347 -23730927.80763
  16946736.4264  -38329887.45947 -29666829.05362
  20689460.7624  -10323891.77643
 92  5 10  5 49 29.9880000  0  4G23G17G 3G20
  18064348.027   -20464557.597 7  -8313255.21022
  17370380.9814  -30811816.24247 -23753131.20563
  16942117.8714  -38354157.52047 -29685740.78962
  20695729.8094  -10290931.11645
 92  5 10  5 49 44.9880000  0  4G23G17G 3G20
  18054843.7314  -20514497.02847  -8352168.99062
  17364965.527   -30840263.148 7 -23775297.61123
  16937523.4264  -38378314.71247 -29704564.57762
  20702002.809   -10257970.934 5        -0.26131
 92  5 10  5 49 59.9880000  0  4G23G17G 3G20
  18045360.4574  -20564330.07947  -8390999.87962
  17359560.7774  -30868656.81847 -23797422.53763
  16932950.1524  -38402355.50047 -29723297.65962
  20708275.567   -10225008.363 5     25684.69221
 92  5 10  5 50 14.9880000  0  4G23G17G 3G20
  18035896.152   -20614062.670 7  -8429752.50222
  17354170.8094  -30896996.60447 -23819505.48263
  16928397.0984  -38426280.12047 -29741940.22062
  20714548.9734  -10192043.87645     51371.34161
 92  5 10  5 50 29.9880000  0  4G23G17G 3G20
  18026451.004   -20663700.689 7  -8468431.43922
  17348786.3954  -30925287.10447 -23841550.01963
  16923863.0594  -38450092.93647 -29760495.66262
  20720821.574   -10159083.042 5
 92  5 10  5 50 44.9880000  0  4G23G17G 3G20
  18017023.8714  -20713247.74447  -8507039.49862
  17343412.2074  -30953531.07247 -23863558.29963
  16919353.7234  -38473794.43547 -29778964.36262
  20727094.660   -10126126.175 6
 92  5 10  5 50 59.9880000  0  4G23G17G 3G20
  18007611.840   -20762707.988 7  -8545579.90222
  17338044.2154  -30981729.86147 -23885531.37063
  16914862.7774  -38497385.36247 -29797346.90862
  20733362.0274  -10093175.21243
 92  5 10  5 51 14.9880000  0  4G23G17G 3G20
  17998216.496   -20812076.487 7  -8584048.81022
  17332690.9184  -31009876.31447 -23907463.66663
  16910398.0044  -38520859.40847 -29815638.37362
  20739635.7544  -10060224.03545
 92  5 10  5 51 29.9880000  0  4G23G17G 3G20
  17988838.0744  -20861357.12847  -8622449.27962
  17327344.1524  -31037972.04547 -23929356.43863
  16905952.8404  -38544221.11047 -29833842.29862
  20745907.762   -10027277.993 5        -0.00631
 92  5 10  5 51 44.9880000  0  4G23G17G 3G20
  17979477.129   -20910551.208 7  -8660782.29322
  17322005.4494  -31066012.42647 -23951206.07763
  16901528.3634  -38567471.51747 -29851959.50262
  20752171.3954   -9994338.80145     25666.77961
 92  5 10  5 51 59.9880000  0  4G23G17G 3G20
  17970134.4264  -20959656.03147  -8699045.72862
  17316681.4734  -31093990.94447 -23973007.51763
  16897126.3324  -38590605.97447 -29869986.35162
  20758438.981    -9961402.898 4     51330.63321
 92  5 10  5 52 14.9880000  0  4G23G17G 3G20
  17960805.082   -21008674.454 7  -8737241.86122
  17311369.7934  -31121911.33247 -23994763.65863
  16892743.5514  -38613627.58847 -29887925.27562
  20764709.348    -9928473.138 5     76989.90821
 92  5 10  5 52 29.9880000  0  4G23G17G 3G20
  17951495.5044  -21057602.41147  -8775367.50362
  17306070.0044  -31149773.68347 -24016474.57463
  16888383.7704  -38636534.85847 -29905775.09962
  20770974.3634   -9895549.16645
 92  5 10  5 52 44.9880000  0  4G23G17G 3G20
  17942202.2234  -21106433.71247  -8813417.84562
  17300777.8404  -31177577.98547 -24038140.26163
  16884049.2854  -38659324.21847 -29923533.04362
  20777239.817    -9862627.651 5
 92  5 10  5 52 59.9880000  0  4G23G17G 3G20
  17932927.723   -21155172.658 7  -8851396.23222
  17295494.0204  -31205326.55347 -24059762.51663
  16879735.0204  -38681999.06347 -29941201.75862
  20783498.1604   -9829712.37044
 92  5 10  5 53 14.9880000  0  4G23G17G 3G20
  17923670.973   -21203810.618 7  -8889295.89222
  17290228.9494  -31233011.99147 -24081335.57963
  16875440.6684  -38704553.73247 -29958776.83062
  20789760.9494   -9796798.53144
 92  5 10  5 53 29.9880000  0  5G23G17G 3G21G20
  17914435.2464  -21252345.35047  -8927115.13562
  17284971.6064  -31260635.45347 -24102860.35263
  16871171.8954  -38726987.71947 -29976257.86262
  21029909.4884         -0.47255
  20796026.9574   -9763886.26545
 92  5 10  5 53 44.9880000  0  5G23G17G 3G21G20
  17905215.973   -21300788.294 7  -8964862.83422
  17279723.5044  -31288209.17747 -24124346.36963
  16866925.0354  -38749311.71447 -29993653.18662
  21016968.6214     -67998.83744
  20802286.8174   -9730986.88545
 92  5 10  5 53 59.9880000  0  5G23G17G 3G21G20
  17896016.934   -21349135.586 7  -9002536.00922
  17274486.5434  -31315734.48747 -24145794.65963
  16862696.0354  -38771521.73447 -30010959.70262
  21004036.6524    -135967.42744
  20808543.6064   -9698096.72744
 92  5 10  5 54 14.9880000  0  5G23G17G 3G21G20
  17886836.4344  -21397377.41347  -9040127.00462
  17269255.7934  -31343209.94347 -24167204.09963
  16858496.4024  -38793610.81147 -30028171.97462
  20991109.2314    -203899.55344
  20814804.2234   -9665209.39545
 92  5 10  5 54 29.9880000  0  5G23G17G 3G21G20
  17877675.8094  -21445514.99947  -9077636.77362
  17264042.2074  -31370639.17547 -24188577.52463
  16854311.9104  -38815582.58747 -30045292.84462
  20978187.1214    -271799.04045
  20821067.3404   -9632329.47345
 92  5 10  5 54 44.9880000  0  5G23G17G 3G21G20
  17868536.074   -21493551.459 7  -9115067.73922
  17258828.1214  -31398024.97847 -24209917.10363
  16850155.0824  -38837439.59347 -30062324.27762
  20965274.481     -339667.398 5
  20827321.4734   -9599459.90445
 92  5 10  5 54 59.9880000  0  4G23G17G 3G21
  17859413.6604  -21541488.84547  -9152421.50462
  17253625.2154  -31425364.19147 -24231220.37963
  16846018.1844  -38859181.47547 -30079266.00762
  20952359.4884    -407501.55144
 92  5 10  5 55 14.9880000  0  4G23G17G 3G21
  17850311.207   -21589320.478 7  -9189692.86822
  17248432.4654  -31452647.04747 -24252479.74363
  16841900.7854  -38880802.36447 -30096113.45562
  20939461.402     -475292.175 5        -0.06031
 92  5 10  5 55 29.9880000  0  4G23G17G 3G21
  17841228.590   -21637050.298 7  -9226884.88622
  17243249.6374  -31479879.83447 -24273700.08963
  16837810.6454  -38902306.62847 -30112870.02762
  20926571.207     -543040.224 5    -52790.57121
 92  5 10  5 55 44.9880000  0  4G23G17G 3G21
  17832166.285   -21684674.765 7  -9263994.83122
  17238078.0594  -31507061.13347 -24294880.31763
  16833742.6764  -38923690.96647 -30129533.15262
  20913685.6134    -610738.36545   -105542.29661
 92  5 10  5 55 59.9880000  0  4G23G17G 3G21
  17823123.2544  -21732193.44647  -9301022.34862
  17232914.6924  -31534191.01247 -24316020.47363
  16829694.6684  -38944956.17147 -30146103.44162
  20900815.3094    -678386.55545   -158255.01761
 92  5 10  5 56 14.9880000  0  4G23G17G 3G21
  17814102.6294  -21779604.75847  -9337966.19362
  17227760.5124  -31561270.62847 -24337121.46763
  16825668.6294  -38966103.14247 -30162581.60162
  20887952.145     -745986.059 5   -210929.85621
 92  5 10  5 56 29.9880000  0  4G23G17G 3G21
  17805099.3094  -21826909.96647  -9374827.35762
  17222621.8174  -31588295.03647 -24358179.44363
  16821667.2854  -38987131.67847 -30178967.47162
  20875095.520     -813536.052 5   -263566.09421
 92  5 10  5 56 44.9880000  0  4G23G17G 3G21
  17796117.488   -21874114.404 7  -9411609.98522
  17217489.5044  -31615264.70247 -24379194.75663
  16817688.5044  -39008043.71047 -30195262.56262
  20862252.3484    -881038.82645   -316165.50561
 92  5 10  5 56 59.9880000  0  4G23G17G 3G21
  17787153.551   -21921213.526 7  -9448310.55122
  17212369.8174  -31642174.94547 -24400163.77263
  16813731.2464  -39028833.67047 -30211462.52862
  20849418.926     -948488.961 5   -368723.91621
 92  5 10  5 57 14.9880000  0  4G23G17G 3G21
  17778210.926   -21968205.512 7  -9484927.64222
  17207258.1604  -31669026.58447 -24421087.12363
  16809798.7384  -39049501.13347 -30227567.04862
  20836592.2384   -1015887.71945   -421242.33461
 92  5 10  5 57 29.9880000  0  4G23G17G 3G21
  17769289.215   -22015094.088 7  -9521464.15122
  17202160.0744  -31695828.37747 -24441971.63163
  16805887.8874  -39070051.59747 -30243580.39662
  20823771.5434   -1083244.01045   -473727.61561
 92  5 10  5 57 44.9880000  0  4G23G17G 3G21
  17760385.152   -22061879.629 7  -9557920.37322
  17197067.6214  -31722582.36547 -24462818.88663
  16801999.2464  -39090485.32047 -30259502.77762
  20810961.637    -1150560.223 5   -526181.69321
 92  5 10  5 57 59.9880000  0  4G23G17G 3G21
  17751502.004   -22108560.920 7  -9594295.36422
  17191985.4654  -31749282.12547 -24483623.88563
  16798135.3714  -39110799.41947 -30275331.94362
  20798157.1524   -1217836.86545   -578604.90361
 92  5 10  5 58 14.9880000  0  4G23G17G 3G21
  17742639.2934  -22155140.72647  -9630591.27763
  17186912.0204  -31775926.69347 -24504385.88363
  16794294.6294  -39130994.04447 -30291068.01162
  20785365.840    -1285077.889 5   -631000.38421
 92  5 10  5 58 29.9880000  0  4G23G17G 3G21
  17733793.6764  -22201622.72147  -9666810.97462
  17181853.4344  -31802517.80547 -24525106.22663
  16790473.1844  -39151069.91547 -30306711.54562
  20772574.660    -1352285.997 5   -683370.23221
 92  5 10  5 58 44.9880000  0  4G23G17G 3G21
  17724967.0904  -22248008.31347  -9702955.55863
  17176805.9494  -31829057.60847 -24545786.58963
  16786672.9884  -39171028.84147 -30322263.94962
  20759791.613    -1419463.454 5   -735716.15921
 92  5 10  5 58 59.9880000  0  4G23G17G 3G21
  17716161.254   -22294287.548 7  -9739017.25422
  17171765.0204  -31855540.54947 -24566422.64163
  16782900.6374  -39190863.06347 -30337719.18962
  20747015.8634   -1486602.26645   -788032.03261
 92  5 10  5 59 14.9880000  0  4G23G17G 3G21
  17707373.1524  -22340466.55447  -9775000.85663
  17166736.4494  -31881972.64247 -24587019.07163
  16779148.0744  -39210578.40747 -30353081.79762
  20734244.0824   -1553707.03745   -840321.33361
 92  5 10  5 59 29.9880000  0  4G23G17G 3G21
  17698604.442   -22386539.762 7  -9810902.01423
  17161717.8014  -31908348.16647 -24607571.42163
  16775419.3404  -39230169.12547 -30368347.29162
  20721479.6924   -1620773.61445   -892580.90261
 92  5 10  5 59 44.9880000  0  4G23G17G 3G21
  17689855.762   -22432509.273 7  -9846722.37023
  17156706.6134  -31934668.67947 -24628080.91563
  16771717.5274  -39249635.90647 -30383516.21362
  20708727.567    -1687801.813 5   -944810.56421
 92  5 10  5 59 59.9880000  0  4G23G17G 3G21
  17681129.5204  -22478378.18947  -9882464.34462
  17151709.8794  -31960931.86147 -24648545.72863
  16768033.1064  -39268977.87247 -30398587.87562
  20695981.731    -1754790.734 5   -997009.61921
 92  5 10  6  0 14.9880000  0  4G23G17G 3G21
  17672418.379   -22524152.635 7  -9918132.69523
  17146720.0204  -31987145.88147 -24668972.23563
  16764378.8484  -39288199.40947 -30413565.69562
  20683241.5044   -1821744.84045  -1049181.54961
 92  5 10  6  0 29.9880000  0  4G23G17G 3G21
  17663726.231   -22569828.498 7  -9953724.22323
  17141742.1684  -32013311.25547 -24689360.83963
  16760742.3244  -39307296.77647 -30428446.76262
  20670509.7234   -1888659.15145  -1101322.49461
 92  5 10  6  0 44.9880000  0  4G23G17G 3G21
  17655053.457   -22615407.730 7  -9989240.46222
  17136769.9814  -32039431.88247 -24709714.57263
  16757132.1764  -39326274.86847 -30443234.89062
  20657777.621    -1955534.789 5  -1153433.23721
 92  5 10  6  0 59.9880000  0  4G23G17G 3G21
  17646398.067   -22660885.675 7 -10024677.76723
  17131806.7234  -32065499.96847 -24730027.36863
  16753544.5514  -39345128.74947 -30457926.22762
  20645063.9964   -2022365.55745  -1205509.09661
 92  5 10  6  1 14.9880000  0  4G23G17G 3G21
  17637762.168   -22706266.902 7 -10060039.70523
  17126858.2464  -32091516.93047 -24750300.32263
  16749979.4494  -39363859.43747 -30472521.57462
  20632354.715    -2089152.508 5  -1257550.77021
 92  5 10  6  1 29.9880000  0  4G23G17G 3G21
  17629146.0274  -22751553.65147 -10095328.03063
  17121921.1684  -32117485.23447 -24770535.36163
  16746436.8484  -39382469.33447 -30487022.80062
  20619649.9184   -2155898.38745  -1309560.44561
 92  5 10  6  1 44.9880000  0  4G23G17G 3G21
  17620545.402   -22796741.697 7 -10130539.44223
  17116988.3794  -32143399.46147 -24790728.26663
  16742920.7624  -39400954.78147 -30501427.04362
  20606955.6764   -2222600.31245  -1361535.86961
 92  5 10  6  1 59.9880000  0  4G23G17G 3G21
  17611965.652   -22841830.175 7 -10165673.27023
  17112065.9024  -32169257.54847 -24810877.42763
  16739427.7774  -39419314.11247 -30515733.01462
  20594278.324    -2289253.220 5  -1413473.06821
 92  5 10  6  2 14.9880000  0  4G23G17G 3G21
  17603403.3954  -22886817.01847 -10200727.89662
  17107156.8094  -32195058.13347 -24830981.78263
  16735958.4654  -39437546.78447 -30529940.30362
  20581601.809    -2355856.458 5  -1465371.59321
 92  5 10  6  2 29.9880000  0  4G23G17G 3G21
  17594864.8484  -22931696.28347 -10235698.69463
  17102256.8244  -32220798.35847 -24851039.09963
  16732513.129   -39455650.746 7 -30544047.29822
  20568935.2624   -2422407.84245  -1517229.70461
 92  5 10  6  2 44.9880000  0  4G23G17G 3G21
  17586344.106   -22976470.118 7 -10270587.34222
  17097372.8874  -32246478.03347 -24871049.23463
  16729091.7074  -39473630.84947 -30558057.77562
  20556282.0434   -2488910.17445  -1569049.59161
 92  5 10  6  2 59.9880000  0  4G23G17G 3G21
  17577843.637   -23021142.561 7 -10305396.98823
  17092495.1524  -32272100.35047 -24891014.67963
  16725692.3014  -39491490.93347 -30571974.73062
  20543637.293    -2555366.920 5  -1620833.93621
 92  5 10  6  3 14.9880000  0  4G23G17G 3G21
  17569362.1294  -23065716.11647 -10340129.57062
  17087628.6604  -32297669.67147 -24910938.82163
  16722317.1994  -39509230.70847 -30585797.94062
  20530998.442    -2621780.421 5  -1672584.61721
 92  5 10  6  3 29.9880000  0  4G23G17G 3G21
  17560899.4264  -23110184.90247 -10374780.51163
  17082775.7234  -32323185.16747 -24930821.02563
  16718964.2854  -39526845.88947 -30599524.06662
  20518369.9024   -2688147.92545  -1724299.45561
 92  5 10  6  3 44.9880000  0  4G23G17G 3G21
  17552455.402   -23154548.149 7 -10409349.21723
  17077929.1064  -32348647.42147 -24950661.74363
  16715635.402   -39544337.995 7 -30613154.28822
  20505745.785    -2754470.865 5  -1775979.52021
 92  5 10  6  3 59.9880000  0  4G23G17G 3G21
  17544035.660   -23198802.990 7 -10443833.45923
  17073094.6844  -32374055.22747 -24970460.03463
  16712330.0904  -39561704.30847 -30626686.48762
  20493133.4024   -2820747.43145  -1827623.47561
 92  5 10  6  4 14.9880000  0  4G23G17G 3G21
  17535633.910   -23242950.480 7 -10478234.04223
  17068266.1134  -32399410.08947 -24990217.07463
  16709051.5434  -39578945.14947 -30640120.91362
  20480530.684    -2886980.121 5  -1879233.24421
 92  5 10  6  4 29.9880000  0  4G23G17G 3G21
  17527256.238   -23286988.494 7 -10512549.32623
  17063455.0354  -32424710.36347 -25009931.57863
  16705794.0274  -39596058.94247 -30653456.34662
  20467935.942    -2953170.972 5  -1930810.41521
 92  5 10  6  4 44.9880000  0  4G23G17G 3G21
  17518893.3174  -23330926.05447 -10546786.32662
  17058649.9494  -32449963.60647 -25029609.43363
  16702559.3714  -39613050.86847 -30666696.81362
  20455345.0824   -3019323.38545  -1982357.59861
 92  5 10  6  4 59.9870000  0  4G23G17G 3G21
  17510552.741   -23374758.861 7 -10580941.70823
  17053852.0464  -32475165.87247 -25049247.56463
  16699350.7494  -39629914.27047 -30679837.13262
  20442767.460    -3085429.262 5  -2033868.57421
 92  5 10  6  5 14.9870000  0  4G23G17G 3G21
  17502228.851   -23418493.179 7 -10615020.34423
  17049068.2184  -32500319.11147 -25068847.49063
  16696165.9374  -39646648.48147 -30692876.78062
  20430193.530    -3151496.797 5  -2085349.62221
 92  5 10  6  5 29.9870000  0  4G23G17G 3G21
  17493926.515   -23462127.719 7 -10649021.22923
  17044290.5934  -32525422.39847 -25088408.49263
  16693007.2414  -39663254.81447 -30705816.78262
  20417633.7654   -3217526.07845  -2136800.91261
 92  5 10  6  5 44.9870000  0  4G23G17G 3G21
  17485640.148   -23505665.847 7 -10682946.99423
  17039522.6554  -32550476.33847 -25107931.05263
  16689868.8904  -39679738.37147 -30718661.11562
  20405071.8744   -3283521.27545  -2188225.59761
 92  5 10  6  5 59.9870000  0  4G23G17G 3G21
  17477374.429   -23549104.956 7 -10716795.60523
  17034765.3984  -32575473.99347 -25127409.74563
  16686757.5384  -39696093.18247 -30731405.13062
  20392518.718    -3349474.714 5  -2239617.75421
 92  5 10  6  6 14.9870000  0  4G23G17G 3G21
  17469125.632   -23592451.478 7 -10750572.06422
  17030018.4134  -32600419.77747 -25146848.01963
  16683669.0854  -39712323.58447 -30744052.20262
  20379978.023    -3415390.619 5  -2290980.67921
 92  5 10  6  6 29.9870000  0  4G23G17G 3G21
  17460894.905   -23635704.591 7 -10784275.73923
  17025284.8664  -32625311.87847 -25166244.46263
  16680603.3354  -39728428.03147 -30756601.12562
  20367443.265    -3481265.525 5  -2342311.62421
 92  5 10  6  6 44.9870000  0  4G23G17G 3G21
  17452683.523   -23678860.316 7 -10817903.52823
  17020553.7414  -32650150.68047 -25185599.37863
  16677564.7884  -39744404.04547 -30769049.96962
  20354918.6484   -3547090.83545  -2393603.93761
 92  5 10  6  6 59.9870000  0  4G23G17G 3G21
  17444489.898   -23721921.174 7 -10851457.40423
  17015840.0774  -32674936.93848 -25204913.34763
  16674548.6794  -39760254.69147 -30781401.12562
  20342397.882    -3612868.425 5  -2444859.07521
 92  5 10  6  7 14.9870000  0  4G23G17G 3G21
  17436313.062   -23764886.304 7 -10884936.67822
  17011131.0544  -32699671.21247 -25224186.81163
  16671556.3514  -39775983.66247 -30793657.47362
  20329890.7964   -3678604.47645  -2496081.83561
 92  5 10  6  7 29.9870000  0  4G23G17G 3G21
  17428157.4764  -23807744.90947 -10918332.95663
  17006436.3984  -32724344.45547 -25243412.72163
  16668587.3044  -39791583.69847 -30805813.34762
  20317390.030    -3744287.675 5  -2547263.37821
 92  5 10  6  7 44.9870000  0  4G23G17G 3G21
  17420021.0854  -23850499.71547 -10951648.34762
  17001751.7964  -32748962.31147 -25262595.47063
  16665640.6714  -39807059.66047 -30817872.54062
  20304900.6634   -3809919.47745  -2598404.87761
 92  5 10  6  7 59.9870000  0  4G23G17G 3G21
  17411905.1164  -23893151.40647 -10984883.39763
  16997077.5694  -32773527.11647 -25281736.88063
  16662719.2734  -39822411.97647 -30829835.38962
  20292422.6634   -3875498.39345  -2649505.17261
 92  5 10  6  8 14.9870000  0  4G23G17G 3G21
  17403809.1554  -23935695.43747 -11018034.55563
  16992411.7414  -32798038.31247 -25300836.51863
  16659822.5544  -39837638.08647 -30841699.89162
  20279952.655    -3941022.629 5  -2700562.83521
 92  5 10  6  8 29.9870000  0  4G23G17G 3G21
  17395732.9604  -23978127.65647 -11051098.59262
  16987760.0694  -32822493.18147 -25319892.26263
  16656949.8044  -39852734.87047 -30853463.62462
  20267496.5154   -4006491.46845  -2751577.34861
 92  5 10  6  8 44.9870000  0  4G23G17G 3G21
  17387680.5154  -24020448.97947 -11084076.21863
  16983114.0154  -32846895.24647 -25338906.86363
  16654101.4134  -39867704.65947 -30865128.40562
  20255042.812    -4071908.146 5  -2802551.19821
 92  5 10  6  8 59.9870000  0  4G23G17G 3G21
  17379648.616   -24062665.136 7 -11116971.89923
  16978482.1634  -32871246.12247 -25357881.57463
  16651275.6404  -39882550.39547 -30876696.51662
  20242604.546    -4137280.782 5  -2853490.75721
 92  5 10  6  9 14.9870000  0  4G23G17G 3G21
  17371634.1874  -24104773.28647 -11149783.41262
  16973861.3124  -32895541.03847 -25376812.67863
  16648474.5464  -39897267.45147 -30888164.35562
  20230177.4604   -4202610.31445  -2904396.75061
 92  5 10  6  9 29.9870000  0  4G23G17G 3G21
  17363642.101   -24146774.840 7 -11182511.85823
  16969246.8044  -32919782.22247 -25395701.91063
  16645699.2414  -39911855.37647 -30899531.57962
  20217751.913    -4267894.522 5  -2955267.42921
 92  5 10  6  9 44.9870000  0  4G23G17G 3G21
  17355668.4764  -24188672.92047 -11215159.67263
  16964644.8044  -32943973.30648 -25414552.10263
  16642948.2024  -39926314.78147 -30910798.65562
  20205334.8274   -4333132.92945  -3006102.40361
 92  5 10  6  9 59.9870000  0  4G23G17G 3G21
  17347715.3514  -24230470.14447 -11247728.90662
  16960048.6484  -32968115.60847 -25433364.28563
  16640220.491   -39940645.242 7 -30921965.25922
  20192927.218    -4398328.391 5  -3056903.90421
 92  5 10  6 10 14.9870000  0  4G23G17G 3G21
  17339777.8664  -24272173.81447 -11280225.24063
  16955462.3124  -32992216.53647 -25452144.22863
  16637516.8744  -39954853.65147 -30933036.75562
  20180527.2884   -4463489.29045  -3107678.49761
 92  5 10  6 10 29.9870000  0  4G23G17G 3G21
  17331862.3514  -24313777.36747 -11312643.55763
  16950883.8124  -33016267.41047 -25470885.16363
  16634838.3824  -39968931.98747 -30944006.89762
  20168137.616    -4528607.240 5  -3158419.62721
 92  5 10  6 10 44.9870000  0  4G23G17G 3G21
  17323966.2344  -24355274.85147 -11344979.22263
  16946319.1794  -33040261.20947 -25489581.62463
  16632185.468   -39982872.940 7 -30954869.99022
  20155757.046    -4593673.517 5  -3209120.47621
 92  5 10  6 10 59.9870000  0  4G23G17G 3G21
  17316087.5544  -24396672.01247 -11377236.71163
  16941761.8354  -33064205.69047 -25508239.65863
  16629557.163   -39996683.895 7 -30965631.78522
  20143383.4214   -4658691.30045  -3259783.53361
 92  5 10  6 11 14.9870000  0  4G23G17G 3G21
  17308227.9444  -24437972.23647 -11409418.66363
  16937216.1714  -33088105.23847 -25526862.67963
  16626953.6874  -40010368.01747 -30976294.74462
  20131018.8194   -4723660.86945  -3310409.01461
 92  5 10  6 11 29.9870000  0  4G23G17G 3G21
  17300388.3044  -24479173.07647 -11441523.18262
  16932675.8904  -33111962.39848 -25545452.66963
  16624371.671   -40023927.550 7 -30986860.62622
  20118664.585    -4788579.824 5  -3360995.06421
 92  5 10  6 11 44.9870000  0  4G23G17G 3G21
  17292568.0694  -24520268.07547 -11473545.21963
  16928143.7964  -33135772.11947 -25564005.69463
  16621816.577   -40037356.239 7 -30997324.55422
  20106325.5854   -4853441.61845  -3411536.55961
 92  5 10  6 11 59.9870000  0  4G23G17G 3G21
  17284769.421   -24561249.317 7 -11505478.61523
  16923624.4054  -33159527.04548 -25582516.02263
  16619289.6944  -40050647.23947 -31007681.19162
  20093990.062    -4918243.139 5  -3462031.09521
 92  5 10  6 12 14.9870000  0  4G23G17G 3G21
  17276990.913   -24602124.809 7 -11537329.60722
  16919110.3744  -33183233.20147 -25600988.34463
  16616784.765   -40063808.475 7 -31017936.70722
  20081670.8904   -4982993.44045  -3512485.70061
 92  5 10  6 12 29.9870000  0  4G23G17G 3G21
  17269232.2104  -24642894.79847 -11569098.39162
  16914611.1094  -33206887.54847 -25619420.30263
  16614305.8044  -40076839.05547 -31028090.42062
  20069358.6244   -5047693.02545  -3562900.77261
 92  5 10  6 12 44.9870000  0  4G23G17G 3G21
  17261493.132   -24683563.999 7 -11600788.63522
  16910118.3514  -33230491.09447 -25637812.67163
  16611849.3824  -40089740.85247 -31038143.77762
  20057054.4604   -5112344.61445  -3613278.44861
 92  5 10  6 12 59.9870000  0  4G23G17G 3G21
  17253773.7734  -24724132.48047 -11632400.39662
  16905637.7104  -33254045.26047 -25656166.56363
  16609418.8984  -40102513.93847 -31048096.84062
  20044761.1794   -5176950.62345  -3663620.60861
 92  5 10  6 13 14.9870000  0  4G23G17G 3G21
  17246072.054   -24764601.122 7 -11663934.36322
  16901165.4914  -33277548.67347 -25674480.90663
  16607013.1404  -40115157.74247 -31057949.16762
  20032471.023    -5241511.817 5  -3713927.88321
 92  5 10  6 13 29.9870000  0  4G23G17G 3G21
  17238392.038   -24804967.015 7 -11695388.26322
  16896703.7884  -33300995.11047 -25692750.85463
  16604632.171   -40127668.049 7 -31067697.47222
  20020195.046    -5306028.650 5  -3764200.60021
 92  5 10  6 13 44.9870000  0  4G23G17G 3G21
  17230728.9444  -24845230.53047 -11726762.39462
  16892255.8984  -33324384.11248 -25710976.05363
  16602276.1084  -40140043.66847 -31077340.81962
  20007927.491    -5370500.720 5  -3814438.42421
 92  5 10  6 13 59.9870000  0  4G23G17G 3G21
  17223084.7344  -24885403.62947 -11758066.07363
  16887811.9604  -33347723.77348 -25729162.80563
  16599944.398   -40152293.299 7 -31086885.99922
  19995665.1014   -5434938.98445  -3864649.94661
